[[{"header":{"parameterUnit":"m.s-1","parameterCategory":1,"la1":30.6,"la2":28.766,"lo1":-90.7593,"lo2":-88.6598,"dy":0.0162,"dx":0.0183,"nx":116,"ny":114,"refTime":"2023-04-13T00:00:00:Z","depth":0,"parameterNumber":2,"parameterNumberName":"U-component_of_WINDS"},"data":[0.0,0.0,0.0,0.0,0.0,0.0,0.0,0.0,0.0,0.0,0.0,0.0,0.0,0.0,0.0,0.0,0.0,0.0,0.0,0.0,0.0,0.0,0.0,0.0,0.0,0.0,0.0,0.0,0.0,0.0,0.0,0.0,0.0,0.0,0.0,0.0,0.0,0.0,0.0,0.0,0.0,0.0,0.0,0.0,0.0,0.0,0.0,0.0,0.0,0.0,0.0,0.0,0.0,0.0,0.0,0.0,0.0,0.0,0.0,0.0,0.0,0.0,0.0,0.0,0.0,0.0,0.0,0.0,0.0,0.0,0.0,0.0,0.0,0.0,0.0,0.0,0.0,0.0,0.0,0.0,0.0,0.0,0.0,0.0,0.0,0.0,0.0,0.0,0.0,0.0,0.0,0.0,0.0,0.0,0.0,0.0,0.0,0.0,0.0,0.0,0.0,0.0,0.0,0.0,0.0,0.0,0.0,0.0,0.0,0.0,0.0,0.0,0.0,0.0,0.0,0.0,0.0,0.0,0.0,0.0,0.0,0.0,0.0,0.0,0.0,0.0,0.0,0.0,0.0,0.0,0.0,0.0,0.0,0.0,0.0,0.0,0.0,0.0,0.0,0.0,0.0,0.0,0.0,0.0,0.0,0.0,0.0,0.0,0.0,0.0,0.0,0.0,0.0,0.0,0.0,0.0,0.0,0.0,0.0,0.0,0.0,0.0,0.0,0.0,0.0,0.0,0.0,0.0,0.0,0.0,0.0,0.0,0.0,0.0,0.0,0.0,0.0,0.0,0.0,0.0,0.0,0.0,0.0,0.0,0.0,0.0,0.0,0.0,0.0,0.0,0.0,0.0,0.0,0.0,0.0,0.0,0.0,0.0,0.0,0.0,0.0,0.0,0.0,0.0,0.0,0.0,0.0,0.0,0.0,0.0,0.0,0.0,0.0,0.0,0.0,0.0,0.0,0.0,0.0,0.0,0.0,0.0,0.0,0.0,0.0,0.0,0.0,0.0,0.0,0.0,0.0,0.0,0.0,0.0,0.0,0.0,0.0,0.0,0.0,0.0,0.0,0.0,0.0,0.0,0.0,0.0,0.0,0.0,0.0,0.0,0.0,0.0,0.0,0.0,0.0,0.0,0.0,0.0,0.0,0.0,0.0,0.0,0.0,0.0,0.0,0.0,0.0,0.0,0.0,0.0,0.0,0.0,0.0,0.0,0.0,0.0,0.0,0.0,0.0,0.0,0.0,0.0,0.0,0.0,0.0,0.0,0.0,0.0,0.0,0.0,0.0,0.0,0.0,0.0,0.0,0.0,0.0,0.0,0.0,0.0,0.0,0.0,0.0,0.0,0.0,0.0,0.0,0.0,0.0,0.0,0.0,0.0,0.0,0.0,0.0,0.0,0.0,0.0,0.0,0.0,0.0,0.0,0.0,0.0,0.0,0.0,0.0,0.0,0.0,0.0,0.0,0.0,0.0,0.0,0.0,0.0,0.0,0.0,0.0,0.0,0.0,0.0,0.0,0.0,0.0,0.0,0.0,0.0,0.0,0.0,0.0,0.0,0.0,0.0,0.0,0.0,0.0,0.0,0.0,0.0,0.0,0.0,0.0,0.0,0.0,0.0,0.0,0.0,0.0,0.0,0.0,0.0,0.0,0.0,0.0,0.0,0.0,0.0,0.0,0.0,0.0,0.0,0.0,0.0,0.0,0.0,0.0,0.0,0.0,0.0,0.0,0.0,0.0,0.0,0.0,0.0,0.0,0.0,0.0,0.0,0.0,0.0,0.0,0.0,0.0,0.0,0.0,0.0,0.0,0.0,0.0,0.0,0.0,0.0,0.0,0.0,0.0,0.0,0.0,0.0,0.0,0.0,0.0,0.0,0.0,0.0,0.0,0.0,0.0,0.0,0.0,0.0,0.0,0.0,0.0,0.0,0.0,0.0,0.0,0.0,0.0,0.0,0.0,0.0,0.0,0.0,0.0,0.0,0.0,0.0,0.0,0.0,0.0,0.0,0.0,0.0,0.0,0.0,0.0,0.0,0.0,0.0,0.0,0.0,0.0,0.0,0.0,0.0,0.0,0.0,0.0,0.0,0.0,0.0,0.0,0.0,0.0,0.0,0.0,0.0,0.0,0.0,0.0,0.0,0.0,0.0,0.0,0.0,0.0,0.0,0.0,0.0,0.0,0.0,0.0,0.0,0.0,0.0,0.0,0.0,0.0,0.0,0.0,0.0,0.0,0.0,0.0,0.0,0.0,0.0,0.0,0.0,0.0,0.0,0.0,0.0,0.0,0.0,0.0,0.0,0.0,0.0,0.0,0.0,0.0,0.0,0.0,0.0,0.0,0.0,0.0,0.0,0.0,0.0,0.0,0.0,0.0,0.0,0.0,0.0,0.0,0.0,0.0,0.0,0.0,0.0,0.0,0.0,0.0,0.0,0.0,0.0,0.0,0.0,0.0,0.0,0.0,0.0,0.0,0.0,0.0,0.0,0.0,0.0,0.0,0.0,0.0,0.0,0.0,0.0,0.0,0.0,0.0,0.0,0.0,0.0,0.0,0.0,0.0,0.0,0.0,0.0,0.0,0.0,0.0,0.0,0.0,0.0,0.0,0.0,0.0,0.0,0.0,0.0,0.0,0.0,0.0,0.0,0.0,0.0,0.0,0.0,0.0,0.0,0.0,0.0,0.0,0.0,0.0,0.0,0.0,0.0,0.0,0.0,0.0,0.0,0.0,0.0,0.0,0.0,0.0,0.0,0.0,0.0,0.0,0.0,0.0,0.0,0.0,0.0,0.0,0.0,0.0,0.0,0.0,0.0,0.0,0.0,0.0,0.0,0.0,0.0,0.0,0.0,0.0,0.0,0.0,0.0,0.0,0.0,0.0,0.0,0.0,0.0,0.0,0.0,0.0,0.0,0.0,0.0,0.0,0.0,0.0,0.0,0.0,0.0,0.0,0.0,0.0,0.0,0.0,0.0,0.0,0.0,0.0,0.0,0.0,0.0,0.0,0.0,0.0,0.0,0.0,0.0,0.0,0.0,0.0,0.0,0.0,0.0,0.0,0.0,0.0,0.0,0.0,0.0,0.0,0.0,0.0,0.0,0.0,0.0,0.0,0.0,0.0,0.0,0.0,0.0,0.0,0.0,0.0,0.0,0.0,0.0,0.0,0.0,0.0,0.0,0.0,0.0,0.0,0.0,0.0,0.0,0.0,0.0,0.0,0.0,0.0,0.0,0.0,0.0,0.0,0.0,0.0,0.0,0.0,0.0,0.0,0.0,0.0,0.0,0.0,0.0,0.0,0.0,0.0,0.0,0.0,0.0,0.0,0.0,0.0,0.0,0.0,0.0,0.0,0.0,0.0,0.0,0.0,0.0,0.0,0.0,0.0,0.0,0.0,0.0,0.0,0.0,0.0,0.0,0.0,0.0,0.0,0.0,0.0,0.0,0.0,0.0,0.0,0.0,0.0,0.0,0.0,0.0,0.0,0.0,0.0,0.0,0.0,0.0,0.0,0.0,0.0,0.0,0.0,0.0,0.0,0.0,0.0,0.0,0.0,0.0,0.0,0.0,0.0,0.0,0.0,0.0,0.0,0.0,0.0,0.0,0.0,0.0,0.0,0.0,0.0,0.0,0.0,0.0,0.0,0.0,0.0,0.0,0.0,0.0,0.0,0.0,0.0,0.0,0.0,0.0,0.0,0.0,0.0,0.0,0.0,0.0,0.0,0.0,0.0,0.0,0.0,0.0,0.0,0.0,0.0,0.0,0.0,0.0,0.0,0.0,0.0,0.0,0.0,0.0,0.0,0.0,0.0,0.0,0.0,0.0,0.0,0.0,0.0,0.0,0.0,0.0,0.0,0.0,0.0,0.0,0.0,0.0,0.0,0.0,0.0,0.0,0.0,0.0,0.0,0.0,0.0,0.0,0.0,0.0,0.0,0.0,0.0,0.0,0.0,0.0,0.0,0.0,0.0,0.0,0.0,0.0,0.0,0.0,0.0,0.0,0.0,0.0,0.0,0.0,0.0,0.0,0.0,0.0,0.0,0.0,0.0,0.0,0.0,0.0,0.0,0.0,0.0,0.0,0.0,0.0,0.0,0.0,0.0,0.0,0.0,0.0,0.0,0.0,0.0,0.0,0.0,0.0,0.0,0.0,0.0,0.0,0.0,0.0,0.0,0.0,0.0,0.0,0.0,0.0,0.0,0.0,0.0,0.0,0.0,0.0,0.0,0.0,0.0,0.0,0.0,0.0,0.0,0.0,0.0,0.0,0.0,0.0,0.0,0.0,0.0,0.0,0.0,0.0,0.0,0.0,0.0,0.0,0.0,0.0,0.0,0.0,0.0,0.0,0.0,0.0,0.0,0.0,0.0,0.0,0.0,0.0,0.0,0.0,0.0,0.0,0.0,0.0,0.0,0.0,0.0,0.0,0.0,0.0,0.0,0.0,0.0,0.0,0.0,0.0,0.0,0.0,0.0,0.0,0.0,0.0,0.0,0.0,0.0,0.0,0.0,0.0,0.0,0.0,0.0,0.0,0.0,0.0,0.0,0.0,0.0,0.0,0.0,0.0,0.0,0.0,0.0,0.0,0.0,0.0,0.0,0.0,0.0,0.0,0.0,0.0,0.0,0.0,0.0,0.0,0.0,0.0,0.0,0.0,0.0,0.0,0.0,0.0,0.0,0.0,0.0,0.0,0.0,0.0,0.0,0.0,0.0,0.0,0.0,0.0,0.0,0.0,0.0,0.0,0.0,0.0,0.0,0.0,0.0,0.0,0.0,0.0,0.0,0.0,0.0,0.0,0.0,0.0,0.0,0.0,0.0,0.0,0.0,0.0,0.0,0.0,0.0,0.0,0.0,0.0,0.0,0.0,0.0,0.0,0.0,0.0,0.0,0.0,0.0,0.0,0.0,0.0,0.0,0.0,0.0,0.0,0.0,0.0,0.0,0.0,0.0,0.0,0.0,0.0,0.0,0.0,0.0,0.0,0.0,0.0,0.0,0.0,0.0,0.0,0.0,0.0,0.0,0.0,0.0,0.0,0.0,0.0,0.0,0.0,0.0,0.0,0.0,0.0,0.0,0.0,0.0,0.0,0.0,0.0,0.0,0.0,0.0,0.0,0.0,0.0,0.0,0.0,0.0,0.0,0.0,0.0,0.0,0.0,0.0,0.0,0.0,0.0,0.0,0.0,0.0,0.0,0.0,0.0,0.0,0.0,0.0,0.0,0.0,0.0,0.0,0.0,0.0,0.0,0.0,0.0,0.0,0.0,0.0,0.0,0.0,0.0,0.0,0.0,0.0,0.0,0.0,0.0,0.0,0.0,0.0,0.0,0.0,0.0,0.0,0.0,0.0,0.0,0.0,0.0,0.0,0.0,0.0,0.0,0.0,0.0,0.0,0.0,0.0,0.0,0.0,0.0,0.0,0.0,0.0,0.0,0.0,0.0,0.0,0.0,0.0,0.0,0.0,0.0,0.0,0.0,0.0,0.0,0.0,0.0,0.0,0.0,0.0,0.0,0.0,0.0,0.0,0.0,0.0,0.0,0.0,0.0,0.0,0.0,0.0,0.0,0.0,0.0,0.0,0.0,0.0,0.0,0.0,0.0,0.0,0.0,0.0,0.0,0.0,0.0,0.0,0.0,0.0,0.0,0.0,0.0,0.0,0.0,0.0,0.0,0.0,0.0,0.0,0.0,0.0,0.0,0.0,0.0,0.0,0.0,0.0,0.0,0.0,0.0,0.0,0.0,0.0,0.0,0.0,0.0,0.0,0.0,0.0,0.0,0.0,0.0,0.0,0.0,0.0,0.0,0.0,0.0,0.0,0.0,0.0,0.0,0.0,0.0,0.0,0.0,0.0,0.0,0.0,0.0,0.0,0.0,0.0,0.0,0.0,0.0,0.0,0.0,0.0,0.0,0.0,0.0,0.0,0.0,0.0,0.0,0.0,0.0,0.0,0.0,0.0,0.0,0.0,0.0,0.0,0.0,0.0,0.0,0.0,0.0,0.0,0.0,0.0,0.0,0.0,0.0,0.0,0.0,0.0,0.0,0.0,0.0,0.0,0.0,0.0,0.0,0.0,0.0,0.0,0.0,0.0,0.0,0.0,0.0,-0.1735,0.0,0.0,0.0,0.0,0.0,0.0,0.0,0.0,0.0,0.0,0.0,0.0,0.0,0.0,0.0,0.0,0.0,0.0,0.0,0.0,0.0,0.0,0.0,0.0,0.0,0.0,0.0,0.0,0.0,0.0,0.0,0.0,0.0,0.0,0.0,0.0,0.0,0.0,-0.6588,-0.5873,-0.5156,-0.4522,-0.4877,-0.4938,-0.4816,0.0,0.0,0.0,0.0,0.0,0.0,0.0,0.0,0.0,0.0,0.0,0.0,0.0,0.0,0.0,0.0,0.0,0.0,0.0,0.0,0.0,0.0,0.0,0.0,0.0,0.0,0.0,0.0,0.0,0.0,0.0,0.0,0.0,0.0,0.0,0.0,0.0,0.0,0.0,0.0,0.0,0.0,0.0,0.0,0.0,0.0,0.0,0.0,0.0,0.0,0.0,0.0,0.0,0.0,0.0,0.0,0.0,0.0,0.0,0.0,0.0,0.0,0.0,0.0,0.0,0.0,0.0,0.0,0.0,0.0,0.0,-0.4826,0.0,0.0,0.0,0.0,0.0,0.0,0.0,0.0,0.0,0.0,0.0,0.0,0.0,0.0,0.0,0.0,0.0,0.0,0.0,0.0,0.0,0.0,0.0,-1.0929,-1.0458,-0.9718,-0.9106,-0.8804,0.0,0.0,0.0,0.0,0.0,0.0,-0.8804,-0.8103,-0.7396,-0.6804,-0.6156,-0.581,-0.57,-0.5997,-0.5886,-0.5315,-0.524,0.0,0.0,0.0,0.0,0.0,0.0,0.0,0.0,0.0,0.0,0.0,0.0,0.0,0.0,0.0,0.0,0.0,0.0,0.0,0.0,0.0,0.0,0.0,0.0,0.0,0.0,0.0,0.0,0.0,0.0,0.0,0.0,0.0,0.0,0.0,0.0,0.0,0.0,0.0,0.0,0.0,0.0,0.0,0.0,0.0,0.0,0.0,0.0,0.0,0.0,0.0,0.0,0.0,0.0,0.0,0.0,0.0,0.0,0.0,0.0,0.0,0.0,0.0,0.0,-0.7672,-0.7929,-0.795,-0.7984,-0.8103,-0.7611,-0.7486,-0.7526,0.0,0.0,0.0,0.0,0.0,0.0,0.0,0.0,0.0,0.0,0.0,0.0,0.0,0.0,0.0,0.0,0.0,0.0,0.0,0.0,-1.2393,-1.0998,-1.083,-1.032,-0.9054,-0.8857,-0.8804,-0.8804,0.0,0.0,0.0,0.0,0.0,-0.8804,-0.8103,-0.7664,-0.7557,-0.7472,-0.7881,-0.8727,-0.8988,-0.8685,-0.7812,-0.6367,-0.5928,-0.6268,0.0,0.0,0.0,0.0,0.0,0.0,0.0,0.0,0.0,0.0,0.0,0.0,0.0,0.0,0.0,0.0,0.0,0.0,0.0,0.0,0.0,0.0,0.0,0.0,0.0,0.0,0.0,0.0,0.0,0.0,0.0,0.0,0.0,0.0,0.0,0.0,0.0,0.0,0.0,0.0,0.0,-0.601,-0.603,0.0,0.0,0.0,0.0,0.0,0.0,0.0,0.0,0.0,0.0,0.0,0.0,0.0,0.0,-0.7448,-0.7726,-0.7882,-0.7923,-0.8085,-0.8248,-0.8391,-0.8633,-0.8779,-0.8784,-0.8587,0.0,-0.8109,-0.7389,0.0,0.0,0.0,0.0,0.0,0.0,0.0,0.0,0.0,0.0,0.0,0.0,0.0,0.0,0.0,0.0,0.0,0.0,0.0,0.0,0.0,-1.0389,-1.0143,-0.9099,-0.9659,-0.9753,-0.9098,-0.9512,0.0,0.0,0.0,-0.8804,-0.8804,-0.8487,-0.8379,-0.8421,-0.8601,-0.9044,-0.9666,-1.0089,-1.0188,-0.9995,-0.9346,-0.8048,-0.6458,-0.6179,0.0,0.0,0.0,0.0,0.0,0.0,0.0,0.0,0.0,0.0,0.0,0.0,0.0,0.0,0.0,0.0,0.0,0.0,0.0,0.0,0.0,0.0,0.0,0.0,0.0,0.0,0.0,0.0,0.0,0.0,0.0,0.0,0.0,0.0,0.0,0.0,0.0,0.0,0.0,-0.6281,-0.6471,-0.6302,-0.6546,-0.6668,0.0,0.0,0.0,0.0,0.0,0.0,0.0,0.0,0.0,-0.7326,-0.7597,-0.7821,-0.7977,-0.8269,-0.8499,-0.8669,-0.8913,-0.9103,-0.9239,-0.9456,-0.9566,-0.9564,-0.9585,-0.9327,-0.8961,-0.8137,-0.7491,-0.6913,0.0,0.0,0.0,0.0,0.0,-0.0,0.0,0.0,0.0,0.0,0.0,0.0,0.0,0.0,0.0,0.0,0.0,0.0,-1.0399,-1.0414,-1.0279,-0.9838,-1.0528,-1.0648,-0.9787,-1.006,-0.986,-0.9072,-0.8884,-0.8844,-0.8911,-0.9138,-0.948,-0.9826,-1.0278,-1.072,-1.1248,-1.1775,-1.2079,-1.2215,-1.2367,-1.084,-0.8005,-0.7379,-0.7031,-0.6812,0.0,0.0,0.0,0.0,0.0,0.0,0.0,0.0,0.0,0.0,0.0,0.0,0.0,0.0,0.0,0.0,0.0,0.0,0.0,0.0,0.0,0.0,0.0,0.0,0.0,0.0,0.0,0.0,0.0,0.0,0.0,0.0,0.0,0.0,0.0,0.0,0.0,-0.6478,-0.6715,-0.6451,-0.679,-0.6966,0.0,0.0,0.0,0.0,0.0,0.0,-0.7468,-0.774,-0.795,-0.8092,-0.8282,-0.8459,-0.8615,-0.8906,-0.9164,-0.9395,-0.9652,-0.9863,-0.9888,-0.9962,-1.0141,-1.0188,-1.0256,-1.0049,-0.9439,-0.7981,-0.7414,-0.7209,-0.5803,-0.4198,-0.2742,-0.2766,-0.2155,-0.142,0.0,0.0,0.0,0.0,0.0,0.0,0.0,0.0,0.0,0.0,0.0,-1.1492,-1.1573,-1.1264,-1.1124,-1.1303,-1.1116,-1.1089,-1.1303,-1.0,-0.9406,-0.9633,-0.9112,-0.8938,-0.915,-1.0047,-1.1035,-1.2111,-1.2749,-1.3639,-1.4754,-1.5338,-1.5236,-1.4642,-1.4915,-1.4016,-1.218,-1.0214,-0.9348,-0.9181,-0.7237,0.0,0.0,0.0,0.0,0.0,0.0,0.0,0.0,0.0,0.0,0.0,0.0,0.0,0.0,0.0,0.0,0.0,0.0,0.0,0.0,0.0,0.0,0.0,0.0,0.0,0.0,0.0,0.0,0.0,0.0,0.0,0.0,0.0,0.0,0.0,0.0,0.0,0.0,-0.6288,-0.6912,0.0,0.0,0.0,0.0,-0.7719,-0.7889,-0.8099,-0.8397,-0.8567,-0.8723,-0.8879,-0.9164,-0.9388,-0.9544,-0.9836,-0.9875,-0.9784,-1.0049,-1.0223,-1.0267,-1.0115,-1.0263,-1.0678,-1.0513,-1.0196,-0.9532,-0.635,-0.6169,-0.7502,-0.2299,-0.4386,-1.0128,-1.0211,-0.799,-0.5118,0.0,0.0,0.0,0.0,0.0,0.0,0.0,0.0,-1.2725,-1.2246,-1.236,-1.2251,-1.1688,-1.2157,-1.2463,-1.2284,-1.2532,-1.2492,-1.2024,-1.1329,-1.0808,-1.0541,-0.9967,-0.9873,-1.0354,-1.1049,-1.1891,-1.2893,-1.3854,-1.4643,-1.5257,-1.5845,-1.6223,-1.6369,-1.6665,-1.6673,-1.6086,-1.1934,-1.0114,-0.9731,-0.7606,-0.6614,0.0,0.0,0.0,0.0,0.0,0.0,0.0,0.0,0.0,0.0,0.0,0.0,0.0,0.0,0.0,0.0,0.0,0.0,0.0,0.0,0.0,0.0,0.0,0.0,0.0,0.0,0.0,0.0,0.0,0.0,0.0,0.0,0.0,0.0,0.0,0.0,0.0,-0.7516,-0.7868,0.0,-0.8079,-0.7997,-0.8072,-0.837,-0.8533,-0.875,-0.9042,-0.9388,-0.9646,-0.9795,-0.9992,-1.012,-1.0175,-1.0283,-1.0385,-1.0364,-1.0541,-1.0697,-1.0806,-1.0571,-1.0683,-1.0833,-0.9134,-0.9262,-1.0512,-0.772,-0.7745,-0.9271,-0.5075,-0.5058,-0.7517,-0.9813,-0.9882,-0.8861,0.0,0.0,0.0,0.0,0.0,0.0,0.0,-1.2891,-1.2725,-1.2246,-1.2745,-1.3081,-1.2883,-1.3766,-1.4541,-1.4741,-1.4351,-1.3901,-1.3369,-1.2107,-1.1156,-1.0862,-1.0568,-1.0688,-1.1276,-1.2064,-1.2906,-1.3801,-1.4776,-1.5404,-1.5712,-1.6393,-1.6981,-1.7475,-1.7862,-1.837,-1.8625,-1.4603,-1.2515,-1.1686,-0.915,-0.8004,-0.7778,0.0,0.0,0.0,0.0,0.0,0.0,0.0,0.0,0.0,0.0,0.0,0.0,0.0,0.0,0.0,0.0,0.0,0.0,0.0,0.0,0.0,0.0,0.0,0.0,0.0,0.0,0.0,0.0,0.0,0.0,0.0,0.0,0.0,0.0,0.0,-0.7841,-0.8289,-0.8601,-0.8825,-0.8927,-0.8852,-0.892,-0.9218,-0.9381,-0.9591,-0.9897,-1.0188,-1.0419,-1.0575,-1.067,-1.0717,-1.0717,-1.0717,-1.0751,-1.0672,-1.0799,-1.0907,-1.1248,-1.1056,-1.0361,-0.9245,-0.878,-0.9627,-1.1241,-0.9285,-0.9472,-1.0555,-0.8092,-0.7126,-0.7476,-0.9797,-1.0637,-1.0721,0.0,0.0,0.0,0.0,0.0,0.0,-1.2891,-1.2891,-1.2891,-1.2891,-1.3167,-1.3862,-1.5177,-1.6102,-1.7153,-1.8446,-1.6428,-1.5156,-1.5412,-1.2158,-1.0274,-1.0645,-1.0875,-1.1316,-1.1931,-1.308,-1.4108,-1.499,-1.5565,-1.5992,-1.6299,-1.7181,-1.7756,-1.8076,-1.8677,-1.9265,-1.9668,-1.8071,-1.6585,-1.5226,-1.1885,-1.0396,-0.994,0.0,0.0,0.0,0.0,0.0,0.0,0.0,0.0,0.0,0.0,0.0,0.0,0.0,0.0,0.0,0.0,0.0,0.0,0.0,0.0,0.0,0.0,0.0,0.0,0.0,0.0,0.0,0.0,0.0,0.0,0.0,0.0,0.0,-0.6973,-0.7733,-0.835,-0.852,-0.9055,-0.9422,-0.9435,-0.9693,-0.9985,-1.0283,-1.0439,-1.0649,-1.0941,-1.0962,-1.1029,-1.1165,-1.1172,-1.1172,-1.1172,-1.1165,-1.1104,-1.0717,-1.0833,-1.0989,-1.118,-1.1288,-0.94,-0.614,-0.9525,-1.1241,-1.1532,-1.105,-1.0982,-1.1002,-1.0736,-1.0637,-1.0751,-1.0751,-1.0738,-1.0717,0.0,0.0,0.0,0.0,0.0,0.0,-1.2891,-1.2891,-1.2891,-1.2891,-1.4324,-1.5392,-1.5429,-1.7037,-1.8026,-1.7894,-1.6299,-1.5185,-1.4829,-1.257,-1.1319,-1.1545,-1.1784,-1.2425,-1.3454,-1.4001,-1.471,-1.5591,-1.5965,-1.6299,-1.6607,-1.7275,-1.7756,-1.809,-1.8891,-1.9452,-1.9813,-1.9442,-1.922,-1.8544,-1.4537,-1.1952,-1.0439,0.0,0.0,0.0,0.0,0.0,0.0,0.0,0.0,0.0,0.0,0.0,0.0,0.0,0.0,0.0,0.0,0.0,0.0,0.0,0.0,0.0,0.0,0.0,0.0,0.0,0.0,0.0,0.0,0.0,0.0,0.0,0.0,-0.7902,-0.7902,-0.8397,-0.9015,-0.9707,-1.0025,-1.0317,-1.0643,-1.0649,-1.0717,-1.0907,-1.1056,-1.1131,-1.1104,-1.1314,-1.1402,-1.1335,-1.1328,-1.1328,-1.1328,-1.1219,-1.1199,-1.1274,-1.1158,-1.1226,-1.145,-1.1386,-1.0803,-1.007,-1.1034,-1.1475,-1.153,-1.1423,-1.1375,-1.126,-1.0913,-1.0732,-1.0731,-1.0731,-1.0724,-1.0717,0.0,0.0,0.0,0.0,0.0,0.0,-1.3246,-1.3065,-1.2891,-1.2891,-1.4802,-1.6061,-1.6002,-1.7805,-1.8793,-1.8382,-1.6741,-1.5275,-1.4339,-1.2417,-1.1525,-1.1908,-1.2505,-1.3307,-1.4255,-1.479,-1.5378,-1.6019,-1.6433,-1.6794,-1.7088,-1.7689,-1.813,-1.845,-1.9212,-1.9706,-2.0,-2.0294,-2.0414,-2.0199,-1.7744,-1.5536,-1.3416,-1.1541,-1.018,-0.9282,-0.8315,-0.8004,-0.8045,-0.7753,0.0,0.0,0.0,0.0,0.0,0.0,0.0,0.0,0.0,0.0,0.0,0.0,0.0,0.0,0.0,0.0,0.0,0.0,0.0,0.0,0.0,0.0,0.0,0.0,-0.8479,-0.894,-0.9252,-0.9415,-0.9768,-1.0473,-1.0744,-1.0968,-1.1233,-1.1294,-1.1355,-1.1436,-1.1586,-1.1633,-1.1545,-1.1708,-1.1762,-1.1674,-1.1674,-1.164,-1.1579,-1.1484,-1.1457,-1.1484,-1.1335,-1.1389,-1.1613,-1.1389,-1.1369,0.0,-1.1585,-1.1592,-1.1653,-1.1518,-1.1436,0.0,0.0,0.0,0.0,0.0,-1.0717,-1.0717,0.0,0.0,0.0,0.0,0.0,0.0,-1.3752,-1.3334,-1.2968,-1.292,-1.4648,-1.6074,-1.6465,-1.8008,-1.8984,-1.8926,-1.7184,-1.5346,-1.3773,-1.2028,-1.1329,-1.1997,-1.312,-1.4028,-1.4656,-1.5458,-1.6046,-1.6366,-1.6927,-1.7341,-1.7649,-1.825,-1.8677,-1.8945,-1.9573,-1.9987,-2.0254,-2.0588,-2.0722,-2.0722,-2.0722,-1.9619,-1.7439,-1.3854,-1.2461,-1.2194,-0.9839,-0.9026,-0.8899,-0.8248,0.0,0.0,0.0,0.0,0.0,0.0,0.0,0.0,0.0,0.0,0.0,0.0,0.0,0.0,0.0,0.0,0.0,0.0,0.0,0.0,0.0,0.0,0.0,0.0,-0.9449,-0.9998,-1.0744,-1.0622,-1.0602,-1.1002,-1.128,-1.145,-1.1463,-1.1701,-1.1857,-1.1857,-1.1999,-1.2081,-1.206,0.0,0.0,0.0,0.0,-1.1993,-1.1857,-1.1857,-1.1796,-1.1667,-1.1531,-1.1538,-1.1667,-1.1531,-1.1531,-1.1633,-1.1497,-1.1511,-1.1606,-1.147,-1.1314,-1.1158,-1.1124,-1.1043,-1.0928,-1.0778,-1.0717,0.0,0.0,0.0,0.0,0.0,0.0,0.0,-1.3862,-1.3695,-1.3457,-1.2968,-1.4141,-1.5059,-1.5156,-1.6406,-1.709,-1.6719,-1.6011,-1.4786,-1.3124,-1.192,-1.1824,-1.2906,-1.3854,-1.4736,-1.5551,-1.5979,-1.6446,-1.6981,-1.7328,-1.7662,-1.7969,-1.8557,-1.8865,-1.8958,-1.9786,-2.0174,-2.0267,-2.0802,-2.1029,-2.1029,-2.1029,-1.9683,-1.7505,-1.668,-1.5511,-1.4079,-1.1992,-1.1419,-1.1321,-0.9382,-0.8906,-0.8981,-0.8438,-0.8803,0.0,0.0,0.0,0.0,0.0,0.0,0.0,0.0,0.0,0.0,0.0,0.0,0.0,0.0,0.0,0.0,0.0,0.0,0.0,-0.9897,-1.0297,-1.0765,-1.1511,-1.1565,-1.1565,-1.1647,-1.1708,-1.1796,-1.1918,-1.1986,-1.202,-1.202,-1.2162,-1.2189,-1.2067,-1.2182,0.0,-1.2067,-1.206,-1.2047,-1.202,-1.202,-1.2006,-1.1972,0.0,0.0,-1.1972,-1.1945,-1.1877,-1.1789,-1.1755,-1.1694,-1.1619,-1.1586,-1.1409,-1.1138,-1.09,-1.0867,-1.0928,-1.0778,-1.0717,-1.0717,0.0,0.0,0.0,0.0,0.0,0.0,-1.4654,-1.419,-1.3768,-1.3789,-1.4184,-1.4671,-1.5351,-1.5615,-1.5704,-1.5592,-1.4363,-1.3662,-1.3839,-1.336,-1.3447,-1.4451,-1.5319,-1.591,-1.6032,-1.6339,-1.67,-1.7154,-1.7595,-1.7969,-1.8277,-1.8718,-1.9078,-1.9386,-1.9973,-2.0307,-2.0481,-2.0922,-2.1109,-2.1109,-2.1109,-2.0453,-1.9309,-1.8287,-1.7341,-1.6211,-1.4301,-1.3551,-1.3195,-1.1012,-1.0447,-1.0198,-0.8953,-0.8799,-0.9076,0.0,0.0,0.0,0.0,0.0,0.0,0.0,0.0,0.0,0.0,0.0,0.0,0.0,0.0,-0.8696,0.0,0.0,-1.0046,-1.0724,-1.1084,-1.1457,-1.1986,-1.206,-1.2033,-1.1952,-1.2013,-1.206,-1.206,-1.2196,-1.225,-1.2182,-1.2311,-1.2366,-1.2284,-1.2352,-1.2359,-1.2284,-1.2284,-1.2284,-1.2284,-1.221,-1.221,-1.2277,-1.2135,-1.206,-1.206,-1.1979,-1.1864,-1.1728,-1.1728,-1.1687,-1.1606,-1.1457,-1.1348,-1.1246,-1.0948,-1.0833,-1.0826,-1.0751,-1.0717,-1.0717,0.0,0.0,0.0,0.0,0.0,0.0,0.0,-1.4767,-1.4283,-1.4652,-1.4419,-1.4625,-1.5637,-1.506,-1.4673,-1.4779,-1.3036,-1.2788,-1.4852,-1.4932,-1.5308,-1.6139,-1.7079,-1.7394,-1.6731,-1.6977,-1.7076,-1.7235,-1.7836,-1.825,-1.8504,-1.8851,-1.9265,-1.9733,-2.0013,-2.0281,-2.0535,-2.0882,-2.1029,-2.1029,-2.1082,-2.1109,-2.0969,-1.9484,-1.8855,-1.8411,-1.6414,-1.5387,-1.4713,-1.2809,-1.1986,-1.1552,-1.021,-0.9563,-0.9518,-0.9739,-0.9135,0.0,0.0,0.0,0.0,0.0,0.0,0.0,0.0,-0.8085,-0.8343,-0.8499,-0.8933,-0.9429,-0.991,-1.0385,-1.0887,-1.1436,-1.1742,-1.2013,-1.2291,-1.2332,-1.2284,-1.2162,-1.2257,-1.2284,-1.2155,-1.2366,-1.2454,-1.2338,-1.2433,-1.2501,-1.2501,-1.2501,-1.2515,-1.2549,-1.2515,-1.2528,-1.2589,-1.242,-1.2406,-1.2542,-1.2277,-1.2149,-1.2142,-1.1993,-1.1843,-1.1701,-1.1647,-1.1619,-1.1599,-1.1355,-1.1307,-1.1369,-1.1124,-1.0941,-1.0806,-1.0806,-1.0806,-1.0806,0.0,0.0,0.0,0.0,0.0,0.0,0.0,0.0,-1.5219,-1.4744,-1.4649,-1.4669,-1.4831,-1.4312,-1.3875,-1.3688,-1.2913,-1.3221,-1.5123,-1.5548,-1.632,-1.7664,-1.8676,-1.8941,-1.8302,-1.8247,-1.8067,-1.7542,-1.8143,-1.8464,-1.8504,-1.9052,-1.9359,-1.9426,-1.972,-1.9867,-1.9933,-2.0494,-2.0722,-2.0748,-2.1002,-2.1109,-2.1082,-2.0565,-2.0605,-2.0433,-1.8021,-1.6819,-1.6,-1.4116,-1.3321,-1.3174,-1.3321,-1.3197,-1.2666,-1.1191,-1.0311,-0.9681,-0.9528,-0.9209,-0.8742,-0.8006,-0.7801,-0.7984,0.0,-0.9022,-0.9273,-0.9429,-1.0025,-1.0541,-1.0609,-1.1097,-1.1599,-1.1932,-1.2128,-1.2298,-1.2454,-1.2481,-1.2474,-1.2454,-1.2467,-1.2474,-1.2454,-1.2481,-1.2494,-1.2481,-1.2494,-1.2501,-1.2501,-1.2501,-1.2562,-1.2698,-1.2569,-1.263,-1.2908,-1.2623,-1.2556,-1.2705,-1.2535,-1.2454,-1.2447,-1.2305,-1.2155,-1.1999,-1.1735,-1.1619,-1.1613,-1.1586,-1.1497,-1.1389,-1.1355,-1.1246,-1.1111,-1.1111,-1.1111,-1.1111,0.0,0.0,0.0,0.0,0.0,0.0,0.0,0.0,-1.5644,-1.5732,-1.5152,-1.4835,-1.5197,-1.4376,-1.3614,-1.3175,-1.2895,-1.3616,-1.5619,-1.6566,-1.7566,-1.8724,-1.9974,-2.0188,-1.9303,-1.8746,-1.8496,-1.8451,-1.8251,-1.8317,-1.8504,-1.8918,-1.9292,-1.9626,-1.9746,-1.9893,-2.008,-2.0494,-2.0681,-2.0681,-2.0815,-2.0855,-2.0802,-2.0347,-2.0027,-1.9641,-1.8519,-1.7616,0.0,-1.495,-1.4266,-1.4116,-1.3467,-1.3018,-1.2601,-1.1894,-1.1416,-1.0895,-1.0032,-0.9257,-0.8656,-0.8378,-0.8594,-0.894,-0.9259,-0.9693,-1.0073,-1.0222,-1.0778,-1.1294,-1.147,-1.1782,-1.2074,0.0,-1.2372,-1.2433,-1.2494,-1.2433,-1.2345,-1.2257,-1.2244,-1.2311,-1.2488,-1.2501,-1.2501,-1.2501,-1.2501,-1.2542,-1.263,-1.2637,-1.2705,-1.2861,-1.28,-1.2874,-1.3085,-1.2874,-1.284,-1.2983,-1.2745,-1.2589,-1.2494,-1.2352,-1.2155,-1.1918,-1.1708,-1.1619,-1.1613,-1.1525,-1.145,-1.1389,-1.1389,-1.1355,-1.1287,-1.1199,-1.1165,-1.1165,0.0,0.0,0.0,0.0,0.0,0.0,0.0,0.0,0.0,0.0,-1.5756,-1.5242,-1.5309,-1.4422,-1.3552,-1.2968,-1.2988,-1.3809,-1.5586,-1.7051,-1.8318,-1.9292,-2.0716,-2.1034,-2.0231,-1.967,-1.9357,-1.9399,-1.9063,-1.907,-1.9311,-1.9708,-2.0132,-2.0571,-2.0192,-2.0241,-2.0356,-2.0389,-2.0441,-2.0441,-2.0521,-2.0454,-2.0254,-1.9666,-1.8971,-1.829,-1.817,-1.7635,-1.6724,-1.5318,-1.4772,-1.4572,-1.3751,-1.3292,-1.3004,-1.2699,-1.2033,-1.1114,-1.0271,-0.9351,-0.8547,-0.8825,-0.932,-0.9774,-0.9944,-1.0371,-1.0792,-1.0989,-1.1409,-1.1796,-1.1965,-1.2121,-1.2264,-1.2366,-1.2413,-1.244,-1.244,-1.2318,-1.2169,-1.202,-1.1965,-1.2026,-1.2237,-1.2372,-1.244,-1.244,-1.2522,-1.261,-1.2725,-1.2773,-1.2861,-1.3017,-1.2983,-1.3051,-1.3234,-1.3051,-1.301,-1.3112,-1.2854,-1.2651,-1.2494,-1.2311,-1.206,-1.1769,-1.166,-1.1619,-1.1613,-1.1497,-1.1457,-1.1457,-1.1457,-1.1457,-1.1443,-1.1328,-1.1287,-1.1287,0.0,0.0,0.0,0.0,0.0,0.0,0.0,0.0,0.0,0.0,0.0,0.0,-1.4835,-1.419,-1.3552,-1.2968,-1.3262,-1.3867,-1.4766,-1.6445,-1.7988,-1.9224,-2.0996,-2.1608,-2.1123,-2.1461,-2.1292,-2.0393,-2.1013,-2.1371,-2.1404,-2.2103,-2.2355,-2.2387,-2.1304,-2.0914,-2.0847,-2.0144,-1.9826,-1.9853,-2.0134,-1.9907,-1.9345,-1.8758,-1.7796,-1.6807,-1.7088,-1.6446,-1.5418,-1.5124,-1.4741,-1.4608,-1.5179,-1.5352,-1.5113,-1.4112,-1.198,-0.987,-0.9853,-0.9165,-0.8621,-0.9211,-0.97,-1.0188,-1.0772,-1.1145,-1.1443,-1.1735,-1.1932,-1.2006,-1.1864,-1.1965,-1.2074,-1.2074,-1.2203,-1.2298,-1.2298,-1.2169,-1.2013,-1.1857,-1.1714,-1.164,0.0,-1.204,-1.2298,-1.2298,-1.2562,-1.2725,-1.2732,-1.2874,-1.3017,-1.3159,-1.303,-1.3098,-1.339,-1.3105,-1.2963,-1.2969,-1.2807,-1.2651,-1.2488,-1.2203,-1.1904,-1.1626,-1.1619,-1.1619,-1.1619,-1.1613,-1.1613,-1.1613,-1.1613,-1.1613,-1.1613,-1.1606,-1.1606,-1.1606,0.0,0.0,0.0,0.0,0.0,0.0,0.0,0.0,0.0,0.0,0.0,0.0,0.0,0.0,0.0,0.0,-1.3008,-1.3457,-1.4297,-1.5703,-1.6953,-1.7988,-1.9668,-2.0603,-2.0737,-2.0571,-2.0589,-2.0859,-2.0529,-2.0525,-2.0997,-2.1241,-2.1485,-2.1729,-2.1576,-2.1522,-2.1553,-2.1819,-2.1571,-2.0946,-2.1406,-2.0496,-1.8762,-1.8386,-1.6953,-1.519,0.0,-1.4402,-1.4215,-1.4122,-1.3895,-1.3748,-1.4335,-1.4389,-1.4236,-1.4269,-1.2781,-1.1241,-1.1587,-1.0546,-0.9469,-0.9876,-1.0385,-1.0867,-1.1172,-1.147,-1.1687,-1.1687,-1.1735,-1.1721,-1.1565,-1.1579,-1.1653,-1.1755,-1.1979,-1.2142,-1.2142,-1.2094,-1.1932,-1.1579,-1.1497,0.0,0.0,0.0,0.0,-1.2128,-1.2413,-1.2664,-1.2874,-1.3024,-1.3173,-1.3322,-1.3275,-1.3302,-1.3397,-1.3302,-1.32,-1.3098,-1.2847,-1.2651,-1.2488,-1.2196,-1.2006,-1.1904,-1.1708,-1.1619,-1.1619,-1.1619,-1.1619,-1.1619,-1.1619,-1.1619,-1.1619,-1.1619,-1.1619,-1.1619,0.0,0.0,0.0,0.0,0.0,0.0,0.0,0.0,0.0,0.0,0.0,0.0,0.0,0.0,0.0,0.0,0.0,-1.3105,-1.3652,-1.4746,-1.5703,-1.6426,-1.8133,-1.9179,-1.9414,-1.9601,-1.9882,-2.0237,-1.9936,-2.0058,-2.0772,-2.0911,-2.1188,-2.1492,-2.1506,-2.1611,-2.1795,-2.1865,-2.1439,-2.0636,-2.0901,-1.9689,-1.7768,-1.7472,-1.6196,0.0,-1.3502,-1.3161,-1.3099,-1.301,-1.2893,-1.2839,-1.3427,-1.3774,-1.3886,-1.3811,-1.3025,-1.2128,-1.2154,-1.1113,-1.0086,-1.0493,-1.0962,-1.1362,-1.1511,-1.1653,-1.1714,-1.1565,-1.1409,-1.1233,-1.1029,-1.0907,-1.0934,-1.1246,-1.1457,-1.166,-1.187,-1.1857,-1.1714,-1.1423,-1.1389,-1.1294,0.0,0.0,0.0,-1.1965,-1.2305,-1.2637,-1.2942,-1.3098,-1.3241,-1.3397,-1.3403,-1.3403,-1.3403,-1.3403,-1.3302,-1.3091,-1.2793,-1.2569,-1.242,-1.2176,-1.2033,-1.1972,-1.1775,-1.1667,-1.1626,-1.1735,-1.1742,-1.1701,-1.1755,-1.1775,-1.1769,-1.1714,-1.1694,-1.1687,0.0,0.0,0.0,0.0,0.0,0.0,0.0,0.0,0.0,0.0,0.0,0.0,0.0,0.0,0.0,0.0,0.0,0.0,-1.2852,-1.3684,-1.4331,-1.4743,-1.6555,-1.747,-1.7396,-1.8765,-1.9211,-1.8574,-1.9375,-2.0,-2.0449,-2.0879,-2.1309,-2.1675,-2.1021,-2.1069,-2.1405,-2.0429,-1.9733,-1.9239,-1.8872,-1.7826,-1.644,-1.6142,-1.5519,-1.4577,-1.3404,-1.2593,-1.2072,-1.1929,-1.1904,-1.2037,-1.2612,-1.3519,-1.4151,-1.2916,-1.2457,-1.2173,-1.1496,-1.0826,-1.046,-1.1029,-1.1396,-1.1653,-1.1782,-1.1694,-1.1538,-1.1369,-1.0975,-1.0575,-1.0276,-0.9998,-1.0005,-1.0588,-1.0717,-1.0948,-1.1525,-1.1504,-1.1416,0.0,0.0,0.0,0.0,0.0,0.0,-1.1857,0.0,-1.2637,-1.2956,-1.3105,-1.3254,-1.3397,-1.3403,-1.3403,-1.3403,-1.3383,-1.3234,-1.2956,-1.2651,-1.2433,-1.2298,-1.2142,-1.1993,-1.1857,-1.1843,-1.1769,-1.1667,-1.1945,-1.1972,-1.1843,-1.1993,-1.2047,-1.202,-1.187,-1.1823,-1.1803,0.0,0.0,0.0,0.0,0.0,0.0,0.0,0.0,0.0,0.0,0.0,0.0,0.0,0.0,0.0,0.0,0.0,0.0,-1.2402,-1.4028,-1.4821,-1.4491,-1.5999,-1.7011,-1.7333,-1.7991,-1.8343,-1.8385,-1.8609,-1.8682,-1.8672,-1.8769,-1.9062,-1.9399,-1.9295,-1.964,-2.0343,-2.0018,-1.9614,-1.9144,-1.9471,-1.8214,-1.619,-1.5765,-1.4577,-1.3127,-1.1924,-1.1297,-1.1104,-1.1736,-1.2318,-1.2777,-1.2055,-1.2504,-1.3088,-1.2345,-1.1838,-1.1541,-1.1849,-1.1531,-1.1002,-1.1267,-1.1477,-1.1599,-1.1525,-1.1301,-1.1016,-1.0643,-1.0209,-0.9802,-0.9496,-0.9564,-0.9788,-1.0161,-1.069,0.0,-1.1409,-1.1701,0.0,-1.1586,0.0,-1.1701,-1.1667,-1.1837,0.0,0.0,-1.2433,-1.2684,-1.3098,-1.3261,-1.3363,-1.3397,-1.3403,-1.3403,-1.3403,-1.318,-1.3037,-1.2956,-1.2651,-1.2481,-1.244,-1.2298,-1.221,-1.2169,-1.2054,-1.1979,-1.1959,-1.2033,-1.1972,-1.1837,-1.187,-1.1823,-1.1728,-1.1687,-1.1674,-1.1667,0.0,0.0,0.0,0.0,0.0,0.0,0.0,0.0,0.0,0.0,0.0,0.0,0.0,0.0,0.0,0.0,0.0,0.0,0.0,-1.4019,-1.4644,-1.4531,-1.5568,-1.6142,-1.6129,-1.6849,-1.6983,-1.6618,-1.6767,-1.6819,-1.6602,-1.6602,-1.6816,-1.7246,-1.7637,-1.8164,-1.8809,-1.9004,-1.8613,0.0,0.0,-1.683,-1.4798,-1.4675,-1.3799,-1.2569,-1.1696,-1.1255,-1.1317,-1.2069,-1.2933,-1.3715,-1.3449,-1.36,-1.3624,-1.3106,-1.2259,-1.1582,-1.1774,-1.1539,-1.1382,-1.147,-1.1558,-1.1525,-1.1179,-1.0867,-1.0473,-0.9822,-0.9435,-0.9103,-0.873,-0.8913,-0.9252,0.0,0.0,0.0,-1.1226,-1.1565,-1.1755,0.0,-1.1959,0.0,-1.204,-1.223,-1.2454,0.0,-1.2644,-1.2773,-1.3152,-1.3254,-1.3329,-1.3397,-1.3403,-1.3403,-1.3403,-1.3112,-1.2963,-1.2956,-1.2651,-1.2501,-1.2494,-1.2352,-1.2291,-1.2284,0.0,-1.2121,-1.2074,-1.2203,-1.2128,-1.1945,-1.2074,-1.1999,-1.1816,-1.1816,-1.1769,-1.1701,0.0,0.0,0.0,0.0,0.0,0.0,0.0,0.0,0.0,0.0,0.0,0.0,0.0,0.0,0.0,0.0,0.0,0.0,0.0,0.0,-1.4292,-1.4586,-1.5241,-1.5332,-1.4698,-1.5614,-1.5491,-1.4307,-1.4746,-1.4797,-1.4531,-1.4531,-1.4766,-1.5195,-1.5898,-1.6484,-1.6973,-1.7285,-1.6947,-1.6162,-1.5836,-1.4658,-1.3132,0.0,-1.2986,-1.2471,-1.1844,-1.1737,-1.1917,-1.2585,-1.3641,-1.4754,-1.5442,-1.5466,-1.5108,-1.432,-1.3286,-1.2226,-1.141,-1.1389,-1.1619,-1.1619,-1.1592,-1.1409,-1.0826,-1.0419,-0.9917,-0.9279,-0.8939,-0.8675,-0.8279,-0.8452,-0.8869,-0.9279,0.0,-1.0154,-1.1016,-1.1314,-1.1545,-1.1803,-1.223,-1.2467,-1.2386,-1.261,-1.2834,-1.301,-1.2895,-1.2929,-1.3186,-1.32,-1.3261,-1.3397,-1.3403,-1.3403,-1.3403,-1.3125,-1.299,-1.2983,-1.2678,-1.2528,-1.2528,-1.2386,-1.2325,-1.2325,0.0,0.0,-1.2155,-1.2386,-1.2318,-1.2094,-1.2352,-1.2264,-1.2006,-1.2047,-1.1965,-1.1816,0.0,0.0,0.0,0.0,0.0,0.0,0.0,0.0,0.0,0.0,-1.251,-1.186,0.0,0.0,0.0,0.0,0.0,0.0,0.0,0.0,0.0,-1.4093,-1.5054,-1.5332,-1.4698,-1.4879,-1.4647,-1.3894,-1.3978,-1.3744,-1.3203,-1.3203,-1.3437,-1.3828,-1.3633,-1.3984,-1.4687,-1.4414,-1.4067,-1.3718,-1.3645,-1.3387,-1.3022,-1.2084,0.0,0.0,-1.1181,-1.1087,-1.1677,-1.2759,-1.4229,-1.5563,-1.5206,-1.5755,-1.5954,-1.3723,-1.3063,-1.28,-1.161,-1.1389,-1.1619,-1.1619,-1.143,-1.1118,-1.0643,-1.0019,-0.9578,-0.9869,-0.9657,-0.9307,-0.9212,-0.9474,-0.9677,-0.9488,-0.9734,-1.0243,-1.0894,-1.143,-1.1775,0.0,-1.223,-1.2589,-1.282,-1.2888,0.0,0.0,0.0,0.0,-1.3356,-1.3363,-1.337,-1.3403,-1.3403,-1.3403,-1.3403,-1.3227,-1.3139,-1.3132,-1.2834,-1.2691,-1.2684,-1.2562,-1.2508,-1.2508,0.0,0.0,-1.2501,-1.2433,-1.2436,-1.2258,-1.2306,-1.1979,-1.1728,-1.1972,-1.1965,-1.1843,0.0,0.0,0.0,0.0,0.0,0.0,0.0,-1.342,-1.3435,-1.2754,-1.258,-1.224,-1.1436,-1.0935,-1.0867,0.0,0.0,0.0,0.0,0.0,0.0,-1.439,-1.4644,-1.4786,-1.4698,-1.4698,-1.4376,-1.3815,0.0,-1.3505,-1.2891,-1.2891,-1.2988,-1.3184,-1.2833,-1.2908,-1.3265,-1.2912,-1.2574,-1.2288,-1.2288,-1.1899,-1.1354,-1.1122,0.0,0.0,-1.0815,-1.0929,-1.1583,-1.2625,-1.4135,-1.5737,-1.6329,-1.6709,-1.677,-1.5909,-1.4475,-1.317,-1.2811,-1.2078,-1.1497,-1.1497,-1.1212,-1.0772,-1.0168,-0.9973,-0.9915,-0.9746,-1.0045,-1.038,-1.0362,-1.0175,-0.9935,-0.9915,-0.9681,-0.9734,-1.0493,-1.0907,-1.1307,-1.1775,-1.223,-1.2623,-1.2929,-1.303,0.0,0.0,0.0,0.0,-1.3403,-1.3403,-1.3403,-1.3403,-1.3403,-1.3403,-1.3403,-1.3247,-1.3173,-1.3173,-1.2969,-1.2675,-1.2759,-1.2554,-1.1372,-0.9236,-0.9251,0.0,-0.9246,-0.929,-0.966,-1.0358,-1.1598,-1.2067,-1.1877,-1.2101,-1.2081,-1.1965,0.0,0.0,0.0,0.0,0.0,0.0,0.0,-1.3705,-1.3763,-1.2781,-1.2971,-1.288,-1.1982,-1.1439,-1.1314,0.0,0.0,0.0,0.0,0.0,0.0,0.0,0.0,0.0,-1.4329,0.0,0.0,0.0,-1.36,0.0,0.0,0.0,0.0,0.0,-1.26,-1.2422,-1.213,-1.2057,-1.1684,0.0,0.0,-1.0609,0.0,0.0,0.0,0.0,0.0,-1.0889,-1.1463,-1.2278,-1.3614,-1.5204,-1.6767,-1.7436,-1.7553,-1.7801,-1.6084,-1.4041,-1.3899,-1.2998,-1.1797,-1.1489,-1.1002,-1.0487,-0.9774,-0.9973,-1.0149,-0.9793,-1.0553,-1.1361,-1.1415,-1.0801,-1.0288,-1.0294,-0.9593,-0.9239,-1.0107,-1.0439,-1.0887,-1.1687,-1.2182,0.0,-1.2929,-1.3064,0.0,0.0,0.0,0.0,-1.3403,-1.3403,-1.3403,-1.3403,-1.3403,-1.3403,-1.3403,-1.3288,-1.3214,-1.3186,-1.3071,-1.2442,-1.1488,-1.2146,-1.0785,-0.7521,-0.5792,0.0,0.0,-0.4943,-0.5526,-0.6896,-1.0779,-1.2237,-1.2101,-1.2291,-1.2257,-1.2121,0.0,0.0,0.0,0.0,0.0,0.0,0.0,-1.3699,-1.4051,-1.3886,-1.3488,-1.299,-1.2468,-1.1962,-1.1676,0.0,0.0,0.0,0.0,0.0,0.0,0.0,0.0,0.0,0.0,0.0,0.0,0.0,0.0,0.0,0.0,0.0,0.0,0.0,0.0,0.0,-1.0964,-1.1554,0.0,0.0,0.0,0.0,0.0,0.0,0.0,0.0,0.0,-1.0768,-1.1129,-1.1744,-1.2599,-1.3574,-1.4536,-1.6653,-1.8428,-1.6982,-1.6948,-1.6881,-1.421,-1.3626,-1.3292,-1.1628,-1.0846,-1.0351,-0.9747,-0.9801,-1.0254,-1.0762,-1.1572,-1.229,-1.2422,-1.1626,-1.0782,-1.0339,-0.9485,-0.9205,-0.9964,-1.0555,-1.109,-1.1579,0.0,0.0,-1.2922,0.0,0.0,0.0,0.0,0.0,0.0,-1.3403,-1.3403,-1.3403,-1.3403,-1.3403,-1.3403,-1.3417,-1.3356,-1.3384,-1.3436,-1.1154,-0.7318,-1.0931,-1.2331,-1.1516,0.0,0.0,0.0,-0.062,-0.0616,-0.1537,-0.9428,-1.2305,-1.2176,-1.2313,-1.2306,-1.2166,0.0,0.0,0.0,0.0,0.0,0.0,-1.3132,-1.3667,-1.3938,-1.3437,-1.353,-1.3191,-1.213,-1.2315,-1.2298,-1.183,0.0,0.0,0.0,0.0,0.0,0.0,0.0,0.0,0.0,0.0,0.0,0.0,0.0,0.0,0.0,0.0,0.0,0.0,0.0,0.0,0.0,-1.0064,0.0,0.0,0.0,0.0,0.0,0.0,0.0,0.0,0.0,0.0,-1.0795,-1.1209,-1.181,-1.2438,-1.2599,-1.4202,-1.6188,-1.6825,-1.6972,-1.6782,-1.6308,-1.5081,-1.3667,-1.2822,-1.1403,-1.0191,-1.0398,-1.064,-1.1048,-1.1818,-1.2766,-1.3468,-1.366,-1.2182,-1.0905,-1.1025,-0.939,-0.8391,-0.9137,-0.9605,-1.0202,-1.1111,-1.1613,0.0,0.0,0.0,0.0,0.0,0.0,0.0,0.0,-1.3349,-1.3403,-1.3403,-1.3403,-1.3403,-1.3403,-1.3322,-1.3268,-1.3391,-1.0611,-0.9853,-1.0566,-0.6684,-0.4902,-0.4711,0.0,0.0,0.0,-0.0,-0.0,-0.0311,-0.3704,-0.6477,-0.8664,-0.8745,-0.9211,-1.0098,0.0,0.0,0.0,0.0,0.0,-1.3183,-1.3131,-1.368,-1.3902,-1.339,-1.3693,-1.3485,-1.2316,-1.2674,-1.2698,-1.1889,-1.2544,0.0,0.0,0.0,0.0,0.0,0.0,0.0,0.0,0.0,-1.2891,-1.2891,-1.2891,0.0,0.0,0.0,0.0,0.0,0.0,0.0,0.0,0.0,0.0,0.0,0.0,0.0,0.0,0.0,0.0,0.0,0.0,0.0,0.0,0.0,0.0,-1.1463,-1.1343,-1.2278,-1.3854,-1.6032,-1.6685,-1.6822,-1.7392,-1.6295,-1.4796,-1.3601,-1.1996,-1.0485,-1.0341,-1.0784,-1.1485,-1.1936,-1.3139,-1.4064,-1.3905,-1.2557,-1.1413,-1.1455,-0.9759,-0.8612,-0.9212,-0.9252,-0.9618,-1.0683,0.0,0.0,0.0,0.0,0.0,0.0,0.0,0.0,0.0,-1.3234,-1.3308,-1.3397,-1.3403,-1.3376,-1.3336,-1.3234,-1.3159,-1.3098,-0.744,-0.6414,-0.9238,-0.2862,-0.0,-0.0,0.0,0.0,0.0,-0.0,-0.0,-0.0,-0.0,-0.1865,-0.4383,-0.4383,-0.5783,-0.8119,0.0,0.0,0.0,0.0,0.0,0.0,-1.3198,-1.3709,-1.4097,-1.4097,-1.4041,-1.3848,-1.334,-1.3156,-1.2756,-1.1904,-1.2258,0.0,0.0,0.0,0.0,0.0,0.0,0.0,0.0,0.0,-1.2891,-1.2891,-1.2891,-1.251,-1.1814,0.0,0.0,0.0,0.0,0.0,0.0,0.0,0.0,0.0,0.0,0.0,-0.8871,0.0,0.0,0.0,0.0,0.0,0.0,0.0,0.0,0.0,0.0,-1.141,-1.2238,-1.4028,-1.5992,-1.7528,-1.6946,-1.7318,-1.713,-1.3943,-1.2488,-1.1446,-0.937,-1.0186,-1.1204,-1.086,-1.2533,-1.373,-1.2504,-1.2668,-1.2655,-1.1466,-1.0669,-1.0347,-1.0799,-0.9971,-0.9659,0.0,0.0,0.0,0.0,0.0,0.0,0.0,0.0,0.0,0.0,-1.3044,-1.3098,-1.339,-1.3403,-1.3329,-1.3173,-1.3207,-1.3078,-1.2628,-0.4137,-0.0158,-0.0156,-0.0,-0.0,0.0,0.0,0.0,0.0,-0.0,-0.0,-0.0,-0.0,-0.0,-0.0,-0.0,-0.2664,-0.6874,0.0,0.0,0.0,0.0,0.0,0.0,0.0,-1.3348,-1.3483,-1.3483,-1.3422,-1.3088,-1.2353,-1.2491,-1.2147,-1.0891,-1.1836,0.0,0.0,0.0,0.0,0.0,0.0,0.0,0.0,0.0,-1.2891,-1.2891,-1.2393,-1.203,-1.1765,-1.0864,-1.0218,0.0,0.0,0.0,0.0,0.0,0.0,0.0,0.0,-0.9005,-0.907,0.0,0.0,0.0,0.0,0.0,0.0,0.0,0.0,0.0,0.0,0.0,0.0,-1.2425,-1.4309,-1.6162,-1.6407,-1.626,-1.5806,-1.4717,-1.2562,-1.0774,-1.0647,-1.0202,-0.9985,-1.0514,-1.1186,-1.1563,-1.1209,-1.0639,-1.0173,-1.0032,-0.9204,-0.87,-0.918,-0.9391,0.0,-1.0405,0.0,0.0,0.0,0.0,0.0,0.0,0.0,0.0,0.0,-1.2983,-1.3051,-1.3241,-1.3247,-1.3173,-1.303,-1.3037,-1.2956,-1.2786,-0.9976,-0.5501,-0.0,-0.0,0.0,0.0,0.0,0.0,0.0,-0.0,-0.0,-0.0,-0.0,-0.0,-0.0628,-0.6445,-0.7533,-0.6878,0.0,0.0,0.0,0.0,0.0,0.0,0.0,-1.3198,-1.3198,-1.3198,-1.3154,-1.2865,-1.2136,-1.2293,-1.1948,-1.0679,-1.1394,0.0,0.0,0.0,0.0,0.0,0.0,0.0,-1.2461,-1.2734,-1.2802,-1.2657,-1.2104,-1.1586,-1.1217,-1.0229,-0.9666,-0.9406,-0.9015,0.0,0.0,0.0,0.0,0.0,-0.8925,-0.9072,-0.919,0.0,0.0,0.0,0.0,0.0,0.0,0.0,0.0,0.0,0.0,0.0,0.0,0.0,-1.2906,-1.4456,-1.5498,-1.5655,-1.5279,-1.4688,-1.2659,-1.0753,-1.0624,-0.9824,-0.9276,-0.9883,-1.0269,-1.0443,-1.0009,-0.9814,-0.966,-0.9537,-0.9005,-0.8773,-0.922,-0.9314,0.0,0.0,0.0,0.0,0.0,0.0,0.0,0.0,0.0,0.0,0.0,0.0,-1.2854,-1.3003,-1.3064,-1.3024,-1.2874,-1.2874,-1.2813,-1.2698,-1.263,-0.9713,-0.4507,-0.1402,0.0,0.0,0.0,0.0,0.0,-0.0,-0.0,-0.0307,-0.3542,-0.4637,-0.481,-0.8774,-0.9392,-0.8862,0.0,0.0,0.0,0.0,0.0,0.0,0.0,-1.3173,-1.3148,-1.3163,-1.3138,-1.2906,-1.2437,-1.2401,-1.2018,-1.1094,0.0,0.0,0.0,0.0,0.0,0.0,0.0,0.0,-1.2773,-1.2852,-1.2719,-1.2253,-1.193,-1.1285,-1.03,-0.9963,-0.9463,-0.8844,-0.8844,-0.8831,0.0,0.0,0.0,0.0,-0.9044,-0.9176,0.0,0.0,0.0,0.0,0.0,0.0,0.0,0.0,0.0,0.0,0.0,0.0,0.0,0.0,0.0,0.0,0.0,-1.5086,-1.5321,-1.4122,-1.2661,-1.1165,-0.9511,-0.9067,0.0,-0.8832,-0.9575,-1.0009,-0.899,-0.9925,-1.049,-0.9528,-0.9535,-0.9912,-1.0526,-0.9802,0.0,0.0,0.0,0.0,0.0,0.0,0.0,0.0,0.0,0.0,0.0,0.0,-1.2569,-1.2725,-1.2861,-1.2861,-1.2718,-1.2725,-1.2671,-1.2549,-1.2265,-1.2044,-1.1434,-0.416,0.0,0.0,0.0,0.0,0.0,-0.0,-0.0,-0.0758,-0.9223,-1.2166,-1.1308,-0.7911,-0.9002,-1.2186,0.0,0.0,0.0,0.0,0.0,0.0,0.0,0.0,0.0,0.0,-1.2313,-1.1884,-1.1424,-1.1356,-1.1282,0.0,0.0,0.0,0.0,0.0,0.0,0.0,0.0,0.0,-1.192,-1.2539,-1.2567,-1.1908,-1.161,-1.1011,-1.0314,-0.9897,-0.952,-0.9084,-0.9084,-0.9018,0.0,0.0,0.0,0.0,-0.8884,-0.9178,0.0,0.0,0.0,0.0,-1.0194,-1.0314,0.0,0.0,0.0,0.0,0.0,0.0,0.0,0.0,-0.9823,-0.9608,-1.0284,0.0,-1.3758,-1.3407,-1.1859,-1.0278,0.0,-0.8603,-0.7396,-0.7474,-0.7753,-0.7878,-0.7743,-0.8065,-0.8313,-0.8348,-0.8556,-0.8794,-0.9083,0.0,0.0,0.0,0.0,0.0,0.0,0.0,0.0,0.0,0.0,0.0,0.0,0.0,-1.2569,-1.2725,-1.2651,-1.2589,-1.2556,-1.2671,-1.2657,-1.2515,-1.0319,-0.8702,-0.7689,-0.8491,0.0,0.0,0.0,0.0,-0.0,-0.0,-0.0,-0.0747,-0.8716,-1.2045,-1.2206,-1.1018,-1.1403,-1.2481,0.0,0.0,0.0,0.0,0.0,0.0,0.0,0.0,0.0,0.0,0.0,-1.1543,-1.1052,-1.1019,0.0,0.0,0.0,0.0,0.0,0.0,0.0,0.0,0.0,-1.1445,-1.1855,-1.2044,-1.1938,-1.1575,-1.1064,-1.0553,-0.9995,-0.9629,-0.9392,-0.9176,-0.9044,-0.8951,0.0,0.0,0.0,-0.8804,-0.8804,0.0,0.0,0.0,0.0,0.0,-1.0381,-1.0421,0.0,-1.0715,-1.0497,-1.0238,0.0,0.0,0.0,0.0,-0.9226,-0.8695,-0.9102,-1.0297,-1.1473,-1.1473,-1.0279,-0.9192,-0.9312,-0.8106,-0.6966,-0.7109,-0.7143,-0.719,-0.7346,-0.7373,-0.7516,-0.797,-0.8167,-0.852,0.0,0.0,0.0,0.0,0.0,0.0,0.0,0.0,0.0,0.0,0.0,0.0,0.0,0.0,-1.2542,-1.2623,-1.2549,-1.2467,-1.2406,-1.2488,-1.2467,-1.2498,-1.0932,-0.9796,-0.9101,-0.7125,0.0,0.0,0.0,0.0,-0.0,-0.0,-0.2064,-0.5609,-0.8012,-1.0173,-1.2088,-1.2012,-1.225,-1.2332,0.0,0.0,0.0,0.0,0.0,0.0,0.0,0.0,0.0,0.0,0.0,0.0,0.0,0.0,0.0,0.0,0.0,0.0,0.0,0.0,0.0,0.0,-1.0977,-1.1387,-1.2161,-1.1593,-1.1259,-1.1223,-1.0701,-1.0221,-0.9753,-0.9633,-0.9442,-0.9309,-0.9018,-0.8844,0.0,0.0,-0.8804,-0.8804,-0.8804,0.0,0.0,0.0,0.0,0.0,0.0,0.0,0.0,-1.0848,-1.0324,-0.9796,-1.0522,0.0,0.0,0.0,0.0,0.0,-0.8731,-0.8961,-0.9142,-0.9428,-0.8782,-0.8172,-0.8354,-0.7565,-0.6939,-0.7109,-0.7156,-0.7224,-0.738,-0.7441,-0.7611,-0.8038,-0.8316,0.0,0.0,0.0,0.0,0.0,0.0,0.0,0.0,0.0,0.0,0.0,0.0,0.0,0.0,0.0,0.0,-1.2467,-1.2467,-1.2386,-1.2223,-1.2264,-1.2395,-1.2442,-1.2271,-1.221,-1.2113,-0.4445,-0.427,0.0,0.0,0.0,-0.0146,-0.1313,-0.5693,-1.1299,-0.7952,-0.8664,-1.1735,-1.2088,-1.2169,-1.2135,0.0,0.0,0.0,0.0,0.0,0.0,0.0,0.0,0.0,0.0,0.0,0.0,0.0,0.0,0.0,0.0,0.0,0.0,0.0,0.0,0.0,-1.0898,-1.127,-1.1699,-1.218,-1.187,-1.1431,-1.0896,-1.0943,-1.0635,-1.006,-1.0768,-1.0688,-0.9953,-0.9362,-0.9031,-0.8804,-0.8804,-0.8804,-0.8804,-0.8804,0.0,0.0,0.0,0.0,0.0,0.0,0.0,0.0,-1.0672,-1.011,-0.9391,-0.9532,0.0,0.0,0.0,0.0,0.0,-0.663,-0.7031,-0.759,-0.9019,-0.8659,-0.8062,-0.8164,-0.7477,-0.681,-0.7082,-0.7244,-0.738,-0.7536,-0.7767,-0.8045,0.0,0.0,0.0,0.0,0.0,0.0,0.0,0.0,0.0,0.0,0.0,0.0,0.0,0.0,0.0,0.0,0.0,0.0,-1.2325,-1.2325,-1.2189,-1.1904,-1.2162,-1.2216,-1.223,-1.2074,-1.2013,-1.1898,-0.7404,-0.3967,0.0,0.0,-0.0,-0.0438,-0.716,-1.0553,-1.159,-1.0964,-1.116,-1.185,-1.1891,-1.2054,-1.2277,0.0,0.0,0.0,0.0,0.0,0.0,0.0,0.0,0.0,0.0,0.0,0.0,0.0,0.0,0.0,0.0,0.0,0.0,0.0,0.0,-1.1217,-1.1632,-1.1618,-1.1777,-1.218,-1.1536,-1.1217,-1.1301,-1.0975,-1.0733,-1.0595,-1.0675,-1.0327,-0.9619,-0.9192,-0.8938,-0.8804,-0.8804,-0.8804,-0.8804,0.0,0.0,0.0,0.0,0.0,0.0,0.0,0.0,0.0,0.0,-0.975,-0.939,-0.8787,0.0,0.0,0.0,0.0,0.0,-0.6179,-0.6464,-0.6894,-0.7717,-0.7793,-0.7632,-0.7617,-0.7346,-0.7122,-0.7346,-0.7448,-0.7543,-0.7685,0.0,-0.8506,-0.9211,0.0,0.0,0.0,0.0,0.0,0.0,0.0,0.0,0.0,0.0,0.0,0.0,0.0,0.0,0.0,0.0,0.0,0.0,-1.2169,-1.206,-1.183,-1.1972,-1.1972,-1.1843,-1.183,-1.1809,-1.1643,-1.0,-0.7019,-0.3194,0.0,-0.5101,-0.3346,-0.6994,-0.9635,-1.1543,-1.1667,-1.1687,-1.1748,-1.1809,-1.2026,-1.2298,0.0,0.0,0.0,0.0,0.0,0.0,0.0,0.0,0.0,0.0,0.0,0.0,0.0,0.0,0.0,0.0,0.0,0.0,0.0,-1.0943,-1.1298,-1.1943,-1.1701,-1.1816,-1.2363,-1.1314,-1.1048,-1.1679,-1.0981,-1.0742,-1.1089,-1.0488,-0.994,-0.9376,-0.9072,-0.8871,-0.8804,-0.8804,-0.8844,-0.8911,0.0,0.0,0.0,0.0,0.0,0.0,0.0,0.0,0.0,0.0,0.0,0.0,0.0,0.0,0.0,-0.6816,-0.6323,-0.5922,-0.6227,-0.6417,-0.6546,-0.6627,-0.6932,-0.7217,-0.7244,-0.7339,-0.7489,-0.7712,-0.778,-0.7841,-0.795,-0.8364,0.0,0.0,0.0,0.0,0.0,0.0,0.0,0.0,0.0,0.0,0.0,0.0,0.0,0.0,0.0,0.0,0.0,0.0,0.0,0.0,-1.2006,-1.1932,-1.1782,-1.1782,-1.1735,-1.1647,-1.1626,-1.164,-1.1543,-1.1549,-0.9618,-0.6387,-1.0082,-0.9937,-0.7127,-0.7119,-0.8868,-1.1653,-1.1647,-1.1653,-1.1681,-1.1789,-1.2026,-1.2291,0.0,0.0,0.0,0.0,0.0,0.0,0.0,0.0,0.0,0.0,0.0,0.0,0.0,0.0,0.0,0.0,0.0,0.0,0.0,-1.0753,-1.0997,-1.102,-1.139,-1.1998,-1.2812,-1.1816,-1.1399,-1.1679,-1.0981,-1.0848,-1.1383,-1.0795,-1.0354,-1.0033,-0.9402,-0.9058,-0.8804,-0.8804,-0.8965,-0.915,-0.915,0.0,0.0,0.0,0.0,0.0,0.0,0.0,0.0,0.0,0.0,0.0,0.0,0.0,-0.5755,-0.583,-0.5901,-0.6078,-0.6376,-0.6566,-0.6654,-0.6519,-0.662,-0.6892,-0.7441,-0.7577,-0.7706,-0.8133,-0.833,-0.8425,-0.8431,-0.892,0.0,0.0,0.0,0.0,0.0,0.0,0.0,0.0,0.0,0.0,0.0,0.0,0.0,0.0,0.0,0.0,0.0,0.0,0.0,0.0,0.0,-1.1775,-1.1633,-1.1633,-1.1633,-1.1619,-1.1619,-1.1619,-1.1626,-1.1647,-1.0173,-0.7679,-1.036,-1.1411,-1.1115,-1.1227,-1.1358,-1.1653,-1.1626,-1.1701,-1.1816,-1.183,-1.2026,-1.2291,0.0,0.0,0.0,0.0,0.0,0.0,0.0,0.0,0.0,0.0,0.0,0.0,0.0,0.0,0.0,0.0,0.0,0.0,0.0,-1.0905,-1.1113,-1.1368,-1.1541,-1.1855,-1.2461,-1.187,-1.1647,-1.1962,-1.1219,-1.0755,-1.0608,-1.0207,-0.986,-0.9495,-0.9152,-0.8911,-0.8804,-0.8804,-0.8871,-0.8965,-0.8965,-0.9152,0.0,0.0,0.0,0.0,0.0,0.0,0.0,0.0,-0.7892,-0.7046,-0.6137,-0.573,-0.5616,-0.5759,-0.5908,-0.6078,-0.6281,-0.6519,-0.6709,-0.6749,-0.6939,-0.7204,-0.7522,-0.7882,-0.8221,-0.8486,-0.8811,-0.9069,-0.9164,0.0,0.0,0.0,0.0,0.0,0.0,0.0,0.0,0.0,0.0,0.0,0.0,0.0,0.0,0.0,0.0,0.0,0.0,0.0,0.0,0.0,0.0,-1.1674,-1.1619,-1.1525,-1.1525,-1.1619,-1.1619,-1.1619,-1.1619,-1.1647,-1.105,-1.0155,-1.1214,-1.1667,-1.1653,-1.164,-1.1633,-1.1633,-1.1619,-1.1653,-1.1701,-1.1701,-1.183,-1.2006,0.0,0.0,0.0,0.0,0.0,0.0,0.0,0.0,0.0,0.0,0.0,0.0,0.0,0.0,0.0,0.0,0.0,0.0,-1.0791,-1.0791,-1.0935,-1.1244,-1.1342,-1.1562,-1.2012,-1.178,-1.1842,-1.2299,-1.1443,-1.0649,-0.9967,-0.9686,-0.9432,-0.9176,-0.9031,-0.8938,-0.8951,-0.9045,-0.9138,-0.9205,-0.9125,-0.9312,0.0,0.0,0.0,0.0,0.0,0.0,0.0,0.0,-0.7632,-0.6981,-0.6079,-0.5933,-0.6018,-0.612,-0.605,-0.5983,-0.6084,-0.6302,-0.6539,-0.6736,-0.7014,-0.7346,-0.778,-0.8269,-0.871,-0.9001,-0.9273,-0.9483,-0.9591,0.0,0.0,0.0,0.0,0.0,0.0,0.0,0.0,0.0,0.0,0.0,0.0,0.0,0.0,0.0,0.0,0.0,0.0,0.0,0.0,0.0,0.0,-1.1477,-1.1477,-1.1369,-1.1375,-1.1491,-1.1491,-1.1538,-1.1633,-1.1647,-1.1647,-1.1633,-1.164,-1.1633,-1.1619,-1.1619,-1.1619,-1.1619,-1.1619,-1.1619,-1.1619,-1.1619,-1.1708,-1.183,0.0,0.0,0.0,0.0,0.0,0.0,0.0,0.0,0.0,0.0,0.0,0.0,0.0,0.0,0.0,0.0,0.0,0.0,-1.0273,-1.0273,-1.0273,-1.0273,-1.0684,-1.1113,-1.1587,-1.1608,-1.1954,-1.2694,-1.1631,-1.0592,-0.9673,-0.9379,-0.9176,-0.9176,-0.919,-0.919,-0.9203,-0.9552,-0.9846,-1.0087,-0.9793,-1.0033,-1.0551,0.0,0.0,0.0,0.0,0.0,0.0,0.0,-0.8021,-0.7827,-0.6981,-0.6789,-0.6873,-0.6873,-0.6379,-0.5806,-0.58,-0.5915,-0.6105,-0.6403,-0.6709,-0.721,-0.8248,-0.8716,-0.9103,-0.97,-0.9713,-0.9612,-0.9612,-0.9734,0.0,0.0,0.0,0.0,0.0,0.0,0.0,0.0,0.0,0.0,0.0,0.0,0.0,0.0,0.0,0.0,0.0,0.0,0.0,0.0,0.0,0.0,-1.1165,-1.1158,-1.1179,-1.1358,-1.1212,-1.1369,-1.1502,-1.1509,-1.1509,-1.1653,-1.1626,-1.1619,-1.1619,-1.1619,-1.1619,-1.1619,-1.1619,-1.1619,-1.1619,-1.1619,-1.1708,-1.183,0.0,0.0,0.0,0.0,0.0,0.0,0.0,0.0,0.0,0.0,0.0,0.0,0.0,0.0,0.0,0.0,0.0,0.0,-1.0273,-1.0273,-1.0273,-1.0273,-1.0684,-1.1113,-1.1587,-1.2214,-1.2001,-1.0997,-1.072,-1.0048,-0.9072,-0.8978,-0.8938,-0.8938,-0.9097,-0.919,-0.9203,-0.9552,-0.974,-0.9806,-0.9726,-0.9793,-0.994,0.0,0.0,0.0,0.0,0.0,0.0,0.0,0.0,0.0,-0.6785,-0.6407,-0.6135,-0.6026,-0.6057,-0.6105,-0.5989,-0.6227,-0.6546,-0.6742,-0.7258,-0.7875,-0.8499,-0.871,-0.9035,-0.9958,-1.0025,-0.9951,-1.0059,0.0,0.0,0.0,0.0,0.0,0.0,0.0,0.0,0.0,0.0,0.0,0.0,0.0,0.0,0.0,0.0,0.0,0.0,0.0,0.0,0.0,0.0,0.0,-1.1165,-1.1063,-1.1084,-1.1212,-0.8449,-0.723,-0.749,-0.7562,-0.9034,-1.1646,-1.1599,-1.1633,-1.1619,-1.1619,-1.1558,-1.147,-1.1579,-1.1619,-1.1619,-1.1619,-1.1647,-1.1681,0.0,0.0,0.0,0.0,0.0,0.0,0.0,0.0,0.0,0.0,-1.0598,-1.0195,0.0,0.0,0.0,0.0,0.0,0.0,0.0,-1.0273,-1.0196,-1.0,-1.0318,-1.0661,-1.1058,-1.1718,-1.1404,-1.012,-1.0371,-0.991,-0.8804,-0.8925,-0.8978,-0.8991,-0.9406,-0.9535,-0.9548,-0.9543,-0.9719,-1.002,-0.953,-0.9616,-1.0033,0.0,0.0,0.0,0.0,0.0,0.0,0.0,0.0,0.0,-0.6719,-0.6459,-0.6239,-0.6075,-0.6008,-0.5976,-0.5881,-0.6186,-0.6607,-0.6932,-0.7482,-0.8099,-0.8669,-0.9076,-0.9544,-1.0297,-1.029,-1.0188,-1.0337,-1.0385,0.0,0.0,0.0,0.0,0.0,0.0,0.0,0.0,0.0,0.0,0.0,0.0,0.0,0.0,0.0,0.0,0.0,0.0,0.0,0.0,0.0,0.0,-1.0989,-1.0907,-1.0934,-1.105,-0.8622,-0.7528,-0.7726,-0.6317,-0.6931,-0.9198,-1.0703,-1.145,-1.1443,-1.1504,-1.147,-1.1409,-1.1558,-1.1619,-1.1619,-1.1619,-1.1619,-1.1619,0.0,0.0,0.0,0.0,0.0,0.0,0.0,0.0,0.0,0.0,-1.0088,-0.9729,0.0,0.0,0.0,0.0,0.0,0.0,0.0,-1.0235,-1.0,-0.943,-0.9718,-0.9932,-1.0124,-1.0582,-1.0407,-0.9718,-1.0372,-1.0064,-0.8818,-0.9017,-0.9163,-0.9203,-0.9833,-1.0026,-0.9945,-0.9479,-0.9716,-1.0275,-0.9184,-0.9357,-1.0338,-1.0001,0.0,0.0,0.0,0.0,0.0,0.0,0.0,0.0,-0.6719,-0.6714,-0.6771,-0.6664,-0.615,-0.5616,-0.5657,-0.5969,-0.643,-0.7048,-0.757,-0.8126,-0.8872,-0.9673,-1.0337,-1.0602,0.0,-1.0358,-1.0487,0.0,0.0,0.0,0.0,0.0,0.0,0.0,0.0,0.0,0.0,0.0,0.0,0.0,0.0,0.0,0.0,0.0,0.0,0.0,0.0,0.0,0.0,0.0,-1.0717,-1.0744,-1.0498,0.0,-1.0558,-1.0296,-0.9612,-0.7065,-0.5876,-0.614,-0.9625,-1.1158,-1.1158,-1.1307,-1.1362,-1.1369,-1.1531,-1.1599,-1.1599,-1.1613,-1.1619,-1.1619,0.0,0.0,0.0,0.0,0.0,0.0,0.0,0.0,0.0,0.0,0.0,0.0,0.0,0.0,0.0,0.0,0.0,0.0,0.0,-0.9686,-0.943,-0.8869,-0.9408,-0.9655,-0.9411,-1.0332,-1.0218,-0.9001,-0.9666,-0.9614,-0.8804,-0.8871,-0.9018,-0.9203,-0.9619,-0.953,-0.9064,-0.9214,-0.9011,-0.8538,-0.8292,-0.8302,-0.8538,-0.8484,-0.8495,0.0,0.0,0.0,0.0,0.0,0.0,0.0,-0.6719,-0.6321,-0.5851,-0.5816,-0.5783,-0.5833,-0.6186,-0.6349,-0.6627,-0.7461,-0.8269,-0.9028,-0.9666,-0.9958,-1.0114,-1.0181,-1.0426,-1.0636,0.0,0.0,0.0,0.0,0.0,0.0,0.0,0.0,0.0,0.0,0.0,0.0,0.0,0.0,0.0,0.0,0.0,0.0,0.0,0.0,0.0,0.0,0.0,-1.0717,-1.0717,-1.0744,-0.9267,0.0,-0.932,-0.7694,-0.2425,-0.7566,-0.9763,-0.9672,-1.0757,-1.1097,-1.1002,-1.1151,-1.1145,-1.107,-1.1335,-1.1443,-1.1457,-1.1572,-1.1619,-1.1619,0.0,0.0,0.0,0.0,0.0,0.0,0.0,0.0,0.0,0.0,0.0,0.0,0.0,0.0,0.0,0.0,0.0,0.0,0.0,0.0,-0.8954,-0.8511,-0.8701,-0.8857,-0.8799,-0.9504,-0.951,-0.8804,-0.9159,-0.9159,-0.8804,-0.8951,-0.9165,-0.9402,-0.933,-0.9175,-0.8994,-0.8366,-0.8021,-0.7957,-0.7567,-0.7632,-0.8021,-0.8021,-0.8021,-0.7957,-0.7502,0.0,0.0,0.0,0.0,0.0,0.0,0.0,-0.5576,-0.5501,-0.563,-0.5854,-0.6084,-0.6417,-0.6926,-0.7889,-0.8594,-0.9171,-0.9625,-0.9836,-0.9964,-1.0032,-1.0351,0.0,0.0,0.0,0.0,0.0,0.0,0.0,0.0,0.0,0.0,0.0,0.0,0.0,0.0,0.0,0.0,0.0,0.0,0.0,0.0,0.0,0.0,0.0,-1.0683,-1.0717,-1.0717,-1.0744,-0.8862,-0.5362,-0.7273,-0.7148,-0.5255,-0.7341,-0.9171,-1.073,-1.0833,-1.0907,-1.0853,-1.1002,-1.1016,-1.0968,-1.1192,-1.128,-1.1301,-1.1457,-1.1511,-1.1518,0.0,0.0,0.0,0.0,0.0,0.0,0.0,0.0,0.0,0.0,0.0,0.0,0.0,0.0,0.0,0.0,0.0,0.0,0.0,0.0,0.0,-0.8326,-0.8049,-0.8096,-0.8444,-0.8684,-0.8804,-0.8804,-0.8699,-0.8619,-0.8658,-0.8893,-0.9167,-0.9453,-0.8872,-0.8697,-0.8753,-0.7307,-0.7046,-0.7512,-0.6785,-0.6915,-0.7567,-0.7567,-0.7567,-0.7567,-0.7567,-0.7111,-0.6465,-0.6498,0.0,0.0,0.0,0.0,-0.5569,-0.5467,-0.5596,-0.5786,-0.5888,-0.6485,-0.7292,-0.818,-0.8676,-0.9008,-0.9279,-0.9551,-0.9788,-0.9944,0.0,0.0,0.0,0.0,0.0,0.0,0.0,0.0,0.0,0.0,0.0,0.0,0.0,0.0,0.0,0.0,0.0,0.0,0.0,0.0,0.0,0.0,-1.0609,-1.046,-1.0575,-1.0656,-1.0677,-1.0704,-0.9232,-0.6281,-0.5622,-0.7254,-1.0551,-0.766,-0.7917,-1.0751,-1.0731,-1.0717,-1.0731,-1.086,-1.0907,-1.0921,-1.107,-1.1124,-1.1145,-1.1294,-1.1355,-1.1375,0.0,0.0,0.0,0.0,0.0,0.0,0.0,0.0,0.0,0.0,-0.8861,-0.9219,0.0,0.0,0.0,0.0,0.0,0.0,0.0,0.0,0.0,-0.8364,-0.8091,-0.819,-0.8738,-0.8791,-0.8804,-0.8804,-0.8156,-0.7889,-0.8034,-0.807,-0.8234,-0.8551,-0.795,-0.7429,-0.7046,-0.6785,-0.6334,-0.5756,-0.5624,-0.5624,-0.5756,-0.5756,-0.5756,-0.5756,-0.5756,-0.569,-0.5579,-0.5712,-0.5693,0.0,0.0,0.0,-0.561,-0.5711,-0.5684,-0.5732,-0.624,-0.7021,-0.776,-0.8031,-0.852,-0.8981,-0.9144,0.0,-0.9483,0.0,0.0,0.0,0.0,0.0,0.0,0.0,0.0,0.0,0.0,0.0,0.0,0.0,0.0,0.0,0.0,0.0,0.0,0.0,0.0,0.0,0.0,-1.0446,-1.046,-1.0317,-1.0331,-1.0399,-1.0521,-1.0685,-1.0306,-0.9639,-0.685,-0.7294,-1.0632,-1.0219,-1.0212,-1.0751,-1.0731,-1.0717,-1.0724,-1.0744,-1.0751,-1.0765,-1.0914,-1.0975,-1.0995,-1.1138,-1.1192,-1.1212,0.0,0.0,0.0,0.0,0.0,0.0,0.0,0.0,0.0,0.0,0.0,-0.8948,0.0,0.0,0.0,0.0,0.0,0.0,0.0,0.0,0.0,-0.7889,-0.807,-0.8297,-0.8564,-0.8724,-0.8593,-0.8209,-0.7836,-0.7575,-0.7362,-0.6972,-0.721,-0.7846,-0.7088,-0.6731,-0.6654,-0.6203,-0.5749,-0.5425,-0.5425,-0.5311,-0.525,-0.5426,-0.544,-0.5452,-0.5549,-0.5555,-0.5515,-0.5657,-0.5657,-0.5616,-0.5759,0.0,0.0,0.0,-0.582,-0.5949,-0.6458,-0.6885,-0.7305,-0.7787,-0.8113,-0.8411,-0.8811,-0.9022,-0.9178,0.0,0.0,0.0,0.0,0.0,0.0,0.0,0.0,0.0,0.0,0.0,0.0,0.0,0.0,0.0,0.0,0.0,0.0,0.0,0.0,0.0,-1.0161,-1.029,-1.0304,-1.0154,-1.0236,-1.031,-1.0371,-1.0392,-1.0405,-1.0154,-0.8705,-0.8903,-1.0504,-1.0616,-1.0656,-1.0731,-1.0724,-1.0717,-1.0717,-1.0717,-1.0717,-1.0724,-1.0792,-1.0819,-1.0839,-1.0989,-1.1043,-1.1063,0.0,0.0,0.0,0.0,0.0,0.0,0.0,0.0,0.0,0.0,0.0,0.0,0.0,0.0,0.0,0.0,0.0,0.0,0.0,0.0,0.0,-0.7728,-0.7898,-0.8073,-0.8216,-0.8214,-0.7996,-0.7396,-0.7235,-0.6994,-0.6654,-0.6045,-0.617,-0.6958,-0.626,-0.6141,-0.6334,-0.569,-0.5452,-0.5413,-0.5446,-0.5318,-0.527,-0.546,-0.546,-0.5459,-0.5657,-0.5677,-0.5616,-0.58,-0.5786,-0.5725,-0.5874,-0.5888,0.0,0.0,0.0,-0.6112,-0.6485,-0.6647,-0.6837,-0.7387,-0.7645,-0.7882,0.0,0.0,0.0,0.0,0.0,0.0,0.0,0.0,0.0,0.0,0.0,0.0,0.0,0.0,0.0,0.0,0.0,0.0,0.0,0.0,0.0,0.0,0.0,0.0,-0.9998,-1.0141,-1.0148,-0.9998,-1.01,-1.0181,-1.0222,-1.0222,-1.0249,-1.0176,-1.0136,-1.0196,-1.0344,-1.0446,-1.0521,-1.0663,-1.0704,-1.0717,-1.0717,-1.0717,-1.0717,-1.0717,-1.0717,-1.0717,-1.0731,-1.0846,-1.0894,-1.0914,0.0,0.0,0.0,0.0,0.0,0.0,0.0,0.0,0.0,0.0,0.0,0.0,-0.8062,-0.7991,-0.7961,-0.7961,0.0,0.0,0.0,0.0,0.0,-0.8297,-0.7425,0.0,-0.7747,-0.7063,-0.6696,-0.6642,-0.5982,-0.5789,-0.6036,-0.5275,-0.5137,-0.5477,-0.5477,-0.5418,-0.5491,-0.5425,-0.5447,-0.5562,-0.542,-0.5447,-0.5549,-0.542,-0.5432,-0.5452,-0.5542,-0.5596,-0.5637,-0.5922,-0.601,-0.603,-0.6186,-0.6139,-0.6017,0.0,0.0,0.0,-0.624,-0.6485,-0.6709,-0.6749,-0.719,-0.7651,0.0,0.0,0.0,0.0,0.0,0.0,0.0,0.0,0.0,0.0,0.0,0.0,0.0,0.0,0.0,0.0,0.0,0.0,0.0,0.0,0.0,0.0,0.0,0.0,-0.9842,-0.9978,-0.9992,-0.9836,-0.9842,-0.9917,-1.0059,-1.0059,-1.0134,-1.0283,-1.0134,-1.0141,-1.0297,-1.029,-1.0371,-1.0514,-1.0656,-1.0717,-1.0717,-1.0717,-1.0717,-1.0717,-1.0717,-1.0717,-1.0724,-1.0731,-1.0731,-1.0751,0.0,0.0,0.0,0.0,0.0,0.0,0.0,0.0,0.0,0.0,0.0,0.0,0.0,-0.7583,-0.7222,-0.6975,-0.6369,0.0,0.0,0.0,0.0,-0.6951,-0.6772,-0.6786,-0.6966,-0.675,-0.6362,-0.5873,-0.5655,-0.5401,-0.5275,-0.5039,-0.5074,-0.5425,-0.5425,-0.5425,-0.5432,-0.5467,-0.5542,-0.5583,-0.5528,-0.5481,-0.546,-0.5589,-0.5589,-0.5555,0.0,0.0,0.0,-0.6112,-0.6112,-0.6057,-0.6213,-0.622,-0.6179,-0.6179,-0.6179,-0.6193,-0.6247,-0.6335,-0.6464,-0.6654,-0.6865,-0.7082,-0.7326,0.0,0.0,0.0,0.0,0.0,0.0,0.0,0.0,0.0,0.0,0.0,0.0,0.0,0.0,0.0,0.0,0.0,0.0,0.0,0.0,0.0,0.0,0.0,-0.9686,-0.9646,-0.9598,-0.9544,-0.9632,-0.9754,-0.9903,-0.9903,-0.993,-0.9985,-0.993,-0.9985,-1.0134,-1.0134,-1.0215,-1.0365,-1.0514,-1.0629,-1.0717,-1.0717,-1.0717,-1.0717,-1.0717,-1.0717,-1.0717,-1.0717,-1.0717,-1.0724,0.0,0.0,0.0,0.0,0.0,0.0,0.0,0.0,0.0,-0.7984,0.0,0.0,0.0,0.0,-0.6755,-0.6556,-0.5976,-0.5671,-0.5809,-0.5868,-0.6017,-0.6176,-0.6125,-0.6133,-0.6253,-0.5982,-0.5655,-0.5164,-0.5164,-0.5039,-0.4843,-0.4897,-0.5047,-0.5284,-0.5338,-0.5425,-0.5432,-0.5467,-0.5569,-0.565,-0.5555,-0.5542,-0.5603,-0.5745,-0.5745,0.0,0.0,0.0,0.0,0.0,0.0,0.0,-0.6227,-0.6338,-0.6338,-0.6338,-0.6338,-0.6338,-0.6338,-0.6338,-0.6322,-0.6566,-0.6661,-0.6763,-0.7014,0.0,0.0,0.0,0.0,0.0,0.0,0.0,0.0,0.0,0.0,0.0,0.0,0.0,0.0,0.0,0.0,0.0,0.0,0.0,0.0,0.0,0.0,0.0,-0.953,-0.9435,-0.9381,-0.9381,-0.9483,-0.9578,-0.9673,-0.9673,-0.97,-0.9747,-0.9747,-0.9829,-0.9971,-0.9971,-1.0059,-1.0209,-1.0304,-1.046,-1.0649,-1.0697,-1.0717,-1.0717,-1.0717,-1.0717,-1.0717,-1.0717,-1.0717,-1.0717,0.0,0.0,0.0,0.0,0.0,0.0,0.0,0.0,-0.7371,-0.7833,0.0,0.0,0.0,0.0,0.0,-0.6775,-0.6159,-0.5731,-0.5741,-0.5731,-0.5868,-0.6135,-0.5483,-0.5202,-0.5483,-0.4842,-0.4519,-0.4519,-0.4519,-0.4538,-0.4694,-0.485,-0.4992,-0.5135,-0.5291,-0.5425,-0.5425,-0.5439,-0.5542,-0.5779,-0.5494,-0.5644,-0.6017,-0.5867,0.0,0.0,-0.6159,-0.6173,0.0,-0.6213,0.0,0.0,0.0,-0.6268,-0.6268,-0.6268,-0.6268,-0.6268,0.0,0.0,0.0,-0.643,0.0,0.0,-0.6878,0.0,0.0,0.0,0.0,0.0,0.0,0.0,0.0,0.0,0.0,0.0,0.0,0.0,0.0,0.0,0.0,0.0,0.0,0.0,0.0,0.0,0.0,-0.9374,-0.9374,-0.9367,-0.9367,-0.9374,-0.9374,-0.9374,-0.9381,-0.9381,-0.9456,-0.9612,-0.9612,-0.9686,-0.9822,-0.9822,-0.9903,-1.0039,-1.0046,-1.0215,-1.0493,-1.0649,-1.0717,-1.0717,-1.0717,-1.0717,-1.0717,-1.0717,-1.0717,-1.0717,0.0,0.0,0.0,0.0,0.0,-0.7962,-0.8095,-0.7527,-0.7086,0.0,0.0,0.0,-0.7455,-0.6788,-0.6336,-0.6349,-0.5293,-0.4688,-0.4862,-0.4703,-0.4763,-0.4985,-0.4776,-0.4689,-0.4787,-0.4574,-0.4519,-0.4519,-0.4519,-0.4538,-0.4694,-0.485,-0.4992,-0.5135,-0.5291,-0.5425,-0.5439,-0.5589,-0.5725,-0.58,-0.5833,-0.5922,0.0,0.0,0.0,0.0,0.0,-0.6383,-0.6356,0.0,-0.6485,-0.6559,0.0,-0.6417,-0.6417,-0.6417,-0.6417,-0.6417,-0.6417,0.0,0.0,0.0,0.0,0.0,0.0,0.0,0.0,0.0,0.0,0.0,0.0,0.0,0.0,0.0,0.0,0.0,0.0,0.0,0.0,0.0,0.0,0.0,0.0,0.0,0.0,0.0,-0.9279,-0.9218,-0.9218,-0.9117,-0.911,-0.9211,-0.9218,-0.9266,-0.9381,-0.9381,-0.9456,-0.9612,-0.9612,-0.9686,-0.9822,-0.9822,-0.9842,-0.989,-0.9998,-1.0161,-1.0351,-1.0493,-1.0622,-1.0717,-1.0717,-1.0717,-1.0717,-1.0717,-1.0717,-1.0717,0.0,0.0,0.0,0.0,0.0,-0.7573,-0.7702,-0.743,-0.7255,0.0,0.0,0.0,-0.7487,-0.6834,-0.6388,-0.6388,-0.5128,-0.4375,-0.4512,-0.4382,-0.4375,-0.4512,-0.4519,-0.4519,-0.4519,-0.4519,-0.4519,-0.4519,-0.4519,-0.4567,-0.4599,-0.4816,-0.4965,-0.5053,-0.5264,-0.5425,-0.5446,-0.5677,-0.58,0.0,-0.5766,0.0,0.0,-0.6057,-0.6071,0.0,0.0,0.0,-0.6485,-0.6546,-0.6627,0.0,0.0,0.0,0.0,0.0,-0.6471,-0.6458,-0.6403,-0.6383,-0.6376,0.0,0.0,0.0,-0.6418,-0.605,0.0,0.0,0.0,0.0,0.0,0.0,0.0,0.0,0.0,0.0,0.0,0.0,0.0,0.0,0.0,0.0,0.0,0.0,0.0,0.0,-0.892,-0.8899,-0.8967,-0.8886,-0.8913,-0.9055,-0.9062,-0.9103,-0.9198,-0.9198,-0.9273,-0.9422,-0.9483,-0.9591,-0.9734,-0.9795,-0.9822,-0.9829,-0.9917,-1.0039,-1.0195,-1.0344,-1.0527,-1.0717,-1.0717,-1.0717,-1.0717,-1.0717,-1.0717,-1.0717,0.0,0.0,-0.8602,-0.8651,-0.7783,-0.7174,-0.7468,-0.7567,-0.7615,0.0,-0.7519,-0.734,-0.7607,-0.6998,-0.6588,-0.6588,-0.5336,-0.4519,-0.4519,-0.4519,-0.4519,-0.4519,-0.4532,-0.4532,-0.4519,-0.4532,-0.4532,-0.4519,-0.4532,-0.4539,-0.4553,-0.4802,-0.4945,-0.4952,-0.5237,-0.5425,-0.5452,-0.5657,0.0,-0.5759,-0.5549,-0.5858,0.0,0.0,-0.6139,-0.6295,-0.6573,-0.6586,-0.6498,-0.6647,-0.6702,0.0,0.0,0.0,0.0,0.0,-0.6512,-0.6471,-0.6363,-0.6335,-0.6363,0.0,0.0,0.0,-0.6417,-0.5555,0.0,0.0,0.0,0.0,0.0,0.0,0.0,0.0,0.0,0.0,0.0,0.0,0.0,0.0,0.0,0.0,0.0,0.0,-0.8465,-0.8479,-0.8479,-0.854,-0.8676,-0.8682,-0.875,-0.8886,-0.8906,-0.8913,-0.8913,-0.8927,-0.9008,-0.9157,-0.9293,-0.9442,-0.9612,-0.9741,-0.9808,-0.9822,-0.9822,-0.991,-1.0059,-1.0202,-1.0426,-1.0697,-1.0711,-1.0717,-1.0717,-1.0717,-1.0717,-1.0717,0.0,-0.8715,-0.812,-0.8336,-0.7815,-0.7482,-0.7789,-0.7842,-0.7869,-0.7875,-0.8039,-0.8239,-0.8528,-0.7374,-0.6588,-0.6588,-0.5336,-0.4519,-0.4519,-0.4519,-0.4519,-0.4519,-0.4579,-0.4585,-0.4519,-0.4585,-0.4585,-0.4519,-0.4585,-0.4646,-0.4653,-0.4952,-0.5087,-0.5094,-0.5277,-0.5432,-0.5386,-0.5424,0.0,-0.5741,-0.6043,0.0,-0.6254,-0.6227,-0.6234,-0.6281,-0.6458,-0.6498,-0.6498,-0.6647,-0.6702,-0.6695,0.0,0.0,0.0,-0.6776,0.0,0.0,0.0,0.0,0.0,0.0,0.0,0.0,-0.5194,-0.5769,-0.6589,0.0,0.0,0.0,0.0,0.0,0.0,0.0,0.0,0.0,0.0,0.0,0.0,0.0,0.0,0.0,0.0,-0.8309,-0.8357,-0.8472,-0.8479,-0.8492,-0.8526,-0.8526,-0.854,-0.8567,-0.8689,-0.8757,-0.8757,-0.8879,-0.9008,-0.915,-0.9184,-0.934,-0.9612,-0.9639,-0.9713,-0.9822,-0.9822,-0.991,-1.0053,-1.008,-1.027,-1.0548,-1.067,-1.0717,-1.0717,-1.0717,-1.0717,-1.0717,-0.9433,-0.8733,-0.8119,-0.8282,-0.7965,-0.7802,-0.811,-0.815,-0.8203,-0.835,-0.8191,-0.8111,-0.8249,-0.6956,-0.6036,-0.6036,-0.5117,-0.4519,-0.4519,-0.4587,-0.4579,-0.4579,-0.4721,-0.4769,-0.4694,-0.4762,-0.4769,-0.4694,-0.4769,-0.4802,-0.4809,-0.5033,-0.5101,-0.5109,-0.5343,-0.5404,-0.5363,-0.4463,-0.4136,-0.4288,-0.5583,0.0,-0.6139,-0.6146,-0.6208,-0.6281,-0.6424,-0.6573,-0.6702,-0.6702,-0.6797,0.0,0.0,-0.6749,-0.6824,0.0,-0.6871,-0.6817,0.0,0.0,0.0,-0.6722,0.0,0.0,0.0,-0.6367,-0.6932,0.0,0.0,0.0,0.0,0.0,0.0,0.0,0.0,0.0,0.0,0.0,0.0,0.0,0.0,0.0,0.0,-0.7957,-0.8099,-0.8248,-0.8262,-0.8296,-0.837,-0.8377,-0.8411,-0.8479,-0.8554,-0.8635,-0.871,-0.8784,-0.8899,-0.9049,-0.9117,-0.9232,-0.9388,-0.9537,-0.9646,-0.972,-0.9788,-0.9863,-0.9944,-1.0019,-1.0181,-1.0399,-1.0548,-1.0656,-1.0717,-1.0717,-1.0717,-1.0717,-0.9555,-0.8802,-0.8224,-0.8431,-0.8217,-0.811,-0.8417,-0.8457,-0.8486,-0.8567,-0.7943,-0.7503,-0.7503,-0.6308,-0.5517,-0.5592,-0.4934,-0.4553,-0.4585,-0.4653,-0.4694,-0.4694,-0.4863,-0.4938,-0.4884,-0.4938,-0.4958,-0.4925,-0.489,-0.4904,-0.491,-0.5058,-0.5001,-0.4646,-0.4789,-0.5048,-0.5284,-0.3867,0.0,-0.288,0.0,-0.5689,-0.5451,-0.5882,-0.6132,-0.6281,-0.639,-0.6607,-0.6824,-0.6702,-0.6837,-0.7021,-0.681,-0.6885,0.0,0.0,0.0,0.0,0.0,0.0,0.0,0.0,0.0,-0.69,0.0,0.0,0.0,0.0,0.0,0.0,0.0,0.0,0.0,0.0,0.0,0.0,0.0,0.0,0.0,0.0,0.0,0.0,0.0,-0.7611,-0.7821,-0.7943,-0.8011,-0.8079,-0.8174,-0.8208,-0.8282,-0.8391,-0.8425,-0.8499,-0.8621,-0.8682,-0.8771,-0.8899,-0.9042,-0.9123,-0.9164,-0.9442,-0.9585,-0.9618,-0.9761,-0.9822,-0.9829,-0.9958,-1.0093,-1.0256,-1.0426,-1.0582,-1.0717,-1.0717,-1.0717,-1.0717,-0.9656,-0.866,-0.7902,-0.8926,-0.8679,-0.8417,-0.8711,-0.8751,-0.8554,-0.7877,-0.7182,-0.675,-0.675,-0.5982,-0.5617,-0.5901,0.0,0.0,-0.5026,0.0,-0.4752,-0.4766,-0.4972,-0.5006,-0.4873,-0.5206,-0.5213,-0.489,-0.4892,-0.4893,-0.4893,-0.5232,-0.4544,-0.2983,-0.299,-0.3921,-0.5375,-0.5212,-0.4162,0.0,-0.4997,-0.4875,0.0,-0.5532,-0.6254,-0.6274,-0.6281,-0.639,-0.6519,0.0,-0.6614,-0.677,0.0,-0.6831,-0.6797,-0.7041,0.0,0.0,0.0,0.0,0.0,0.0,-0.721,0.0,0.0,0.0,0.0,0.0,0.0,0.0,0.0,0.0,0.0,0.0,0.0,0.0,0.0,0.0,0.0,0.0,0.0,0.0,0.0,0.0,-0.7631,-0.7651,-0.7889,-0.7991,-0.7868,-0.7991,-0.8072,-0.8085,-0.8221,-0.8303,-0.8323,-0.8581,-0.8716,-0.8737,-0.8893,-0.9028,-0.9157,-0.9334,-0.9483,-0.9618,-0.9761,-0.9822,-0.9822,-0.9842,-0.9937,-1.01,-1.0385,-1.0582,-1.0717,-1.0717,-1.0717,-1.0717,-0.9075,-0.8558,-0.8166,-0.8672,-0.8663,-0.8671,-0.8791,-0.8508,-0.805,-0.7323,-0.6662,-0.628,0.0,0.0,0.0,0.0,0.0,-0.4674,0.0,0.0,-0.4844,-0.4961,-0.5152,-0.4736,-0.3656,-0.375,-0.374,-0.3628,-0.361,-0.3629,-0.3629,-0.4827,-0.502,-0.4142,-0.2071,-0.1566,-0.2415,0.0,-0.3763,0.0,0.0,0.0,0.0,-0.4033,-0.5208,-0.6302,-0.6464,-0.6559,-0.662,0.0,-0.6837,0.0,0.0,0.0,0.0,0.0,0.0,0.0,0.0,0.0,0.0,0.0,0.0,0.0,-0.7272,0.0,-0.7163,0.0,0.0,0.0,0.0,0.0,0.0,0.0,0.0,0.0,0.0,0.0,0.0,0.0,0.0,0.0,0.0,0.0,0.0,0.0,0.0,-0.7753,-0.7692,-0.7828,-0.7909,-0.7909,-0.8058,-0.818,-0.8269,-0.8391,-0.8492,-0.8581,-0.873,-0.8838,-0.8906,-0.9144,-0.9286,-0.9361,-0.9598,-0.97,-0.9707,-0.9788,-0.991,-1.0059,-1.0188,-1.0378,-1.0588,-1.0588,-1.0643,-1.0717,-0.8676,-0.8567,-0.8404,-0.8484,-0.8671,-0.8725,-0.8577,-0.7865,-0.7146,0.0,0.0,0.0,-0.5762,-0.5279,0.0,0.0,-0.4884,-0.4863,0.0,0.0,-0.4994,0.0,0.0,0.0,-0.1981,-0.1971,-0.1959,-0.1944,-0.1944,-0.1944,-0.2011,-0.3297,-0.3889,-0.3779,-0.1181,-0.0,-0.0201,0.0,-0.2417,-0.0145,-0.1439,-0.1934,-0.2017,-0.2181,-0.3188,-0.4716,-0.6028,-0.6593,-0.6688,-0.6756,-0.6898,0.0,-0.6946,0.0,0.0,0.0,0.0,0.0,-0.7061,0.0,0.0,0.0,0.0,0.0,0.0,0.0,0.0,0.0,0.0,0.0,0.0,0.0,0.0,0.0,0.0,0.0,0.0,0.0,0.0,0.0,0.0,0.0,0.0,0.0,0.0,0.0,-0.7502,-0.7536,-0.7489,-0.7665,-0.7787,-0.7828,-0.7977,-0.8106,-0.8221,-0.8262,-0.8233,-0.8334,-0.8481,-0.8676,-0.873,-0.8981,-0.9117,-0.9171,-0.9476,-0.9612,-0.9618,-0.9761,-0.9883,-0.9985,-0.9985,-1.0168,-1.0439,-1.048,-1.0588,-1.0717,-0.8724,-0.8564,-0.847,-0.8751,-0.8804,-0.8618,-0.8034,0.0,0.0,0.0,0.0,0.0,0.0,0.0,0.0,0.0,0.0,-0.5304,-0.5739,0.0,-0.5173,0.0,0.0,-0.3727,0.0,-0.0068,-0.0069,-0.0067,-0.0067,-0.0067,-0.0067,-0.0135,-0.0205,-0.014,-0.0068,-0.0,-0.0,-0.0142,-0.0141,-0.0,-0.0072,-0.0074,-0.0076,0.0,-0.0156,-0.0704,-0.4862,0.0,0.0,-0.6524,-0.6586,0.0,0.0,0.0,0.0,0.0,0.0,0.0,0.0,0.0,0.0,-0.7128,0.0,0.0,0.0,0.0,-0.7584,0.0,0.0,0.0,0.0,0.0,-0.7366,-0.7366,0.0,0.0,0.0,0.0,0.0,0.0,0.0,0.0,0.0,0.0,0.0,-0.7152,-0.7437,-0.7458,-0.7121,-0.7396,-0.7726,-0.7973,-0.8018,-0.7992,-0.7999,-0.8037,-0.8007,-0.8014,-0.8243,-0.8495,-0.8865,-0.8886,-0.9022,-0.9171,-0.9476,-0.9612,-0.9618,-0.9761,-0.9822,-0.9829,-0.9829,-1.0019,-1.0304,-1.0439,-1.0588,-1.0717,-0.9297,-0.8659,-0.7939,-0.8037,0.0,0.0,0.0,-0.6265,0.0,0.0,0.0,0.0,0.0,-0.5881,-0.5901,0.0,0.0,-0.5637,-0.5793,-0.5554,0.0,0.0,0.0,-0.301,0.0,-0.0,-0.0,-0.0,-0.0,-0.0,-0.0,-0.0,-0.0,-0.0,-0.0,-0.0,0.0,0.0,0.0,0.0,0.0,-0.0,-0.0,0.0,0.0,-0.0157,-0.1591,-0.3964,0.0,-0.6589,-0.6642,-0.6766,-0.6994,-0.7054,-0.6821,-0.5275,-0.4825,0.0,0.0,0.0,-0.6821,-0.5208,0.0,0.0,0.0,0.0,0.0,0.0,0.0,0.0,0.0,0.0,-0.7464,-0.7272,-0.7121,-0.7143,0.0,0.0,0.0,0.0,0.0,0.0,0.0,0.0,0.0,-0.7118,-0.5728,-0.4875,0.0,-0.4862,-0.5009,-0.5088,-0.5285,-0.5367,-0.5331,-0.5363,-0.5381,-0.5381,-0.6092,-0.7009,-0.834,-0.8575,-0.8811,-0.8879,-0.9178,-0.9367,-0.9469,-0.9618,-0.9734,-0.9822,-0.9822,-1.0012,-1.0283,-1.0337,-1.0507,-1.0717,-0.8619,-0.7919,0.0,0.0,0.0,0.0,0.0,0.0,0.0,0.0,-0.584,0.0,-0.6308,0.0,-0.6315,0.0,-0.6125,-0.6017,-0.5969,-0.5935,0.0,-0.4504,-0.4431,0.0,0.0,0.0,-0.0723,-0.0,-0.0,-0.0,-0.0,-0.0,-0.0,-0.0,-0.0,-0.0,-0.0,-0.0,-0.0,0.0,0.0,-0.0,0.0,0.0,-0.0,-0.0,0.0,-0.1788,-0.4159,-0.5152,-0.5454,-0.5494,-0.5582,-0.634,-0.684,-0.529,-0.3664,-0.2688,-0.4184,-0.5802,0.0,-0.4215,-0.4084,0.0,-0.5966,0.0,0.0,0.0,0.0,0.0,0.0,0.0,-0.6224,-0.6003,-0.5941,-0.5891,0.0,-0.5883,0.0,0.0,0.0,0.0,0.0,0.0,-0.6963,-0.707,-0.4126,-0.2279,0.0,0.0,-0.2352,-0.2277,-0.2518,-0.2567,-0.2613,-0.2613,-0.2613,-0.2615,-0.4163,-0.595,-0.7988,-0.8421,-0.8662,-0.8723,-0.9022,-0.9239,-0.9395,-0.9544,-0.9693,-0.9822,-0.9822,-1.0012,-1.0283,-1.0283,-1.0466,-1.0717,-0.675,0.0,0.0,0.0,-0.6585,0.0,0.0,0.0,-0.565,0.0,-0.6091,-0.6342,-0.6491,-0.6512,-0.6573,-0.6709,-0.6586,0.0,-0.6302,-0.6351,0.0,0.0,-0.567,-0.5551,-0.579,0.0,0.0,0.0,-0.0216,-0.0073,-0.0,-0.0,-0.0,-0.0,-0.0,-0.0,-0.0,-0.0,-0.0,-0.0,-0.0,-0.0,-0.0,-0.0,0.0,-0.0,-0.0,-0.0,-0.0325,-0.2273,-0.2929,-0.295,-0.295,-0.4678,-0.677,-0.677,-0.3588,-0.0,-0.0,-0.3279,-0.6224,-0.397,0.0,0.0,0.0,0.0,-0.381,0.0,0.0,0.0,0.0,0.0,0.0,-0.4162,-0.3709,-0.3387,0.0,0.0,0.0,0.0,0.0,0.0,0.0,-0.7034,-0.7114,-0.7089,-0.2659,-0.0,0.0,0.0,-0.0,-0.0,-0.0,-0.0,-0.0,-0.0303,-0.0404,-0.0404,-0.3017,-0.5482,-0.7994,-0.832,-0.856,-0.8716,-0.9015,-0.9232,-0.9395,-0.9537,-0.9686,-0.9822,-0.9822,-1.0012,-1.0283,-1.0297,-1.048,-1.0717,-0.675,-0.6276,-0.5957,0.0,-0.5478,-0.5289,0.0,0.0,0.0,0.0,-0.6403,-0.6681,-0.6939,-0.7068,-0.7109,-0.7034,-0.6993,0.0,0.0,0.0,0.0,-0.6242,-0.6244,-0.5989,-0.5499,-0.5346,0.0,-0.4683,0.0,-0.1533,-0.0,-0.0,-0.0,-0.0,-0.0,-0.0,-0.0,-0.0,-0.0,-0.0,-0.0,-0.0,0.0,0.0,-0.0,-0.0,-0.0,-0.0,-0.0084,-0.0595,-0.0783,-0.0801,-0.0801,-0.1251,-0.1796,-0.1796,-0.0988,-0.0,-0.0,-0.0921,-0.167,-0.1036,-0.0476,-0.0192,0.0,0.0,0.0,0.0,0.0,0.0,0.0,0.0,0.0,-0.6322,-0.3314,-0.0965,0.0,0.0,0.0,0.0,0.0,0.0,0.0,-0.6097,-0.7105,-0.7069,-0.2726,0.0,0.0,0.0,0.0,-0.0,-0.0,-0.0,-0.0,-0.394,-0.5972,-0.5972,-0.6659,-0.7378,-0.8039,-0.8377,-0.8506,-0.856,-0.8859,-0.9144,-0.9388,-0.9422,-0.9591,-0.9822,-0.9822,-1.0012,-1.0304,-1.0527,-1.0656,-1.0717,-0.5896,0.0,0.0,-0.5178,0.0,0.0,-0.5433,0.0,0.0,-0.6315,-0.6614,0.0,-0.7027,-0.7183,-0.7238,-0.7149,-0.7143,0.0,-0.6939,0.0,0.0,-0.6369,-0.643,-0.619,-0.561,-0.5828,0.0,-0.6205,0.0,-0.3874,-0.2744,-0.085,-0.0,-0.0,-0.0,-0.0,-0.0,-0.0,-0.0,-0.0,-0.0,0.0,0.0,-0.0,-0.0,-0.0,-0.0,-0.0,-0.0,-0.0,-0.0,-0.0,-0.0,-0.0,-0.0,-0.0,-0.0,-0.0,-0.0,-0.0,-0.0,-0.0,-0.0,-0.0,-0.0,-0.0,-0.0,0.0,0.0,0.0,0.0,0.0,0.0,-0.7171,0.0,0.0,0.0,0.0,0.0,0.0,0.0,0.0,0.0,0.0,-0.489,0.0,0.0,0.0,0.0,0.0,0.0,-0.0,-0.2485,-0.3726,-0.3534,-0.5293,-0.6827,-0.8012,-0.7985,-0.7972,-0.7985,-0.8357,-0.8479,-0.8499,-0.8804,-0.911,-0.9381,-0.9381,-0.9557,-0.9836,-0.9971,-1.0127,-1.0317,-1.0609,-1.0717,-1.0717,0.0,0.0,0.0,0.0,0.0,0.0,0.0,-0.6017,0.0,-0.6471,0.0,-0.6959,-0.6959,-0.7082,-0.7163,-0.7143,0.0,-0.7109,-0.6966,-0.7068,-0.6959,-0.6552,-0.6512,-0.6302,-0.5867,-0.584,0.0,0.0,-0.6138,-0.6298,-0.6244,-0.2272,-0.0235,-0.0,-0.0,-0.0,0.0,-0.0,-0.0,-0.0,-0.0,-0.0,-0.0,-0.0,-0.0,-0.0,-0.0,-0.0,-0.0,-0.0,-0.0,-0.0,-0.0,-0.0,-0.0,-0.0,-0.0,-0.0,-0.0,-0.0,-0.0,-0.0,-0.0,-0.0,-0.0,-0.0,-0.019,-0.0762,-0.0951,-0.2368,0.0,0.0,0.0,0.0,0.0,0.0,0.0,0.0,0.0,0.0,0.0,0.0,0.0,0.0,0.0,0.0,0.0,0.0,0.0,0.0,0.0,-0.0568,-0.5528,0.0,-0.8153,0.0,-0.5732,-0.8012,-0.8006,-0.7999,-0.8006,-0.8384,-0.8513,-0.8526,-0.8832,-0.9123,-0.9381,-0.9401,-0.9571,-0.9849,-1.0161,-1.0283,-1.0317,-1.0609,-1.0717,-1.0717,0.0,0.0,0.0,0.0,0.0,-0.6105,-0.6322,-0.6485,-0.66,-0.6654,-0.6919,-0.7102,-0.7102,-0.7238,-0.7278,-0.7149,-0.7258,0.0,0.0,0.0,0.0,-0.6858,-0.6729,-0.6512,-0.6186,-0.6057,-0.5989,0.0,-0.6023,-0.6125,-0.6224,-0.3756,-0.1642,-0.0,-0.0,-0.0,-0.0,-0.0,0.0,-0.0,-0.0,-0.0,-0.0,-0.0,-0.0,-0.0,-0.0,-0.0,-0.0,-0.0,-0.0,-0.0,-0.0,-0.0,-0.0,-0.0,-0.0,-0.0,-0.0,-0.0,-0.0,-0.0,-0.0,-0.0,-0.0,-0.0,-0.1122,-0.5056,-0.5863,-0.6255,-0.7746,0.0,0.0,0.0,0.0,0.0,0.0,0.0,0.0,0.0,0.0,0.0,0.0,0.0,0.0,0.0,0.0,0.0,0.0,0.0,0.0,0.0,0.0,0.0,0.0,0.0,-0.7642,-0.8255,-0.8241,-0.8235,-0.8248,-0.854,-0.8669,-0.8689,-0.8988,-0.9218,-0.9395,-0.9517,-0.9673,-0.9849,-1.0161,-1.0283,-1.0317,-1.0609,-1.0717,-1.0717,0.0,0.0,0.0,0.0,0.0,0.0,0.0,-0.6783,0.0,-0.6831,-0.6946,-0.7034,-0.7034,-0.7163,-0.7224,-0.7149,-0.721,-0.719,-0.7041,-0.7034,-0.6926,-0.6702,-0.662,0.0,-0.6146,-0.5989,-0.5949,-0.603,-0.5949,-0.6044,-0.6217,-0.4068,-0.1955,-0.0,-0.0,-0.0,0.0,0.0,0.0,-0.0,-0.0,-0.0,-0.0,-0.0,-0.0,-0.0,-0.0,-0.0,-0.0,-0.0,-0.0,-0.0,-0.0,-0.0,-0.0,-0.0,-0.0,-0.0539,-0.3054,-0.3685,-0.3413,-0.2149,-0.1878,-0.1878,-0.1878,-0.1893,-0.2552,-0.4995,-0.5465,-0.6018,-0.7713,-0.778,0.0,0.0,0.0,0.0,0.0,0.0,0.0,0.0,0.0,0.0,0.0,0.0,0.0,0.0,0.0,0.0,0.0,0.0,0.0,0.0,0.0,0.0,0.0,0.0,0.0,-0.816,-0.8235,-0.8269,-0.8282,-0.8574,-0.8757,-0.8838,-0.9055,-0.9286,-0.951,-0.9659,-0.9761,-0.9849,-1.0161,-1.0283,-1.0317,-1.0609,-1.0717,-1.0717,0.0,-0.5901,0.0,0.0,-0.6527,0.0,-0.7062,-0.7139,-0.7102,-0.6987,-0.6946,-0.6926,-0.6926,-0.7027,-0.7082,-0.7048,-0.7102,-0.7068,-0.6892,-0.6912,-0.6824,-0.658,-0.6539,-0.641,-0.6179,-0.5996,-0.5956,0.0,-0.5956,-0.6037,-0.6295,-0.4344,-0.2215,-0.0,0.0,0.0,0.0,0.0,-0.0,-0.0,-0.0,-0.0,-0.0,-0.0,-0.0669,-0.1479,-0.1479,-0.1146,-0.0808,-0.0808,-0.1077,-0.1437,-0.0897,-0.0808,-0.0808,-0.0808,-0.0808,-0.1615,-0.5305,-0.6764,-0.6668,-0.483,-0.4376,-0.4376,-0.4376,-0.4376,-0.4393,-0.4718,-0.4811,-0.5497,-0.7607,-0.7842,0.0,0.0,0.0,0.0,0.0,0.0,0.0,0.0,0.0,0.0,0.0,0.0,0.0,0.0,0.0,0.0,0.0,0.0,0.0,0.0,0.0,-0.8041,-0.8059,0.0,-0.8241,0.0,-0.8303,-0.8364,-0.8377,-0.8669,-0.8872,-0.8994,-0.9171,-0.9401,-0.9659,-0.9774,-0.9842,-0.9897,-1.0175,-1.0297,-1.0358,-1.0622,-1.0724,-1.0724,0.0,0.0,0.0,0.0,0.0,0.0,0.0,-0.7722,-0.7136,-0.7122,-0.7007,-0.6926,-0.6926,-0.6939,-0.6892,-0.6756,-0.6987,-0.7021,-0.6742,-0.6851,-0.6919,-0.6885,-0.6756,-0.6668,-0.6641,-0.6363,-0.6227,0.0,0.0,-0.624,0.0,-0.4976,-0.2791,0.0,0.0,0.0,0.0,-0.0,-0.0,-0.0,-0.0,-0.0,-0.0,-0.0,-0.2679,-0.6467,-0.6467,-0.5024,-0.3304,-0.3304,-0.4661,-0.6037,-0.3935,-0.3304,-0.3304,-0.3304,-0.3304,-0.3393,-0.3842,-0.5463,-0.7012,-0.6828,-0.6739,-0.6739,-0.6739,-0.6739,-0.6905,-0.7169,-0.7427,-0.7668,-0.7841,-0.7801,-0.7794,0.0,0.0,0.0,0.0,0.0,0.0,0.0,0.0,0.0,0.0,0.0,0.0,0.0,0.0,0.0,0.0,0.0,0.0,-0.7597,0.0,-0.8018,-0.8438,-0.833,0.0,-0.8648,-0.8662,-0.8669,-0.8676,-0.8974,-0.9117,-0.915,-0.9442,-0.9652,-0.9802,-0.9815,-0.9903,-1.0046,-1.0215,-1.0358,-1.0493,-1.0656,-1.0731,-1.0751,0.0,0.0,0.0,0.0,0.0,0.0,0.0,-0.7596,-0.7278,-0.7278,-0.7075,-0.6959,-0.7048,-0.698,-0.6939,-0.6959,-0.7075,-0.7054,-0.6851,-0.6898,-0.6892,-0.6797,-0.6647,-0.6607,-0.6702,-0.6322,-0.6207,0.0,0.0,0.0,0.0,0.0,0.0,0.0,0.0,-0.0,-0.0,-0.0,-0.0,-0.0,-0.0,-0.1723,-0.4244,-0.4244,-0.4579,-0.5225,-0.6574,-0.6511,-0.573,-0.5725,-0.6281,-0.693,-0.6008,-0.5735,-0.5735,-0.5735,-0.5735,-0.573,-0.5725,-0.6364,-0.7088,-0.7074,-0.7074,-0.7074,-0.7074,-0.7231,-0.7339,-0.7475,-0.7733,-0.7943,-0.795,-0.795,-0.795,0.0,0.0,0.0,0.0,0.0,0.0,0.0,0.0,0.0,0.0,0.0,0.0,0.0,0.0,0.0,0.0,0.0,0.0,-0.7719,0.0,-0.7984,-0.835,-0.8296,-0.837,-0.8574,-0.8757,-0.8845,-0.8859,-0.9157,-0.934,-0.9442,-0.9646,-0.9822,-0.9958,-0.9958,-1.0046,-1.0202,-1.0351,-1.0439,-1.0514,-1.0677,-1.0744,-1.0758,-0.9883,0.0,-0.8581,0.0,-0.7952,-0.7334,-0.78,-0.7682,-0.7407,-0.7312,-0.7122,-0.7014,-0.7068,-0.6987,-0.6953,-0.7007,-0.7088,-0.7061,-0.6871,-0.6905,-0.6878,-0.677,-0.6661,0.0,-0.6763,-0.6458,-0.6356,-0.6471,-0.6417,0.0,0.0,0.0,0.0,0.0,-0.26,-0.1617,-0.1029,-0.1056,-0.1067,-0.1067,-0.1067,-0.3109,-0.6109,-0.682,-0.6087,-0.4825,-0.6548,-0.7094,-0.7088,-0.7081,-0.7081,-0.7088,-0.7088,-0.7088,-0.7088,-0.7088,-0.7088,-0.7088,-0.7074,-0.7074,-0.7074,-0.7143,-0.7177,-0.721,-0.721,-0.7326,-0.7455,-0.7516,-0.7726,-0.8034,-0.8024,-0.8038,-0.8038,-0.8038,0.0,0.0,0.0,0.0,0.0,0.0,-0.7285,-0.7305,-0.7217,0.0,0.0,0.0,0.0,0.0,0.0,0.0,0.0,0.0,0.0,0.0,0.0,-0.8377,-0.8492,-0.8682,-0.8899,-0.9028,-0.9076,-0.9334,-0.953,-0.968,-0.9774,-0.991,-1.0046,-1.0046,-1.0161,-1.0351,-1.0453,-1.0521,-1.0575,-1.0697,-1.0073,-0.9134,-0.907,-0.882,-0.8862,-0.9242,-0.8283,-0.7815,-0.8886,-0.8229,-0.7489,-0.7183,-0.7143,-0.7088,-0.6946,-0.6932,-0.6871,-0.6715,-0.6973,-0.7014,-0.6722,-0.6844,-0.6926,0.0,0.0,-0.6926,-0.6926,-0.6919,-0.677,-0.6471,0.0,0.0,-0.6268,0.0,-0.641,-0.6542,-0.6569,-0.5482,-0.3568,-0.3568,-0.3517,-0.3517,-0.3517,-0.3567,-0.3902,-0.6183,-0.7061,-0.7081,-0.7088,-0.7074,-0.7143,-0.7143,-0.7143,-0.7143,-0.7143,-0.7143,-0.7143,-0.7143,-0.7143,-0.7143,-0.7143,-0.7143,-0.7143,-0.7143,-0.7258,-0.7366,-0.7366,-0.7489,-0.7638,-0.778,-0.7929,-0.8038,-0.8038,-0.8038,-0.8038,-0.8038,0.0,0.0,0.0,0.0,0.0,0.0,-0.7624,-0.7685,-0.7394,0.0,0.0,0.0,0.0,0.0,0.0,0.0,0.0,-0.7604,-0.8031,0.0,-0.8479,-0.8628,-0.8852,-0.9144,-0.915,-0.9232,-0.9381,-0.9537,-0.9686,-0.9822,-0.9822,-0.991,-1.0046,-1.0046,-1.0222,-1.0487,-1.0493,-1.0582,-1.0717,-1.0717,-0.844,-0.5499,-1.2719,-1.2147,-1.1747,-1.1882,-1.0974,-1.009,-0.9631,-0.9007,-0.8345,-0.754,-0.7272,-0.7122,-0.7082,-0.6987,-0.6946,0.0,-0.7088,-0.7102,0.0,-0.7048,-0.7075,-0.7075,-0.698,-0.6973,-0.7068,-0.6878,-0.6722,-0.6627,0.0,0.0,0.0,-0.6566,-0.6525,-0.6559,-0.6609,-0.6285,-0.5818,-0.5966,-0.5946,-0.5946,-0.5946,-0.6016,-0.6034,-0.6845,-0.7129,-0.7061,-0.7061,-0.7061,-0.7143,-0.7143,-0.7143,-0.7143,-0.7143,-0.7143,-0.7143,-0.7143,-0.7143,-0.7143,-0.7143,-0.7143,-0.7163,-0.7272,-0.7333,-0.74,-0.7502,-0.7638,-0.7787,-0.7936,-0.8004,-0.8038,-0.8038,-0.8038,-0.8038,-0.8038,-0.7828,0.0,0.0,0.0,0.0,0.0,-0.7387,-0.7475,0.0,-0.7638,0.0,0.0,0.0,0.0,0.0,0.0,0.0,0.0,-0.8194,0.0,-0.8635,-0.8791,-0.896,-0.9157,-0.9361,-0.9544,-0.9686,-0.9842,-0.993,-0.9985,-1.0086,-1.0215,-1.0351,-1.0351,-1.0466,-1.0649,-1.0649,-1.0677,-1.0724,-1.0738,-0.9933,-0.8723,-1.3835,-1.3221,-1.273,-1.2562,-1.191,-1.1036,-0.9984,-0.9579,-0.8979,-0.7709,-0.7394,-0.7272,-0.7149,-0.7061,0.0,-0.7136,-0.7143,-0.7143,-0.7143,-0.7143,-0.7143,-0.7143,-0.7054,-0.7048,-0.7136,0.0,0.0,-0.6783,-0.6729,-0.6681,-0.6647,-0.6681,-0.6681,-0.6654,-0.6675,-0.68,-0.681,-0.7059,-0.7128,-0.7128,-0.7128,-0.7088,-0.7074,-0.7074,-0.7061,-0.7143,-0.7143,-0.7143,-0.7143,-0.7143,-0.7143,-0.7143,-0.7143,-0.7143,-0.7143,-0.7143,-0.7143,-0.7143,-0.7143,-0.7143,-0.7177,-0.7333,-0.7414,-0.7509,-0.7719,-0.7834,-0.7923,-0.8018,-0.8038,-0.8038,-0.8038,-0.8038,-0.8038,-0.8038,-0.7834,-0.7658,-0.7604,0.0,0.0,0.0,0.0,0.0,0.0,-0.7706,0.0,0.0,0.0,0.0,0.0,0.0,0.0,-0.8093,-0.8404,0.0,-0.8804,-0.9008,-0.9178,-0.9327,-0.9571,-0.9734,-0.9829,-0.9861,-0.9901,-0.9978,-1.0195,-1.0337,-1.0419,-1.0473,-1.0582,-1.0717,-1.0717,-1.0717,-1.0724,-1.0738,-1.0744,-1.0352,-1.2949,-1.2632,0.0,0.0,-1.1714,0.0,-1.0088,-1.0061,-0.9485,-0.7625,-0.7502,-0.7468,-0.717,-0.7143,-0.7143,-0.7143,0.0,0.0,0.0,-0.7143,-0.7143,-0.7143,-0.7143,-0.7143,-0.7143,-0.7143,-0.7068,-0.6926,-0.6776,-0.6776,-0.6912,-0.6776,-0.679,-0.6926,-0.6939,-0.6946,-0.6953,-0.7082,-0.7143,-0.7143,-0.7143,-0.7143,-0.7143,-0.7143,-0.7143,-0.7143,-0.7143,-0.7143,-0.7143,-0.7143,-0.7143,-0.7143,-0.7143,-0.7143,-0.7143,-0.7143,-0.7143,-0.7143,-0.7149,-0.7156,-0.7197,-0.736,-0.7516,-0.7699,-0.7977,-0.8038,-0.8038,-0.8038,-0.8038,-0.8038,-0.8038,-0.8038,-0.8038,-0.8038,-0.7909,-0.776,-0.7617,0.0,0.0,0.0,0.0,0.0,0.0,-0.7821,-0.7834,0.0,0.0,0.0,0.0,0.0,-0.7942,-0.7818,-0.8327,-0.8732,-0.889,-0.9266,-0.9476,-0.9625,-0.9754,-0.9829,-0.9842,-0.9757,-0.9875,-0.9883,-1.0195,-1.0324,-1.0324,-1.0453,-1.0595,-1.0717,-1.0717,-1.0717,-1.0717,-1.0717,-1.0731,-1.0751,0.0,0.0,-1.4423,-1.4469,-1.4482,-1.3776,-1.1732,-1.1153,-1.0175,-0.7837,-0.7475,-0.7353,-0.7163,-0.7143,-0.7143,-0.7143,-0.7143,-0.7143,-0.7143,-0.7143,-0.7143,-0.7143,-0.7143,-0.7143,-0.7143,-0.7143,-0.7068,-0.6926,-0.6776,-0.6722,-0.6756,-0.6837,-0.6892,-0.6932,-0.7041,-0.7088,-0.7095,-0.7129,-0.7143,-0.7143,-0.7143,-0.7143,-0.7143,-0.7143,-0.7143,-0.7143,-0.7143,-0.7143,-0.7143,-0.7143,-0.7143,-0.7143,-0.7143,-0.7143,-0.7143,-0.7143,-0.7143,-0.717,-0.7285,-0.7319,-0.738,-0.7645,-0.7821,-0.795,-0.8024,-0.8038,-0.8038,-0.8038,-0.8038,-0.8038,-0.8038,-0.8038,-0.8038,-0.8038,-0.7909,-0.776,-0.7617,-0.757,0.0,0.0,-0.7624,-0.7773,-0.7807,-0.7916,-0.7939,0.0,0.0,0.0,0.0,0.0,-0.6098,-0.8594,-0.7374,-0.7573,-0.9279,-0.9462,-0.9625,-0.9774,-0.9802,-0.9883,-0.9998,-0.9915,-1.0035,-1.0337,-1.0419,-1.0514,-1.0616,-1.0649,-1.0683,-1.0717,-1.0717,-1.0717,-1.0717,-1.0717,-1.0724,-1.0731,-1.4469,-1.4656,-1.4856,-1.515,-1.5204,-1.4444,-1.2035,-1.1482,-1.0464,-0.798,-0.7529,-0.7387,-0.7163,-0.7143,-0.717,-0.7238,-0.7244,-0.7217,-0.7143,-0.7204,-0.7217,-0.7143,-0.7143,-0.7143,-0.7143,-0.7143,-0.7102,-0.7027,-0.6939,-0.6898,-0.6905,-0.6987,-0.7027,-0.7027,-0.7109,-0.7143,-0.7143,-0.7143,-0.7143,-0.7143,-0.7143,-0.7143,-0.7143,-0.7143,-0.7143,-0.7143,-0.7143,-0.7143,-0.7143,-0.7143,-0.7143,-0.7143,-0.7143,-0.7143,-0.7156,-0.7224,-0.7244,-0.7265,-0.7346,-0.7421,-0.7529,-0.7753,-0.7929,-0.8038,-0.8038,-0.8038,-0.8038,-0.8038,-0.8038,-0.8038,-0.8038,-0.8038,-0.8038,-0.8038,-0.7909,-0.7787,-0.7706,-0.7638,0.0,-0.7672,-0.7821,-0.797,-0.8106,-0.8194,-0.818,-0.8273,0.0,0.0,-0.646,-0.4997,-0.5609,-0.8756,-0.8088,-0.828,-0.9621,-0.9639,-0.9747,-0.9822,-0.989,-0.993,-0.9951,-1.0049,-1.0276,-1.0304,-1.0521,-1.0616,-1.0622,-1.069,-1.0717,-1.0717,-1.0717,-1.0717,-1.0717,-1.0717,-1.0717,-1.0717,-1.4402,-1.4522,-1.4669,-1.4923,-1.5003,-1.4371,-1.2183,-1.1616,-1.0594,-0.8204,-0.7725,-0.7522,-0.7238,-0.721,-0.7265,-0.7394,-0.7428,-0.7373,-0.7217,-0.7292,-0.7285,-0.7177,-0.7149,-0.7143,-0.7143,-0.7143,-0.7143,-0.7143,-0.7143,-0.7143,-0.7143,-0.7143,-0.7143,-0.7143,-0.7143,-0.7143,-0.7143,-0.7143,-0.7143,-0.7143,-0.7143,-0.7143,-0.7143,-0.7143,-0.7143,-0.7143,-0.7143,-0.7143,-0.7143,-0.7143,-0.7143,-0.7143,-0.7143,-0.7156,-0.7204,-0.7333,-0.74,-0.7441,-0.7441,-0.755,-0.7692,-0.7814,-0.7943,-0.8038,-0.8038,-0.8038,-0.8038,-0.8038,-0.8038,-0.8038,-0.8038,-0.8038,-0.8038,-0.8038,-0.7929,-0.7834,-0.7814,0.0,-0.776,-0.8011,-0.8058,-0.8187,-0.8486,-0.852,-0.8533,-0.8581,-0.871,-0.758,0.0,-0.4651,-0.5965,-0.899,-0.9339,-0.9659,-0.9792,-0.9795,-0.9856,-0.9856,-1.0012,-1.0025,-0.9937,-1.0196,-1.0243,-1.0168,-1.0548,-1.0643,-1.0534,-1.0663,-1.0717,-1.0717,-1.0717,-1.0717,-1.0717,-1.0717,-1.0717,-1.0717,-1.4148,-1.4549,-1.491,-1.495,-1.5164,-1.4955,-1.3683,-1.2384,-1.1019,-0.9681,-0.8446,-0.7712,-0.755,-0.7529,-0.7536,-0.7563,-0.7672,-0.7685,-0.7536,-0.7305,-0.7224,-0.7333,-0.721,-0.7143,-0.7143,-0.7143,-0.7143,-0.7143,-0.7143,-0.7143,-0.7143,-0.7143,-0.7143,-0.7143,-0.7143,-0.7143,-0.7143,-0.7143,-0.7143,-0.7143,-0.7143,-0.7143,-0.7143,-0.7143,-0.7143,-0.7143,-0.7143,-0.7143,-0.7143,-0.7143,-0.7143,-0.7143,-0.7143,-0.7231,-0.7339,-0.7366,-0.755,-0.774,-0.774,-0.7855,-0.7977,-0.7997,-0.8024,-0.8038,-0.8038,-0.8038,-0.8038,-0.8038,-0.8038,-0.8038,-0.8038,-0.8038,-0.8038,-0.8038,-0.8018,-0.7957,-0.7828,0.0,-0.7991,-0.8031,-0.8153,-0.835,-0.8648,-0.8676,-0.8675,-0.8825,-0.8864,-0.883,-0.8621,-0.6147,-0.6318,-0.9551,-0.9751,-0.9713,-0.9795,-0.9937,-1.0012,-1.0019,-1.0168,-1.0297,-1.0385,-1.0344,-1.0432,-1.0616,-1.0555,-1.0588,-1.0683,-1.0711,-1.0717,-1.0717,-1.0717,-1.0717,-1.0717,-1.0717,-1.0717,-1.0717,-1.4496,-1.4696,-1.4843,-1.495,-1.5164,-1.4799,-1.3365,-1.2156,-1.0865,-0.9656,-0.8519,-0.7753,-0.7617,-0.7597,-0.7631,-0.7706,-0.7706,-0.774,-0.7828,-0.7624,-0.7461,-0.7373,-0.7299,-0.7265,-0.7265,-0.7183,-0.7183,-0.7265,-0.7183,-0.7143,-0.7143,-0.7143,-0.7143,-0.7143,-0.7143,-0.7143,-0.7143,-0.7143,-0.7143,-0.7143,-0.7143,-0.7143,-0.7143,-0.7143,-0.7143,-0.7143,-0.7143,-0.7143,-0.7149,-0.7238,-0.7265,-0.7278,-0.736,-0.7434,-0.7509,-0.7584,-0.7706,-0.7828,-0.7909,-0.7984,-0.8038,-0.8038,-0.8038,-0.8038,-0.8038,-0.8038,-0.8038,-0.8038,-0.8038,-0.8038,-0.8038,-0.8038,-0.8065,-0.8147,-0.8092,0.0,0.0,-0.8119,-0.8194,-0.8269,-0.8486,-0.8716,-0.8927,-0.9022,-0.913,-0.9164,-0.9171,-0.9252,-0.9426,-0.8153,-0.809,-0.9754,-0.9761,-0.9781,-0.9822,-0.9971,-1.0046,-1.0053,-1.0283,-1.0385,-1.0378,-1.0473,-1.0548,-1.0595,-1.0609,-1.0656,-1.0717,-1.0717,-1.0717,-1.0717,-1.0717,-1.0717,-1.0717,-1.0717,-1.0717,-1.0717,-1.4763,-1.479,-1.479,-1.4937,-1.5084,-1.4708,-1.3493,-1.2293,-1.1119,-1.0023,-0.8933,-0.8111,-0.7712,-0.7699,-0.7746,-0.7855,-0.7767,-0.7801,-0.8024,-0.7929,-0.7733,-0.7441,-0.7353,-0.7333,-0.7373,-0.7217,-0.7197,-0.7319,-0.7197,-0.7143,-0.7143,-0.7143,-0.7143,-0.7143,-0.7143,-0.7143,-0.7143,-0.7143,-0.7143,-0.7143,-0.7143,-0.7143,-0.7143,-0.7143,-0.7143,-0.7143,-0.7143,-0.7163,-0.721,-0.7333,-0.7394,-0.7448,-0.7563,-0.7624,-0.7672,-0.778,-0.7834,-0.7889,-0.8011,-0.8038,-0.8038,-0.8038,-0.8038,-0.8038,-0.8038,-0.8038,-0.8052,-0.8085,-0.8092,-0.8106,-0.814,-0.814,-0.8174,-0.8255,0.0,0.0,0.0,-0.8296,-0.8384,-0.8567,-0.8798,-0.9022,-0.9239,-0.9367,-0.9449,-0.9483,-0.9483,-0.9544,-0.9553,-0.9593,-0.968,-0.9951,-0.9869,-0.9822,-0.9822,-1.0012,-1.01,-1.0107,-1.0405,-1.0487,-1.0392,-1.0616,-1.0656,-1.0555,-1.067,-1.0717,-1.0717,-1.0717,-1.0717,-1.0717,-1.0717,-1.0717,-1.0717,-1.0717,-1.0717,-1.0717,-1.4496,-1.4763,-1.495,-1.4963,-1.4977,-1.507,-1.5206,-1.3902,-1.2537,-1.1839,-1.0654,-0.9387,-0.8103,-0.8011,-0.8011,-0.8024,-0.8011,-0.8018,-0.8038,-0.8031,-0.7889,-0.7597,-0.7312,-0.7224,-0.7366,-0.7217,-0.7143,-0.7156,-0.7143,-0.7143,-0.7143,-0.7143,-0.7143,-0.7143,-0.7143,-0.7143,-0.7143,-0.7143,-0.7143,-0.7143,-0.7143,-0.7143,-0.7143,-0.7143,-0.7143,-0.7143,-0.7143,-0.7231,-0.7353,-0.7366,-0.7468,-0.7584,-0.7597,-0.7692,-0.7794,-0.7807,-0.7909,-0.8024,-0.8038,-0.8038,-0.8038,-0.8038,-0.8038,-0.8038,-0.8038,-0.8038,-0.8079,-0.8221,-0.8255,-0.8296,-0.8425,-0.8452,-0.8411,-0.8289,0.0,0.0,-0.8289,-0.8384,-0.8574,-0.8872,-0.8927,-0.911,-0.9537,-0.9585,-0.9646,-0.9781,-0.9788,-0.9795,-0.9808,-0.9944,-1.0093,-1.0243,-0.9971,-0.9822,-0.9822,-1.0114,-1.0263,-1.0263,-1.0561,-1.0697,-1.069,-1.0711,-1.0711,-1.0704,-1.0717,-1.0717,-1.0717,-1.0717,-1.0717,-1.0717,-1.0717,-1.0717,-1.0717,-1.0717,-1.0717,-1.0717,-1.4736,-1.4977,-1.5164,-1.5217,-1.5177,-1.5137,-1.5124,-1.3401,-1.2005,-1.1707,-0.9917,-0.8528,-0.8038,-0.8038,-0.8038,-0.8038,-0.8038,-0.8038,-0.8038,-0.795,-0.7848,-0.7733,-0.7536,-0.7495,-0.7638,-0.7502,-0.7428,-0.7428,-0.7333,-0.7238,-0.7143,-0.7143,-0.7143,-0.7143,-0.7143,-0.7143,-0.7143,-0.7143,-0.7143,-0.7143,-0.7143,-0.7143,-0.7143,-0.7143,-0.7143,-0.7149,-0.7251,-0.7319,-0.74,-0.7584,-0.7685,-0.7746,-0.7841,-0.7909,-0.795,-0.795,-0.7991,-0.8038,-0.8038,-0.8038,-0.8038,-0.8038,-0.8038,-0.8038,-0.8038,-0.8113,-0.8201,-0.8255,-0.8343,-0.8418,-0.8472,-0.8479,-0.8499,-0.8533,0.0,-0.8526,-0.8669,-0.873,-0.8736,-0.8838,-0.9144,-0.9332,-0.9513,-0.9593,-0.9781,-0.9836,-0.9829,-0.9822,-0.9822,-0.9964,-1.012,-1.0276,-1.0168,-1.0107,-1.0107,-1.031,-1.0412,-1.0412,-1.0622,-1.0717,-1.0717,-1.0717,-1.0717,-1.0717,-1.0717,-1.0717,-1.0717,-1.0717,-1.0717,-1.0717,-1.0717,-1.0717,-1.0717,-1.0717,-1.0717,-1.0717,-1.4883,-1.507,-1.5204,-1.5364,-1.5337,-1.5244,-1.5124,-1.3761,-1.2476,-1.1697,-1.0201,-0.8924,-0.8137,-0.8038,-0.8038,-0.8038,-0.8038,-0.8038,-0.8038,-0.7943,-0.7862,-0.7814,-0.7678,-0.7665,-0.7807,-0.7672,-0.7597,-0.7597,-0.7448,-0.7319,-0.721,-0.7163,-0.7143,-0.7143,-0.7143,-0.7143,-0.7143,-0.7143,-0.7143,-0.7143,-0.7143,-0.7143,-0.7143,-0.719,-0.721,-0.7231,-0.7387,-0.7468,-0.7543,-0.774,-0.7841,-0.7902,-0.8004,-0.8038,-0.8038,-0.8038,-0.8072,-0.8113,-0.8113,-0.8147,-0.8167,-0.8126,-0.8147,-0.818,-0.818,-0.8262,-0.835,-0.8397,-0.8486,-0.8567,-0.8615,-0.8662,-0.8696,-0.871,-0.8743,-0.8804,-0.892,-0.9022,-0.9024,-0.9063,-0.9386,-0.9533,-0.9473,-0.9674,-0.9842,-0.9842,-0.9829,-0.9863,-0.9958,-1.0066,-1.0215,-1.0412,-1.0371,-1.0371,-1.0419,-1.0466,-1.0493,-1.0493,-1.0649,-1.0717,-1.0717,-1.0717,-1.0717,-1.0717,-1.0717,-1.0717,-1.0717,-1.0717,-1.0717,-1.0717,-1.0717,-1.0717,-1.0717,-1.0717,-1.0717,-1.0717,-1.4843,-1.4963,-1.5057,-1.5351,-1.5404,-1.5404,-1.5404,-1.5404,-1.4553,-1.2211,-1.195,-1.0877,-0.8336,-0.8038,-0.8038,-0.8038,-0.8038,-0.8038,-0.8038,-0.8038,-0.797,-0.7821,-0.7678,-0.7672,-0.7807,-0.7678,-0.7604,-0.7597,-0.7448,-0.7373,-0.7366,-0.721,-0.7143,-0.7143,-0.7143,-0.7143,-0.7143,-0.7143,-0.7143,-0.7143,-0.7143,-0.7143,-0.7163,-0.7312,-0.7373,-0.7394,-0.755,-0.7692,-0.7814,-0.7814,-0.7916,-0.8038,-0.8038,-0.8038,-0.8038,-0.8038,-0.8147,-0.8269,-0.8275,-0.8377,-0.8452,-0.8309,-0.8377,-0.8479,-0.8479,-0.8486,-0.8526,-0.8682,-0.8716,-0.8764,-0.8913,-0.9055,-0.9062,-0.8764,-0.9089,-0.9279,-0.8988,-0.9198,-0.9442,-0.9591,-0.9612,-0.9666,-0.9808,-0.9822,-0.9822,-0.9822,-0.9822,-0.9958,-1.0263,-1.0283,-1.0419,-1.0711,-1.0575,-1.0568,-1.0717,-1.0568,-1.0493,-1.0493,-1.0649,-1.0717,-1.0717,-1.0717,-1.0717,-1.0717,-1.0717,-1.0717,-1.0717,-1.0717,-1.0717,-1.0717,-1.0717,-1.0717,-1.0717,-1.0717,-1.0717,-1.0717,-1.4616,-1.499,-1.5297,-1.5378,-1.5565,-1.5698,-1.5698,-1.4918,-1.4088,-1.338,-1.1745,-1.0288,-0.9509,-0.8528,-0.8038,-0.8038,-0.8038,-0.8038,-0.8038,-0.8038,-0.8018,-0.797,-0.7929,-0.7929,-0.797,-0.7929,-0.7807,-0.7597,-0.7556,-0.7421,-0.721,-0.7163,-0.7197,-0.7299,-0.7299,-0.736,-0.7461,-0.7461,-0.7461,-0.7461,-0.7461,-0.7461,-0.7468,-0.7516,-0.7529,-0.755,-0.7699,-0.7773,-0.7828,-0.7936,-0.7997,-0.8038,-0.8038,-0.8038,-0.8058,-0.8167,-0.8235,-0.8289,-0.8391,-0.8526,-0.8608,-0.8459,-0.8452,-0.8479,-0.8479,-0.8567,-0.8682,-0.8838,-0.8954,-0.9069,-0.9218,-0.9286,-0.9286,-0.9198,-0.9293,-0.9388,-0.9408,-0.9483,-0.9598,-0.9761,-0.9781,-0.9808,-0.9754,-0.9856,-0.9842,-0.9842,-0.993,-1.0114,-1.0412,-1.0426,-1.0521,-1.0711,-1.0677,-1.0677,-1.0717,-1.0677,-1.0649,-1.0656,-1.0697,-1.0717,-1.0717,-1.0717,-1.0717,-1.0717,-1.0717,-1.0717,-1.0717,-1.0717,-1.0717,-1.0717,-1.0717,-1.0717,-1.0717,-1.0717,-1.0717,-1.0717,-1.4496,-1.4897,-1.5257,-1.5378,-1.5631,-1.5832,-1.5832,-1.514,-1.4268,-1.3199,-1.1745,-1.0386,-0.9312,-0.8528,-0.8038,-0.8038,-0.8038,-0.8038,-0.8038,-0.8038,-0.8038,-0.8038,-0.8038,-0.8038,-0.8038,-0.8038,-0.795,-0.7773,-0.7712,-0.7556,-0.7319,-0.7258,-0.7285,-0.7373,-0.7373,-0.7455,-0.7597,-0.7597,-0.7597,-0.7597,-0.7597,-0.7597,-0.7604,-0.7658,-0.7685,-0.7699,-0.7848,-0.7902,-0.7916,-0.8011,-0.8038,-0.8038,-0.8038,-0.8079,-0.8147,-0.8241,-0.835,-0.8465,-0.8547,-0.8723,-0.8866,-0.8771,-0.8703,-0.8676,-0.8737,-0.8818,-0.8927,-0.9083,-0.9184,-0.9273,-0.9361,-0.9429,-0.9449,-0.9395,-0.9483,-0.9564,-0.9605,-0.9659,-0.9734,-0.9829,-0.9842,-0.9849,-0.9747,-0.991,-0.9958,-1.0019,-1.0148,-1.0304,-1.048,-1.0548,-1.0622,-1.0717,-1.0717,-1.0717,-1.0717,-1.0717,-1.0717,-1.0717,-1.0717,-1.0717,-1.0717,-1.0717,-1.0717,-1.0717,-1.0717,-1.0717,-1.0717,-1.0717,-1.0717,-1.0717,-1.0717,-1.0717,-1.0717,-1.0717,-1.0717,-1.0717,-1.4429,-1.4723,-1.5017,-1.5311,-1.5498,-1.5602,-1.5629,-1.5534,-1.4567,-1.2242,-1.1755,-1.0779,-0.8428,-0.8038,-0.8038,-0.8038,-0.8038,-0.8038,-0.8038,-0.8038,-0.8038,-0.8038,-0.8038,-0.8038,-0.8038,-0.8038,-0.8031,-0.8018,-0.7882,-0.774,-0.7597,-0.7455,-0.74,-0.7407,-0.7407,-0.7495,-0.7638,-0.7638,-0.7638,-0.7638,-0.7638,-0.7638,-0.7651,-0.778,-0.7834,-0.7848,-0.7991,-0.8038,-0.8038,-0.8038,-0.8038,-0.8038,-0.8058,-0.816,-0.8275,-0.8303,-0.8499,-0.8716,-0.873,-0.894,-0.915,-0.915,-0.9062,-0.9015,-0.9144,-0.9171,-0.9218,-0.9367,-0.9401,-0.9408,-0.9415,-0.9537,-0.9585,-0.9442,-0.9646,-0.9774,-0.9646,-0.9754,-0.9842,-0.9842,-0.9856,-0.9863,-0.9863,-0.9985,-1.0134,-1.029,-1.0419,-1.05,-1.0514,-1.0643,-1.0717,-1.0717,-1.0717,-1.0717,-1.0717,-1.0717,-1.0717,-1.0717,-1.0717,-1.0717,-1.0717,-1.0717,-1.0717,-1.0717,-1.0717,-1.0717,-1.0717,-1.0717,-1.0717,-1.0717,-1.0717,-1.0717,-1.0724,-1.0738,-1.0731,-1.0724,-1.4175,-1.4416,-1.471,-1.5003,-1.4444,-1.4026,-1.4232,-1.3403,-1.2533,-1.195,-1.1072,-1.019,-0.9608,-0.8627,-0.8038,-0.8038,-0.8038,-0.8038,-0.8038,-0.8038,-0.8038,-0.8038,-0.8038,-0.8038,-0.8038,-0.8038,-0.7984,-0.7862,-0.7828,-0.774,-0.7597,-0.7563,-0.7611,-0.7719,-0.7719,-0.7801,-0.7943,-0.7943,-0.7943,-0.7943,-0.7943,-0.7943,-0.795,-0.7977,-0.7991,-0.7991,-0.8024,-0.8038,-0.8038,-0.8038,-0.8038,-0.8058,-0.818,-0.8241,-0.8316,-0.8547,-0.8662,-0.8737,-0.8859,-0.9015,-0.915,-0.915,-0.9218,-0.9293,-0.9327,-0.9334,-0.9374,-0.953,-0.9557,-0.9591,-0.9707,-0.9754,-0.9768,-0.9734,-0.9781,-0.9808,-0.9781,-0.9903,-0.9998,-0.9998,-1.0107,-1.0181,-1.0181,-1.0209,-1.029,-1.0432,-1.0473,-1.0548,-1.0663,-1.0704,-1.0717,-1.0717,-1.0717,-1.0717,-1.0717,-1.0717,-1.0717,-1.0717,-1.0717,-1.0717,-1.0717,-1.0717,-1.0717,-1.0717,-1.0717,-1.0717,-1.0717,-1.0717,-1.0717,-1.0717,-1.0717,-1.0717,-1.0731,-1.0853,-1.0826,-1.0738,-1.4082,-1.4429,-1.4736,-1.475,-1.4093,-1.3673,-1.3684,-1.2641,-1.1658,-1.1072,-1.0386,-0.9805,-0.9114,-0.8428,-0.8038,-0.8038,-0.8038,-0.8038,-0.8038,-0.8038,-0.8038,-0.8038,-0.8038,-0.8038,-0.8038,-0.8038,-0.7997,-0.7923,-0.7923,-0.7841,-0.7699,-0.7699,-0.774,-0.7814,-0.7814,-0.7896,-0.8038,-0.8038,-0.8038,-0.8038,-0.8038,-0.8038,-0.8038,-0.8038,-0.8038,-0.8038,-0.8038,-0.8038,-0.8038,-0.8038,-0.8092,-0.8167,-0.8248,-0.837,-0.8513,-0.8662,-0.8764,-0.8838,-0.892,-0.9096,-0.9259,-0.9259,-0.9429,-0.9571,-0.9503,-0.949,-0.953,-0.968,-0.9707,-0.9734,-0.9808,-0.9883,-0.9903,-0.9836,-0.9944,-1.0012,-0.9937,-1.0059,-1.0161,-1.0161,-1.0229,-1.031,-1.0378,-1.0378,-1.0439,-1.0588,-1.0602,-1.0636,-1.0717,-1.0717,-1.0717,-1.0717,-1.0717,-1.0717,-1.0717,-1.0717,-1.0717,-1.0717,-1.0717,-1.0717,-1.0717,-1.0717,-1.0717,-1.0717,-1.0717,-1.0717,-1.0717,-1.0717,-1.0717,-1.0717,-1.0717,-1.0717,-1.0731,-1.0812,-1.0833,-1.0853,-1.4082,-1.4482,-1.475,-1.4549,-1.3902,-1.3259,-1.3134,-1.2045,-1.083,-0.9797,-0.9706,-0.9213,-0.8137,-0.8038,-0.8038,-0.8038,-0.8038,-0.8038,-0.8038,-0.8038,-0.8038,-0.8038,-0.8038,-0.8038,-0.8038,-0.8038,-0.8038,-0.8038,-0.8038,-0.7977,-0.7848,-0.7848,-0.7848,-0.7848,-0.7848,-0.7923,-0.8038,-0.8038,-0.8038,-0.8038,-0.8038,-0.8038,-0.8038,-0.8038,-0.8038,-0.8038,-0.8038,-0.8038,-0.8045,-0.8072,-0.8167,-0.8282,-0.833,-0.8513,-0.8716,-0.8743,-0.8838,-0.8947,-0.8967,-0.9178,-0.9388,-0.9415,-0.9625,-0.9795,-0.9707,-0.9666,-0.9686,-0.9829,-0.9863,-0.9869,-0.9897,-1.0005,-1.0046,-0.9917,-1.0114,-1.0236,-1.0107,-1.0222,-1.0317,-1.0317,-1.0337,-1.0399,-1.0521,-1.0527,-1.0582,-1.0711,-1.0717,-1.0717,-1.0717,-1.0717,-1.0717,-1.0717,-1.0717,-1.0717,-1.0717,-1.0717,-1.0717,-1.0717,-1.0717,-1.0717,-1.0717,-1.0717,-1.0717,-1.0717,-1.0717,-1.0717,-1.0717,-1.0717,-1.0717,-1.0717,-1.0717,-1.0738,-1.0765,-1.0785,-1.0894,-1.1043,-1.4082,-1.4148,-1.4269,-1.4482,-1.2638,-1.1384,-1.1734,-0.9827,-0.8369,-0.8315,-0.8237,-0.8237,-0.8038,-0.8038,-0.8038,-0.8038,-0.8038,-0.8038,-0.8038,-0.8038,-0.8038,-0.8038,-0.8038,-0.8038,-0.8038,-0.8038,-0.8038,-0.8038,-0.8038,-0.8031,-0.8011,-0.8011,-0.8011,-0.8011,-0.8011,-0.8018,-0.8038,-0.8038,-0.8038,-0.8038,-0.8038,-0.8038,-0.8038,-0.8038,-0.8038,-0.8038,-0.8038,-0.8038,-0.8058,-0.8194,-0.8255,-0.8316,-0.8567,-0.8676,-0.8737,-0.8866,-0.892,-0.8967,-0.9089,-0.9252,-0.9415,-0.9544,-0.97,-0.9849,-0.9964,-0.989,-0.9836,-0.9985,-1.0019,-1.0059,-1.0195,-1.0236,-1.0243,-1.0222,-1.0256,-1.0276,-1.0249,-1.0371,-1.0466,-1.0466,-1.0582,-1.067,-1.0683,-1.069,-1.0697,-1.0717,-1.0717,-1.0717,-1.0717,-1.0717,-1.0717,-1.0717,-1.0717,-1.0717,-1.0717,-1.0717,-1.0717,-1.0717,-1.0717,-1.0717,-1.0717,-1.0717,-1.0717,-1.0717,-1.0717,-1.0717,-1.0717,-1.0717,-1.0717,-1.0717,-1.0717,-1.0799,-1.0934,-1.1056,-1.1199,-1.1335,-1.4082,-1.4215,-1.4137,-1.3385,-1.2037,-1.0928,-1.037,-0.8894,-0.7868,-0.8018,-0.8038,-0.8038,-0.8038,-0.8038,-0.8038,-0.8038,-0.8038,-0.8038,-0.8038,-0.8038,-0.8038,-0.8038,-0.8038,-0.8038,-0.8038,-0.8038,-0.8038,-0.8038,-0.8038,-0.8038,-0.8038,-0.8038,-0.8038,-0.8038,-0.8038,-0.8038,-0.8038,-0.8038,-0.8038,-0.8038,-0.8038,-0.8038,-0.8038,-0.8038,-0.8038,-0.8052,-0.814,-0.8167,-0.8187,-0.8336,-0.8445,-0.854,-0.8669,-0.8771,-0.8852,-0.892,-0.8994,-0.9076,-0.9137,-0.9327,-0.9523,-0.9591,-0.9713,-0.9836,-0.991,-0.9937,-0.9971,-1.0032,-1.0046,-1.0073,-1.0141,-1.029,-1.0371,-1.029,-1.0419,-1.0493,-1.0412,-1.0527,-1.0622,-1.0622,-1.0677,-1.0717,-1.0717,-1.0717,-1.0717,-1.0717,-1.0717,-1.0717,-1.0717,-1.0717,-1.0717,-1.0717,-1.0717,-1.0717,-1.0717,-1.0717,-1.0717,-1.0717,-1.0717,-1.0717,-1.0717,-1.0717,-1.0717,-1.0717,-1.0717,-1.0717,-1.0717,-1.0717,-1.0717,-1.0717,-1.0717,-1.0812,-1.0975,-1.1206,-1.128,-1.1287]},{"header":{"parameterUnit":"m.s-1","parameterCategory":1,"la1":30.6,"la2":28.766,"lo1":-90.7593,"lo2":-88.6598,"dy":0.0162,"dx":0.0183,"nx":116,"ny":114,"refTime":"2023-04-13T00:00:00:Z","depth":0,"parameterNumber":3,"parameterNumberName":"V-component_of_WINDS"},"data":[0.0,0.0,0.0,0.0,0.0,0.0,0.0,0.0,0.0,0.0,0.0,0.0,0.0,0.0,0.0,0.0,0.0,0.0,0.0,0.0,0.0,0.0,0.0,0.0,0.0,0.0,0.0,0.0,0.0,0.0,0.0,0.0,0.0,0.0,0.0,0.0,0.0,0.0,0.0,0.0,0.0,0.0,0.0,0.0,0.0,0.0,0.0,0.0,0.0,0.0,0.0,0.0,0.0,0.0,0.0,0.0,0.0,0.0,0.0,0.0,0.0,0.0,0.0,0.0,0.0,0.0,0.0,0.0,0.0,0.0,0.0,0.0,0.0,0.0,0.0,0.0,0.0,0.0,0.0,0.0,0.0,0.0,0.0,0.0,0.0,0.0,0.0,0.0,0.0,0.0,0.0,0.0,0.0,0.0,0.0,0.0,0.0,0.0,0.0,0.0,0.0,0.0,0.0,0.0,0.0,0.0,0.0,0.0,0.0,0.0,0.0,0.0,0.0,0.0,0.0,0.0,0.0,0.0,0.0,0.0,0.0,0.0,0.0,0.0,0.0,0.0,0.0,0.0,0.0,0.0,0.0,0.0,0.0,0.0,0.0,0.0,0.0,0.0,0.0,0.0,0.0,0.0,0.0,0.0,0.0,0.0,0.0,0.0,0.0,0.0,0.0,0.0,0.0,0.0,0.0,0.0,0.0,0.0,0.0,0.0,0.0,0.0,0.0,0.0,0.0,0.0,0.0,0.0,0.0,0.0,0.0,0.0,0.0,0.0,0.0,0.0,0.0,0.0,0.0,0.0,0.0,0.0,0.0,0.0,0.0,0.0,0.0,0.0,0.0,0.0,0.0,0.0,0.0,0.0,0.0,0.0,0.0,0.0,0.0,0.0,0.0,0.0,0.0,0.0,0.0,0.0,0.0,0.0,0.0,0.0,0.0,0.0,0.0,0.0,0.0,0.0,0.0,0.0,0.0,0.0,0.0,0.0,0.0,0.0,0.0,0.0,0.0,0.0,0.0,0.0,0.0,0.0,0.0,0.0,0.0,0.0,0.0,0.0,0.0,0.0,0.0,0.0,0.0,0.0,0.0,0.0,0.0,0.0,0.0,0.0,0.0,0.0,0.0,0.0,0.0,0.0,0.0,0.0,0.0,0.0,0.0,0.0,0.0,0.0,0.0,0.0,0.0,0.0,0.0,0.0,0.0,0.0,0.0,0.0,0.0,0.0,0.0,0.0,0.0,0.0,0.0,0.0,0.0,0.0,0.0,0.0,0.0,0.0,0.0,0.0,0.0,0.0,0.0,0.0,0.0,0.0,0.0,0.0,0.0,0.0,0.0,0.0,0.0,0.0,0.0,0.0,0.0,0.0,0.0,0.0,0.0,0.0,0.0,0.0,0.0,0.0,0.0,0.0,0.0,0.0,0.0,0.0,0.0,0.0,0.0,0.0,0.0,0.0,0.0,0.0,0.0,0.0,0.0,0.0,0.0,0.0,0.0,0.0,0.0,0.0,0.0,0.0,0.0,0.0,0.0,0.0,0.0,0.0,0.0,0.0,0.0,0.0,0.0,0.0,0.0,0.0,0.0,0.0,0.0,0.0,0.0,0.0,0.0,0.0,0.0,0.0,0.0,0.0,0.0,0.0,0.0,0.0,0.0,0.0,0.0,0.0,0.0,0.0,0.0,0.0,0.0,0.0,0.0,0.0,0.0,0.0,0.0,0.0,0.0,0.0,0.0,0.0,0.0,0.0,0.0,0.0,0.0,0.0,0.0,0.0,0.0,0.0,0.0,0.0,0.0,0.0,0.0,0.0,0.0,0.0,0.0,0.0,0.0,0.0,0.0,0.0,0.0,0.0,0.0,0.0,0.0,0.0,0.0,0.0,0.0,0.0,0.0,0.0,0.0,0.0,0.0,0.0,0.0,0.0,0.0,0.0,0.0,0.0,0.0,0.0,0.0,0.0,0.0,0.0,0.0,0.0,0.0,0.0,0.0,0.0,0.0,0.0,0.0,0.0,0.0,0.0,0.0,0.0,0.0,0.0,0.0,0.0,0.0,0.0,0.0,0.0,0.0,0.0,0.0,0.0,0.0,0.0,0.0,0.0,0.0,0.0,0.0,0.0,0.0,0.0,0.0,0.0,0.0,0.0,0.0,0.0,0.0,0.0,0.0,0.0,0.0,0.0,0.0,0.0,0.0,0.0,0.0,0.0,0.0,0.0,0.0,0.0,0.0,0.0,0.0,0.0,0.0,0.0,0.0,0.0,0.0,0.0,0.0,0.0,0.0,0.0,0.0,0.0,0.0,0.0,0.0,0.0,0.0,0.0,0.0,0.0,0.0,0.0,0.0,0.0,0.0,0.0,0.0,0.0,0.0,0.0,0.0,0.0,0.0,0.0,0.0,0.0,0.0,0.0,0.0,0.0,0.0,0.0,0.0,0.0,0.0,0.0,0.0,0.0,0.0,0.0,0.0,0.0,0.0,0.0,0.0,0.0,0.0,0.0,0.0,0.0,0.0,0.0,0.0,0.0,0.0,0.0,0.0,0.0,0.0,0.0,0.0,0.0,0.0,0.0,0.0,0.0,0.0,0.0,0.0,0.0,0.0,0.0,0.0,0.0,0.0,0.0,0.0,0.0,0.0,0.0,0.0,0.0,0.0,0.0,0.0,0.0,0.0,0.0,0.0,0.0,0.0,0.0,0.0,0.0,0.0,0.0,0.0,0.0,0.0,0.0,0.0,0.0,0.0,0.0,0.0,0.0,0.0,0.0,0.0,0.0,0.0,0.0,0.0,0.0,0.0,0.0,0.0,0.0,0.0,0.0,0.0,0.0,0.0,0.0,0.0,0.0,0.0,0.0,0.0,0.0,0.0,0.0,0.0,0.0,0.0,0.0,0.0,0.0,0.0,0.0,0.0,0.0,0.0,0.0,0.0,0.0,0.0,0.0,0.0,0.0,0.0,0.0,0.0,0.0,0.0,0.0,0.0,0.0,0.0,0.0,0.0,0.0,0.0,0.0,0.0,0.0,0.0,0.0,0.0,0.0,0.0,0.0,0.0,0.0,0.0,0.0,0.0,0.0,0.0,0.0,0.0,0.0,0.0,0.0,0.0,0.0,0.0,0.0,0.0,0.0,0.0,0.0,0.0,0.0,0.0,0.0,0.0,0.0,0.0,0.0,0.0,0.0,0.0,0.0,0.0,0.0,0.0,0.0,0.0,0.0,0.0,0.0,0.0,0.0,0.0,0.0,0.0,0.0,0.0,0.0,0.0,0.0,0.0,0.0,0.0,0.0,0.0,0.0,0.0,0.0,0.0,0.0,0.0,0.0,0.0,0.0,0.0,0.0,0.0,0.0,0.0,0.0,0.0,0.0,0.0,0.0,0.0,0.0,0.0,0.0,0.0,0.0,0.0,0.0,0.0,0.0,0.0,0.0,0.0,0.0,0.0,0.0,0.0,0.0,0.0,0.0,0.0,0.0,0.0,0.0,0.0,0.0,0.0,0.0,0.0,0.0,0.0,0.0,0.0,0.0,0.0,0.0,0.0,0.0,0.0,0.0,0.0,0.0,0.0,0.0,0.0,0.0,0.0,0.0,0.0,0.0,0.0,0.0,0.0,0.0,0.0,0.0,0.0,0.0,0.0,0.0,0.0,0.0,0.0,0.0,0.0,0.0,0.0,0.0,0.0,0.0,0.0,0.0,0.0,0.0,0.0,0.0,0.0,0.0,0.0,0.0,0.0,0.0,0.0,0.0,0.0,0.0,0.0,0.0,0.0,0.0,0.0,0.0,0.0,0.0,0.0,0.0,0.0,0.0,0.0,0.0,0.0,0.0,0.0,0.0,0.0,0.0,0.0,0.0,0.0,0.0,0.0,0.0,0.0,0.0,0.0,0.0,0.0,0.0,0.0,0.0,0.0,0.0,0.0,0.0,0.0,0.0,0.0,0.0,0.0,0.0,0.0,0.0,0.0,0.0,0.0,0.0,0.0,0.0,0.0,0.0,0.0,0.0,0.0,0.0,0.0,0.0,0.0,0.0,0.0,0.0,0.0,0.0,0.0,0.0,0.0,0.0,0.0,0.0,0.0,0.0,0.0,0.0,0.0,0.0,0.0,0.0,0.0,0.0,0.0,0.0,0.0,0.0,0.0,0.0,0.0,0.0,0.0,0.0,0.0,0.0,0.0,0.0,0.0,0.0,0.0,0.0,0.0,0.0,0.0,0.0,0.0,0.0,0.0,0.0,0.0,0.0,0.0,0.0,0.0,0.0,0.0,0.0,0.0,0.0,0.0,0.0,0.0,0.0,0.0,0.0,0.0,0.0,0.0,0.0,0.0,0.0,0.0,0.0,0.0,0.0,0.0,0.0,0.0,0.0,0.0,0.0,0.0,0.0,0.0,0.0,0.0,0.0,0.0,0.0,0.0,0.0,0.0,0.0,0.0,0.0,0.0,0.0,0.0,0.0,0.0,0.0,0.0,0.0,0.0,0.0,0.0,0.0,0.0,0.0,0.0,0.0,0.0,0.0,0.0,0.0,0.0,0.0,0.0,0.0,0.0,0.0,0.0,0.0,0.0,0.0,0.0,0.0,0.0,0.0,0.0,0.0,0.0,0.0,0.0,0.0,0.0,0.0,0.0,0.0,0.0,0.0,0.0,0.0,0.0,0.0,0.0,0.0,0.0,0.0,0.0,0.0,0.0,0.0,0.0,0.0,0.0,0.0,0.0,0.0,0.0,0.0,0.0,0.0,0.0,0.0,0.0,0.0,0.0,0.0,0.0,0.0,0.0,0.0,0.0,0.0,0.0,0.0,0.0,0.0,0.0,0.0,0.0,0.0,0.0,0.0,0.0,0.0,0.0,0.0,0.0,0.0,0.0,0.0,0.0,0.0,0.0,0.0,0.0,0.0,0.0,0.0,0.0,0.0,0.0,0.0,0.0,0.0,0.0,0.0,0.0,0.0,0.0,0.0,0.0,0.0,0.0,0.0,0.0,0.0,0.0,0.0,0.0,0.0,0.0,0.0,0.0,0.0,0.0,0.0,0.0,0.0,0.0,0.0,0.0,0.0,0.0,0.0,0.0,0.0,0.0,0.0,0.0,0.0,0.0,0.0,0.0,0.0,0.0,0.0,0.0,0.0,0.0,0.0,0.0,0.0,0.0,0.0,0.0,0.0,0.0,0.0,0.0,0.0,0.0,0.0,0.0,0.0,0.0,0.0,0.0,0.0,0.0,0.0,0.0,0.0,0.0,0.0,0.0,0.0,0.0,0.0,0.0,0.0,0.0,0.0,0.0,0.0,0.0,0.0,0.0,0.0,0.0,0.0,0.0,0.0,0.0,0.0,0.0,0.0,0.0,0.0,0.0,0.0,0.0,0.0,0.0,0.0,0.0,0.0,0.0,0.0,0.0,0.0,0.0,0.0,0.0,0.0,0.0,0.0,0.0,0.0,0.0,0.0,0.0,0.0,0.0,0.0,0.0,0.0,0.0,0.0,0.0,0.0,0.0,0.0,0.0,0.0,0.0,0.0,0.0,0.0,0.0,0.0,0.0,0.0,0.0,0.0,0.0,0.0,0.0,0.0,0.0,0.0,0.0,0.0,0.0,0.0,0.0,0.0,0.0,0.0,0.0,0.0,0.0,0.0,0.0,0.0,0.0,0.0,0.0,0.0,0.0,0.0,0.0,0.0,0.0,0.0,0.0,0.0,0.0,0.0,0.0,0.0,0.0,0.0,0.0,0.0,0.0,0.0,0.0,0.0,0.0,0.0,0.0,0.0,0.0,0.0,0.0,0.0,0.0,0.0,0.0,0.0,0.0,0.0,0.0,0.0,0.0,0.0,0.0,0.0,0.0,0.0,0.0,0.0,0.0,0.0,0.0,0.0,0.0,0.0,0.0,0.0,0.0,0.0,0.0,0.0,0.0,0.0,0.0,0.0,0.0,0.0,0.0,0.0,0.0,0.0,0.0,0.0,0.0,0.0,0.0,0.0,0.0,0.0,0.0,0.0,0.0,0.0,0.0,0.0,0.0,0.0,0.0,0.0,0.0,0.0,0.0,0.0,0.0,0.0,0.0,0.0,0.0,0.0,0.0,0.0,0.0,0.0,0.0,0.0,0.0,0.0,-3.613,0.0,0.0,0.0,0.0,0.0,0.0,0.0,0.0,0.0,0.0,0.0,0.0,0.0,0.0,0.0,0.0,0.0,0.0,0.0,0.0,0.0,0.0,0.0,0.0,0.0,0.0,0.0,0.0,0.0,0.0,0.0,0.0,0.0,0.0,0.0,0.0,0.0,0.0,-2.4804,-2.4943,-2.534,-2.5976,-2.7659,-2.8005,-2.7313,0.0,0.0,0.0,0.0,0.0,0.0,0.0,0.0,0.0,0.0,0.0,0.0,0.0,0.0,0.0,0.0,0.0,0.0,0.0,0.0,0.0,0.0,0.0,0.0,0.0,0.0,0.0,0.0,0.0,0.0,0.0,0.0,0.0,0.0,0.0,0.0,0.0,0.0,0.0,0.0,0.0,0.0,0.0,0.0,0.0,0.0,0.0,0.0,0.0,0.0,0.0,0.0,0.0,0.0,0.0,0.0,0.0,0.0,0.0,0.0,0.0,0.0,0.0,0.0,0.0,0.0,0.0,0.0,0.0,0.0,0.0,-3.7936,0.0,0.0,0.0,0.0,0.0,0.0,0.0,0.0,0.0,0.0,0.0,0.0,0.0,0.0,0.0,0.0,0.0,0.0,0.0,0.0,0.0,0.0,0.0,-2.2658,-2.3351,-2.3753,-2.4036,-2.419,0.0,0.0,0.0,0.0,0.0,0.0,-2.419,-2.4393,-2.4575,-2.4746,-2.5156,-2.6479,-2.8657,-3.0151,-2.9934,-2.8334,-2.934,0.0,0.0,0.0,0.0,0.0,0.0,0.0,0.0,0.0,0.0,0.0,0.0,0.0,0.0,0.0,0.0,0.0,0.0,0.0,0.0,0.0,0.0,0.0,0.0,0.0,0.0,0.0,0.0,0.0,0.0,0.0,0.0,0.0,0.0,0.0,0.0,0.0,0.0,0.0,0.0,0.0,0.0,0.0,0.0,0.0,0.0,0.0,0.0,0.0,0.0,0.0,0.0,0.0,0.0,0.0,0.0,0.0,0.0,0.0,0.0,0.0,0.0,0.0,0.0,-4.3508,-4.497,-4.5086,-4.5278,-4.5376,-4.3162,-4.1399,-4.012,0.0,0.0,0.0,0.0,0.0,0.0,0.0,0.0,0.0,0.0,0.0,0.0,0.0,0.0,0.0,0.0,0.0,0.0,0.0,0.0,-2.2473,-2.2928,-2.3094,-2.3455,-2.4056,-2.417,-2.419,-2.419,0.0,0.0,0.0,0.0,0.0,-2.419,-2.4393,-2.4493,-2.4526,-2.6059,-2.842,-3.1468,-3.241,-3.3583,-3.4878,-3.3144,-3.3622,-3.5545,0.0,0.0,0.0,0.0,0.0,0.0,0.0,0.0,0.0,0.0,0.0,0.0,0.0,0.0,0.0,0.0,0.0,0.0,0.0,0.0,0.0,0.0,0.0,0.0,0.0,0.0,0.0,0.0,0.0,0.0,0.0,0.0,0.0,0.0,0.0,0.0,0.0,0.0,0.0,0.0,0.0,-3.4083,-3.4199,0.0,0.0,0.0,0.0,0.0,0.0,0.0,0.0,0.0,0.0,0.0,0.0,0.0,0.0,-4.2239,-4.3816,-4.4701,-4.4932,-4.5855,-4.6778,-4.7586,-4.7741,-4.8548,-4.9817,-4.8702,0.0,-4.2713,-4.3002,0.0,0.0,0.0,0.0,0.0,0.0,0.0,0.0,0.0,0.0,0.0,0.0,0.0,0.0,0.0,0.0,0.0,0.0,0.0,0.0,0.0,-2.3894,-2.4338,-2.4831,-2.6539,-2.6796,-2.4997,-2.6135,0.0,0.0,0.0,-2.419,-2.419,-2.4303,-2.5042,-2.6507,-2.927,-3.1541,-3.3435,-3.5184,-3.6738,-3.7964,-3.7485,-3.7066,-3.6622,-3.5045,0.0,0.0,0.0,0.0,0.0,0.0,0.0,0.0,0.0,0.0,0.0,0.0,0.0,0.0,0.0,0.0,0.0,0.0,0.0,0.0,0.0,0.0,0.0,0.0,0.0,0.0,0.0,0.0,0.0,0.0,0.0,0.0,0.0,0.0,0.0,0.0,0.0,0.0,0.0,-3.5622,-3.6699,-3.5738,-3.7123,-3.7815,0.0,0.0,0.0,0.0,0.0,0.0,0.0,0.0,0.0,-4.1546,-4.3085,-4.4355,-4.524,-4.6894,-4.8202,-4.9163,-5.0548,-5.1625,-5.2395,-5.2951,-5.3567,-5.4241,-5.4357,-5.2895,-5.0183,-4.7353,-4.5995,-4.5572,0.0,0.0,0.0,0.0,0.0,-4.6562,0.0,0.0,0.0,0.0,0.0,0.0,0.0,0.0,0.0,0.0,0.0,0.0,-2.406,-2.4987,-2.5928,-2.6848,-2.8925,-2.9255,-2.7074,-2.764,-2.709,-2.4924,-2.441,-2.43,-2.4483,-2.5107,-2.6769,-2.9582,-3.2598,-3.4792,-3.6224,-3.8514,-4.0136,-4.1237,-4.2088,-4.1175,-3.8912,-3.7523,-3.6596,-3.5882,0.0,0.0,0.0,0.0,0.0,0.0,0.0,0.0,0.0,0.0,0.0,0.0,0.0,0.0,0.0,0.0,0.0,0.0,0.0,0.0,0.0,0.0,0.0,0.0,0.0,0.0,0.0,0.0,0.0,0.0,0.0,0.0,0.0,0.0,0.0,0.0,0.0,-3.6738,-3.8084,-3.6584,-3.8507,-3.9508,0.0,0.0,0.0,0.0,0.0,0.0,-4.2354,-4.3893,-4.5086,-4.5893,-4.6971,-4.7971,-4.8856,-5.051,-5.1972,-5.328,-5.4741,-5.5934,-5.6802,-5.7225,-5.7511,-5.778,-5.8165,-5.7726,-5.6403,-5.185,-4.9605,-4.8964,-4.8128,-4.7981,-4.8281,-4.871,-4.9367,-5.0058,0.0,0.0,0.0,0.0,0.0,0.0,0.0,0.0,0.0,0.0,0.0,-2.2554,-2.5248,-2.6536,-2.824,-3.0846,-3.054,-3.0467,-3.1054,-2.7662,-2.5841,-2.6465,-2.5034,-2.4557,-2.5311,-2.7603,-3.032,-3.3503,-3.5266,-3.7728,-4.0813,-4.243,-4.4247,-4.6089,-4.6945,-4.6569,-4.5063,-4.2139,-4.0898,-4.0576,-3.767,0.0,0.0,0.0,0.0,0.0,0.0,0.0,0.0,0.0,0.0,0.0,0.0,0.0,0.0,0.0,0.0,0.0,0.0,0.0,0.0,0.0,0.0,0.0,0.0,0.0,0.0,0.0,0.0,0.0,0.0,0.0,0.0,0.0,0.0,0.0,0.0,0.0,0.0,-3.5661,-3.92,0.0,0.0,0.0,0.0,-4.3778,-4.4739,-4.5932,-4.7625,-4.8586,-4.9471,-5.0356,-5.1972,-5.3241,-5.4126,-5.578,-5.6725,-5.6939,-5.7726,-5.8726,-5.9749,-5.8864,-5.8957,-5.9796,-5.8873,-5.8572,-5.8526,-5.5733,-5.4142,-5.3382,-5.2645,-5.2787,-5.3344,-5.2532,-5.2679,-5.3152,0.0,0.0,0.0,0.0,0.0,0.0,0.0,0.0,-2.2377,-2.2554,-2.3246,-2.4707,-2.7205,-2.917,-3.1238,-3.3523,-3.4431,-3.4321,-3.3036,-3.1127,-2.9696,-2.8962,-2.7383,-2.7126,-2.8448,-3.0356,-3.2669,-3.5422,-3.8065,-4.023,-4.1919,-4.3534,-4.5184,-4.6872,-4.7721,-4.8421,-4.8783,-4.5734,-4.3808,-4.2574,-3.9588,-3.7507,0.0,0.0,0.0,0.0,0.0,0.0,0.0,0.0,0.0,0.0,0.0,0.0,0.0,0.0,0.0,0.0,0.0,0.0,0.0,0.0,0.0,0.0,0.0,0.0,0.0,0.0,0.0,0.0,0.0,0.0,0.0,0.0,0.0,0.0,0.0,0.0,0.0,-4.2624,-4.4624,0.0,-4.5817,-4.5355,-4.5778,-4.7471,-4.8394,-4.9625,-5.1279,-5.3241,-5.4703,-5.5549,-5.6665,-5.7396,-5.7703,-5.8319,-5.8896,-5.9534,-5.9781,-6.0666,-6.2074,-6.0727,-6.0589,-6.1435,-6.1118,-6.1059,-6.1174,-6.0683,-5.8828,-5.6154,-5.5236,-5.5041,-5.5233,-5.4951,-5.5335,-5.5943,0.0,0.0,0.0,0.0,0.0,0.0,0.0,-2.2327,-2.2377,-2.2554,-2.3971,-2.5952,-2.8599,-3.1285,-3.3844,-3.6258,-3.6667,-3.6213,-3.4827,-3.2381,-3.065,-2.9843,-2.9035,-2.9365,-3.098,-3.3146,-3.5459,-3.7918,-4.0598,-4.2323,-4.3167,-4.5039,-4.6654,-4.8012,-4.9077,-5.0472,-5.1875,-4.9696,-4.7116,-4.4386,-4.2143,-4.0705,-3.9555,0.0,0.0,0.0,0.0,0.0,0.0,0.0,0.0,0.0,0.0,0.0,0.0,0.0,0.0,0.0,0.0,0.0,0.0,0.0,0.0,0.0,0.0,0.0,0.0,0.0,0.0,0.0,0.0,0.0,0.0,0.0,0.0,0.0,0.0,0.0,-4.447,-4.7009,-4.8779,-5.0048,-5.0625,-5.0202,-5.0587,-5.2279,-5.3203,-5.4395,-5.6126,-5.778,-5.9088,-5.9973,-6.0512,-6.0781,-6.0781,-6.0781,-6.0973,-6.1304,-6.1243,-6.1858,-6.2988,-6.1911,-6.1912,-6.2799,-6.2472,-6.2545,-6.2949,-6.307,-6.1541,-5.9104,-5.8505,-5.8041,-5.776,-5.7769,-5.8097,-5.8558,0.0,0.0,0.0,0.0,0.0,0.0,-2.2327,-2.2327,-2.2327,-2.2327,-2.3876,-2.6208,-2.9311,-3.2652,-3.5962,-3.9111,-3.6899,-3.5705,-3.653,-3.1065,-2.8227,-2.9049,-2.9879,-3.1091,-3.2779,-3.5936,-3.8762,-4.1185,-4.2763,-4.3938,-4.4782,-4.7205,-4.8783,-4.9664,-5.1316,-5.2931,-5.4406,-5.401,-5.1045,-4.6517,-4.5545,-4.4585,-4.3488,0.0,0.0,0.0,0.0,0.0,0.0,0.0,0.0,0.0,0.0,0.0,0.0,0.0,0.0,0.0,0.0,0.0,0.0,0.0,0.0,0.0,0.0,0.0,0.0,0.0,0.0,0.0,0.0,0.0,0.0,0.0,0.0,0.0,-3.9546,-4.3855,-4.7355,-4.8317,-5.1356,-5.3433,-5.351,-5.4972,-5.6626,-5.8319,-5.9204,-6.0396,-6.205,-6.2166,-6.2551,-6.332,-6.3358,-6.3358,-6.3358,-6.332,-6.2974,-6.2367,-6.2228,-6.232,-6.2603,-6.2425,-6.2895,-6.3767,-6.2797,-6.2949,-6.377,-6.2666,-6.2281,-6.2397,-6.2483,-6.1905,-6.0973,-6.0973,-6.0896,-6.0781,0.0,0.0,0.0,0.0,0.0,0.0,-2.2327,-2.2327,-2.2327,-2.2327,-2.5062,-2.7912,-3.028,-3.3801,-3.6755,-3.8593,-3.5972,-3.4715,-3.58,-3.1111,-2.9296,-3.1506,-3.2375,-3.4137,-3.6964,-3.8469,-4.0414,-4.2837,-4.3864,-4.4782,-4.5626,-4.7462,-4.8783,-4.9701,-5.1903,-5.3445,-5.4436,-5.4901,-5.4275,-5.2733,-4.9471,-4.7061,-4.5217,0.0,0.0,0.0,0.0,0.0,0.0,0.0,0.0,0.0,0.0,0.0,0.0,0.0,0.0,0.0,0.0,0.0,0.0,0.0,0.0,0.0,0.0,0.0,0.0,0.0,0.0,0.0,0.0,0.0,0.0,0.0,0.0,-4.4816,-4.4816,-4.7625,-5.1125,-5.5049,-5.6857,-5.8511,-6.0358,-6.0396,-6.0781,-6.1858,-6.2704,-6.3128,-6.2974,-6.4166,-6.4666,-6.4282,-6.4243,-6.4243,-6.4243,-6.3628,-6.3512,-6.3935,-6.3281,-6.3666,-6.4936,-6.3757,-6.37,-6.4492,-6.4215,-6.4257,-6.4564,-6.4782,-6.4512,-6.3858,-6.269,-6.1651,-6.0858,-6.0858,-6.0819,-6.0781,0.0,0.0,0.0,0.0,0.0,0.0,-2.1936,-2.218,-2.2327,-2.2327,-2.5509,-2.8388,-2.9937,-3.3137,-3.5531,-3.6272,-3.3948,-3.2573,-3.2782,-3.0541,-3.0221,-3.2496,-3.4357,-3.656,-3.9166,-4.0634,-4.2249,-4.4011,-4.5149,-4.614,-4.6948,-4.86,-4.9811,-5.0692,-5.2784,-5.4142,-5.495,-5.5757,-5.6088,-5.5875,-5.3419,-5.1619,-5.007,-4.7163,-4.6396,-4.6664,-4.5417,-4.5393,-4.5624,-4.397,0.0,0.0,0.0,0.0,0.0,0.0,0.0,0.0,0.0,0.0,0.0,0.0,0.0,0.0,0.0,0.0,0.0,0.0,0.0,0.0,0.0,0.0,0.0,0.0,-4.8086,-5.0702,-5.2472,-5.3395,-5.5395,-5.9396,-6.0935,-6.2204,-6.3705,-6.4051,-6.4397,-6.4859,-6.5705,-6.5974,-6.5474,-6.6397,-6.6705,-6.6205,-6.6205,-6.6013,-6.5667,-6.5128,-6.4974,-6.5128,-6.4282,-6.4589,-6.5859,-6.4589,-6.4474,0.0,-6.4872,-6.491,-6.5257,-6.532,-6.4859,0.0,0.0,0.0,0.0,0.0,-6.0781,-6.0781,0.0,0.0,0.0,0.0,0.0,0.0,-2.1483,-2.1974,-2.2237,-2.2265,-2.5372,-2.7841,-2.8518,-3.119,-3.2882,-3.278,-3.1162,-2.9796,-2.8876,-2.9771,-3.1127,-3.2963,-3.6046,-3.8542,-4.0267,-4.247,-4.4085,-4.4966,-4.6507,-4.7645,-4.8489,-5.0141,-5.1316,-5.205,-5.3775,-5.4913,-5.5647,-5.6565,-5.6932,-5.6932,-5.6932,-5.6578,-5.5734,-5.2621,-5.2406,-5.3351,-5.0615,-4.9298,-4.8606,-4.6778,0.0,0.0,0.0,0.0,0.0,0.0,0.0,0.0,0.0,0.0,0.0,0.0,0.0,0.0,0.0,0.0,0.0,0.0,0.0,0.0,0.0,0.0,0.0,0.0,-5.3587,-5.6703,-6.0935,-6.0242,-6.0127,-6.2397,-6.3974,-6.4936,-6.5013,-6.6359,-6.7244,-6.7244,-6.8052,-6.8513,-6.8398,0.0,0.0,0.0,0.0,-6.8013,-6.7244,-6.7244,-6.6898,-6.6167,-6.5397,-6.5436,-6.6167,-6.5397,-6.5397,-6.5974,-6.5205,-6.5282,-6.582,-6.5051,-6.4166,-6.3281,-6.3089,-6.2627,-6.1973,-6.1127,-6.0781,0.0,0.0,0.0,0.0,0.0,0.0,0.0,-2.1552,-2.1705,-2.1853,-2.2237,-2.4492,-2.6082,-2.6251,-2.8416,-2.96,-2.8958,-2.8013,-2.7663,-2.8145,-3.0067,-3.2485,-3.5459,-3.8065,-4.0487,-4.2727,-4.3901,-4.5186,-4.6654,-4.7609,-4.8526,-4.937,-5.0986,-5.183,-5.2087,-5.4363,-5.5427,-5.5684,-5.7152,-5.7776,-5.7776,-5.7776,-5.6762,-5.5099,-5.372,-5.3215,-5.3006,-5.1433,-5.2043,-5.3263,-5.0622,-5.051,-5.0933,-4.7855,-4.5285,0.0,0.0,0.0,0.0,0.0,0.0,0.0,0.0,0.0,0.0,0.0,0.0,0.0,0.0,0.0,0.0,0.0,0.0,0.0,-5.6126,-5.8396,-6.105,-6.5282,-6.559,-6.559,-6.6051,-6.6397,-6.6898,-6.759,-6.7975,-6.8167,-6.8167,-6.8975,-6.9129,-6.8436,-6.909,0.0,-6.8436,-6.8398,-6.8321,-6.8167,-6.8167,-6.809,-6.7898,0.0,0.0,-6.7898,-6.7744,-6.7359,-6.6859,-6.6667,-6.632,-6.5897,-6.5705,-6.4705,-6.3166,-6.182,-6.1627,-6.1973,-6.1127,-6.0781,-6.0781,0.0,0.0,0.0,0.0,0.0,0.0,-2.0831,-2.1337,-2.1612,-2.1645,-2.3606,-2.4906,-2.4447,-2.6117,-2.6927,-2.5949,-2.513,-2.5695,-2.8062,-3.0183,-3.3074,-3.6921,-3.9392,-4.1718,-4.4048,-4.4892,-4.5883,-4.7131,-4.8343,-4.937,-5.0215,-5.1426,-5.2417,-5.3261,-5.4876,-5.5794,-5.6271,-5.7483,-5.7997,-5.7997,-5.7997,-5.7361,-5.6478,-5.6283,-5.5846,-5.5168,-5.4321,-5.4352,-5.4439,-5.237,-5.1928,-5.1858,-4.9509,-4.7473,-4.5629,0.0,0.0,0.0,0.0,0.0,0.0,0.0,0.0,0.0,0.0,0.0,0.0,0.0,0.0,-4.9317,0.0,0.0,-5.6973,-6.0819,-6.2858,-6.4974,-6.7975,-6.8398,-6.8244,-6.7782,-6.8129,-6.8398,-6.8398,-6.9167,-6.9475,-6.909,-6.9821,-7.0129,-6.9667,-7.0052,-7.009,-6.9667,-6.9667,-6.9667,-6.9667,-6.9244,-6.9244,-6.9629,-6.8821,-6.8398,-6.8398,-6.7936,-6.7282,-6.6513,-6.6513,-6.6282,-6.582,-6.4974,-6.4359,-6.3782,-6.2089,-6.1435,-6.1396,-6.0973,-6.0781,-6.0781,0.0,0.0,0.0,0.0,0.0,0.0,0.0,-2.0894,-2.1275,-2.1023,-2.2633,-2.3519,-2.2859,-2.3984,-2.4542,-2.3883,-2.3278,-2.4566,-2.838,-3.0615,-3.359,-3.7792,-4.0236,-4.2517,-4.4748,-4.5407,-4.6286,-4.7352,-4.9003,-5.0141,-5.0839,-5.1793,-5.2931,-5.4216,-5.4987,-5.5721,-5.6418,-5.7373,-5.7776,-5.7776,-5.7923,-5.7997,-5.8006,-5.8233,-5.8029,-5.7516,-5.6776,-5.5484,-5.3968,-5.2845,-5.1916,-5.1053,-5.0183,-4.9196,-4.7851,-4.5333,-4.49,0.0,0.0,0.0,0.0,0.0,0.0,0.0,0.0,-4.5855,-4.7317,-4.8202,-5.0664,-5.3472,-5.6203,-5.8896,-6.1743,-6.4859,-6.659,-6.8129,-6.9706,-6.9937,-6.9667,-6.8975,-6.9513,-6.9667,-6.8936,-7.0129,-7.0629,-6.9975,-7.0514,-7.0898,-7.0898,-7.0898,-7.0975,-7.1168,-7.0975,-7.1052,-7.1398,-7.0437,-7.036,-7.1129,-6.9629,-6.8898,-6.8859,-6.8013,-6.7167,-6.6359,-6.6051,-6.5897,-6.5782,-6.4397,-6.4128,-6.4474,-6.3089,-6.205,-6.1281,-6.1281,-6.1281,-6.1281,0.0,0.0,0.0,0.0,0.0,0.0,0.0,0.0,-2.0567,-2.0959,-2.1215,-2.1344,-2.1279,-2.1725,-2.2421,-2.3354,-2.3659,-2.5398,-2.9207,-3.1879,-3.4801,-3.8096,-4.0512,-4.2792,-4.5015,-4.5164,-4.6161,-4.8196,-4.9848,-5.0729,-5.0839,-5.2344,-5.3188,-5.3371,-5.4179,-5.4583,-5.4766,-5.6308,-5.6932,-5.7005,-5.7703,-5.7997,-5.7923,-5.7279,-5.739,-5.77,-5.5877,-5.4167,-5.2744,-5.2227,-5.1508,-5.0941,-5.1508,-5.0572,-4.8975,-4.7528,-4.5567,-4.3666,-4.254,-4.197,-4.203,-4.3726,-4.4239,-4.5278,0.0,-5.1164,-5.2587,-5.3472,-5.6857,-5.9781,-6.0165,-6.2935,-6.5782,-6.7667,-6.8783,-6.9744,-7.0629,-7.0783,-7.0744,-7.0629,-7.0706,-7.0744,-7.0629,-7.0783,-7.086,-7.0783,-7.086,-7.0898,-7.0898,-7.0898,-7.1245,-7.2014,-7.1283,-7.1629,-7.3206,-7.1591,-7.1206,-7.2052,-7.1091,-7.0629,-7.0591,-6.9783,-6.8936,-6.8052,-6.6551,-6.5897,-6.5859,-6.5705,-6.5205,-6.4589,-6.4397,-6.3782,-6.3012,-6.3012,-6.3012,-6.3012,0.0,0.0,0.0,0.0,0.0,0.0,0.0,0.0,-2.0296,-2.0227,-2.0665,-2.0894,-2.0632,-2.1213,-2.1893,-2.2704,-2.2909,-2.4564,-2.8323,-3.0831,-3.3925,-3.7761,-4.0062,-4.2088,-4.387,-4.4705,-4.578,-4.7143,-4.9142,-5.0325,-5.0839,-5.1977,-5.3004,-5.3922,-5.4252,-5.4656,-5.517,-5.6308,-5.6822,-5.6822,-5.7189,-5.7299,-5.7152,-5.5904,-5.5023,-5.4332,-5.3031,-5.1525,0.0,-4.9674,-4.9346,-4.9227,-5.0258,-4.9448,-4.7861,-4.6833,-4.5786,-4.4948,-4.4789,-4.4995,-4.5592,-4.6914,-4.874,-5.0702,-5.251,-5.4972,-5.7126,-5.7973,-6.1127,-6.4051,-6.5051,-6.6821,-6.8475,0.0,-7.0167,-7.0514,-7.086,-7.0514,-7.0014,-6.9513,-6.9436,-6.9821,-7.0821,-7.0898,-7.0898,-7.0898,-7.0898,-7.1129,-7.1629,-7.1668,-7.2052,-7.2937,-7.2591,-7.3014,-7.4207,-7.3014,-7.2822,-7.363,-7.2283,-7.1398,-7.086,-7.0052,-6.8936,-6.759,-6.6397,-6.5897,-6.5859,-6.5359,-6.4936,-6.4589,-6.4589,-6.4397,-6.4012,-6.3512,-6.332,-6.332,0.0,0.0,0.0,0.0,0.0,0.0,0.0,0.0,0.0,0.0,-2.0258,-2.0599,-2.0501,-2.1181,-2.1794,-2.2237,-2.2496,-2.3917,-2.6996,-2.9533,-3.2542,-3.6284,-3.8756,-4.0839,-4.2414,-4.3665,-4.4785,-4.5702,-4.7783,-4.904,-4.9658,-5.0678,-5.177,-5.2899,-5.3295,-5.3778,-5.4444,-5.564,-5.6161,-5.6161,-5.6381,-5.6198,-5.5647,-5.4032,-5.2123,-5.0251,-4.9921,-4.8453,-4.6581,-4.6116,-4.5802,-4.5866,-4.7177,-4.674,-4.5726,-4.5406,-4.5304,-4.5418,-4.5856,-4.7009,-4.8471,-5.0048,-5.2856,-5.5434,-5.6395,-5.8819,-6.1204,-6.232,-6.4705,-6.6898,-6.7859,-6.8744,-6.9552,-7.0129,-7.0398,-7.0552,-7.0552,-6.986,-6.9013,-6.8167,-6.7859,-6.8205,-6.9398,-7.0167,-7.0552,-7.0552,-7.1014,-7.1514,-7.2168,-7.2437,-7.2937,-7.3822,-7.363,-7.4014,-7.5053,-7.4014,-7.3783,-7.4361,-7.2899,-7.1745,-7.086,-6.9821,-6.8398,-6.6744,-6.6128,-6.5897,-6.5859,-6.5205,-6.4974,-6.4974,-6.4974,-6.4974,-6.4897,-6.4243,-6.4012,-6.4012,0.0,0.0,0.0,0.0,0.0,0.0,0.0,0.0,0.0,0.0,0.0,0.0,-2.0894,-2.1337,-2.1794,-2.2237,-2.297,-2.4019,-2.5575,-2.8484,-3.1157,-3.3465,-3.6366,-3.8982,-4.1013,-4.1893,-4.294,-4.4236,-4.5843,-4.6624,-4.6695,-4.8222,-4.9052,-4.9124,-5.0494,-5.1122,-5.1276,-5.3522,-5.4473,-5.4546,-5.5317,-5.4693,-5.3151,-5.1536,-4.8893,-4.6177,-4.6948,-4.5186,-4.2359,-4.1552,-4.0777,-4.0409,-4.1989,-4.2466,-4.2677,-4.3757,-4.3943,-4.4064,-4.4908,-4.6607,-4.8894,-5.2241,-5.5011,-5.778,-6.1089,-6.3205,-6.4897,-6.6551,-6.7667,-6.809,-6.7282,-6.7859,-6.8475,-6.8475,-6.9206,-6.9744,-6.9744,-6.9013,-6.8129,-6.7244,-6.6436,-6.6013,0.0,-6.8282,-6.9744,-6.9744,-7.1245,-7.2168,-7.2206,-7.3014,-7.3822,-7.463,-7.3899,-7.4284,-7.5938,-7.4322,-7.3514,-7.3553,-7.2629,-7.1745,-7.0821,-6.9206,-6.7513,-6.5936,-6.5897,-6.5897,-6.5897,-6.5859,-6.5859,-6.5859,-6.5859,-6.5859,-6.5859,-6.582,-6.582,-6.582,0.0,0.0,0.0,0.0,0.0,0.0,0.0,0.0,0.0,0.0,0.0,0.0,0.0,0.0,0.0,0.0,-2.253,-2.3308,-2.4763,-2.7199,-2.9364,-3.1157,-3.4066,-3.6231,-3.741,-3.9098,-4.0627,-4.2065,-4.3527,-4.4778,-4.5808,-4.634,-4.6873,-4.7406,-4.8461,-4.8912,-4.8983,-5.0785,-5.2076,-5.2835,-5.1679,-5.1375,-5.1202,-4.7587,-4.4455,-4.1735,0.0,-3.957,-3.9056,-3.8799,-3.8175,-3.7771,-3.9386,-3.9533,-3.9381,-4.0861,-4.3147,-4.5507,-4.691,-5.0153,-5.3703,-5.6011,-5.8896,-6.1627,-6.3358,-6.5051,-6.6282,-6.6282,-6.6551,-6.6474,-6.559,-6.5667,-6.609,-6.6667,-6.7936,-6.8859,-6.8859,-6.859,-6.7667,-6.5667,-6.5205,0.0,0.0,0.0,0.0,-6.8783,-7.0398,-7.1822,-7.3014,-7.386,-7.4707,-7.5553,-7.5284,-7.5438,-7.5976,-7.5438,-7.4861,-7.4284,-7.286,-7.1745,-7.0821,-6.9167,-6.809,-6.7513,-6.6397,-6.5897,-6.5897,-6.5897,-6.5897,-6.5897,-6.5897,-6.5897,-6.5897,-6.5897,-6.5897,-6.5897,0.0,0.0,0.0,0.0,0.0,0.0,0.0,0.0,0.0,0.0,0.0,0.0,0.0,0.0,0.0,0.0,0.0,-2.2699,-2.3646,-2.5541,-2.7199,-2.845,-3.0937,-3.2723,-3.3626,-3.5361,-3.681,-3.7861,-3.9338,-4.0674,-4.189,-4.217,-4.273,-4.3582,-4.4836,-4.5564,-4.5952,-4.7429,-4.8436,-4.8911,-4.7222,-4.6385,-4.569,-4.2443,-3.9588,0.0,-3.5403,-3.4739,-3.4804,-3.5504,-3.5422,-3.5275,-3.689,-3.7845,-3.8676,-4.0111,-4.3278,-4.6895,-4.9667,-5.3427,-5.7203,-5.9511,-6.2166,-6.4436,-6.5282,-6.609,-6.6436,-6.559,-6.4705,-6.3705,-6.2551,-6.1858,-6.2012,-6.3782,-6.4974,-6.6128,-6.7321,-6.7244,-6.6436,-6.4782,-6.4589,-6.4051,0.0,0.0,0.0,-6.7859,-6.9783,-7.1668,-7.3399,-7.4284,-7.5091,-7.5976,-7.6015,-7.6015,-7.6015,-7.6015,-7.5438,-7.4245,-7.2552,-7.1283,-7.0437,-6.9052,-6.8244,-6.7898,-6.6782,-6.6167,-6.5936,-6.6551,-6.659,-6.6359,-6.6667,-6.6782,-6.6744,-6.6436,-6.632,-6.6282,0.0,0.0,0.0,0.0,0.0,0.0,0.0,0.0,0.0,0.0,0.0,0.0,0.0,0.0,0.0,0.0,0.0,0.0,-2.226,-2.3583,-2.4698,-2.5407,-2.7147,-2.8648,-2.9829,-3.0924,-3.1658,-3.2171,-3.3558,-3.4641,-3.5419,-3.6163,-3.6907,-3.7733,-3.9744,-4.1128,-4.2009,-4.3315,-4.3551,-4.2959,-4.2139,-4.0039,-3.7363,-3.647,-3.4652,-3.2549,-3.2162,-3.0975,-2.988,-3.1905,-3.2706,-3.3073,-3.4651,-3.7397,-4.024,-4.1595,-4.4541,-4.8375,-5.2946,-5.6352,-5.9319,-6.2551,-6.4628,-6.609,-6.6821,-6.632,-6.5436,-6.4474,-6.2243,-5.9973,-5.828,-5.6703,-5.6742,-6.005,-6.0781,-6.2089,-6.5359,-6.5243,-6.4743,0.0,0.0,0.0,0.0,0.0,0.0,-6.7244,0.0,-7.1668,-7.3476,-7.4322,-7.5168,-7.5976,-7.6015,-7.6015,-7.6015,-7.5899,-7.5053,-7.3476,-7.1745,-7.0514,-6.9744,-6.8859,-6.8013,-6.7244,-6.7167,-6.6744,-6.6167,-6.7744,-6.7898,-6.7167,-6.8013,-6.8321,-6.8167,-6.7321,-6.7051,-6.6936,0.0,0.0,0.0,0.0,0.0,0.0,0.0,0.0,0.0,0.0,0.0,0.0,0.0,0.0,0.0,0.0,0.0,0.0,-2.1481,-2.2233,-2.2932,-2.3418,-2.4636,-2.5701,-2.6564,-2.7441,-2.8655,-3.0149,-3.0516,-3.1247,-3.2341,-3.251,-3.3017,-3.377,-3.4278,-3.5249,-3.6512,-3.6869,-3.7879,-3.9035,-3.7205,-3.6531,-3.6363,-3.4197,-3.2549,-3.1304,-3.0862,-3.0015,-2.9503,-3.181,-3.3844,-3.5588,-3.6827,-3.9063,-4.1828,-4.4896,-4.8377,-5.2056,-5.5747,-5.9319,-6.2397,-6.3897,-6.5089,-6.5782,-6.5359,-6.4089,-6.2474,-6.0358,-5.7896,-5.5588,-5.3857,-5.4241,-5.5511,-5.7627,-6.0627,0.0,-6.4705,-6.6359,0.0,-6.5705,0.0,-6.6359,-6.6167,-6.7128,0.0,0.0,-7.0514,-7.1937,-7.4284,-7.5207,-7.5784,-7.5976,-7.6015,-7.6015,-7.6015,-7.4745,-7.3937,-7.3476,-7.1745,-7.0783,-7.0552,-6.9744,-6.9244,-6.9013,-6.8359,-6.7936,-6.7821,-6.8244,-6.7898,-6.7128,-6.7321,-6.7051,-6.6513,-6.6282,-6.6205,-6.6167,0.0,0.0,0.0,0.0,0.0,0.0,0.0,0.0,0.0,0.0,0.0,0.0,0.0,0.0,0.0,0.0,0.0,0.0,0.0,-2.0982,-2.1408,-2.1955,-2.2337,-2.284,-2.3468,-2.4063,-2.5061,-2.6465,-2.6833,-2.7581,-2.8755,-2.8755,-2.9127,-2.9871,-3.0548,-3.1461,-3.2577,-3.2916,-3.3407,0.0,0.0,-3.1487,-3.12,-3.0088,-2.9425,-2.908,-2.9315,-2.9905,-3.0882,-3.2936,-3.5532,-3.8198,-3.9904,-4.2486,-4.5627,-4.9344,-5.2574,-5.5683,-5.9192,-6.226,-6.4551,-6.5051,-6.5551,-6.5359,-6.3397,-6.1627,-5.9396,-5.5703,-5.351,-5.1625,-4.951,-5.0548,-5.2472,0.0,0.0,0.0,-6.3666,-6.559,-6.6667,0.0,-6.7821,0.0,-6.8282,-6.936,-7.0629,0.0,-7.1706,-7.2437,-7.4591,-7.5168,-7.5592,-7.5976,-7.6015,-7.6015,-7.6015,-7.4361,-7.3514,-7.3476,-7.1745,-7.0898,-7.086,-7.0052,-6.9706,-6.9667,0.0,-6.8744,-6.8475,-6.9206,-6.8783,-6.7744,-6.8475,-6.8052,-6.7013,-6.7013,-6.6744,-6.6359,0.0,0.0,0.0,0.0,0.0,0.0,0.0,0.0,0.0,0.0,0.0,0.0,0.0,0.0,0.0,0.0,0.0,0.0,0.0,0.0,-2.013,-2.0831,-2.0503,-2.0532,-2.0991,-2.1295,-2.1818,-2.2566,-2.3258,-2.4147,-2.5169,-2.5169,-2.5575,-2.6319,-2.7537,-2.8552,-2.9397,-2.9939,-2.9502,-2.8421,-2.7708,-2.6444,-2.5092,0.0,-2.6479,-2.6898,-2.8072,-3.0181,-3.2742,-3.4578,-3.7477,-4.0813,-4.3306,-4.6561,-5.0198,-5.3912,-5.6425,-5.8781,-6.2323,-6.4589,-6.5897,-6.5897,-6.5743,-6.4705,-6.1396,-5.9088,-5.6242,-5.1316,-4.9433,-4.7972,-4.5781,-4.6742,-4.9048,-5.2626,0.0,-5.7588,-6.2474,-6.4166,-6.5474,-6.6936,-6.936,-7.0706,-7.0244,-7.1514,-7.2783,-7.3783,-7.3129,-7.3322,-7.4784,-7.4861,-7.5207,-7.5976,-7.6015,-7.6015,-7.6015,-7.4437,-7.3668,-7.363,-7.1898,-7.1052,-7.1052,-7.0244,-6.9898,-6.9898,0.0,0.0,-6.8936,-7.0244,-6.986,-6.859,-7.0052,-6.9552,-6.809,-6.8321,-6.7859,-6.7013,0.0,0.0,0.0,0.0,0.0,0.0,0.0,0.0,0.0,0.0,-1.6984,-1.7017,0.0,0.0,0.0,0.0,0.0,0.0,0.0,0.0,0.0,-2.0127,-2.0252,-2.0532,-2.0991,-2.1054,-2.1311,-2.181,-2.1941,-2.2319,-2.2868,-2.2868,-2.3274,-2.3951,-2.3613,-2.4222,-2.5439,-2.4966,-2.5118,-2.5665,-2.5527,-2.531,-2.5149,-2.6517,0.0,0.0,-2.8385,-3.0051,-3.2082,-3.5055,-3.9093,-4.3345,-4.6112,-4.9219,-5.2594,-5.608,-5.832,-6.0217,-6.2644,-6.4589,-6.5897,-6.5897,-6.482,-6.3051,-6.0358,-5.6819,-5.2969,-4.9056,-4.6428,-4.4745,-4.4286,-4.5548,-4.8099,-5.2469,-5.5203,-5.8088,-6.1781,-6.482,-6.6782,0.0,-6.936,-7.1398,-7.2706,-7.3091,0.0,0.0,0.0,0.0,-7.5745,-7.5784,-7.5822,-7.6015,-7.6015,-7.6015,-7.6015,-7.5014,-7.4514,-7.4476,-7.2783,-7.1975,-7.1937,-7.1245,-7.0937,-7.0937,0.0,0.0,-7.0898,-7.0514,-6.964,-6.8641,-6.891,-6.7936,-6.6513,-6.7898,-6.7859,-6.7167,0.0,0.0,0.0,0.0,0.0,0.0,0.0,-1.6426,-1.6815,-1.8299,-1.8134,-1.7894,-1.7864,-1.7671,-1.7392,0.0,0.0,0.0,0.0,0.0,0.0,-1.9626,-1.9972,-2.0352,-2.0991,-2.0991,-2.1213,-2.1582,0.0,-2.1823,-2.2327,-2.2327,-2.2496,-2.2835,-2.3033,-2.3528,-2.4178,-2.4413,-2.4545,-2.4646,-2.4646,-2.4532,-2.4488,-2.6045,0.0,0.0,-2.8735,-3.0026,-3.1825,-3.4688,-3.8836,-4.3532,-4.7424,-5.1046,-5.4428,-5.7366,-5.9153,-6.0657,-6.2968,-6.4385,-6.5205,-6.5205,-6.3589,-6.1089,-5.7665,-5.381,-4.9844,-4.5851,-4.3945,-4.2822,-4.2344,-4.4516,-4.7248,-4.9844,-5.2235,-5.5203,-5.9511,-6.1858,-6.4128,-6.6782,-6.936,-7.1591,-7.3322,-7.3899,0.0,0.0,0.0,0.0,-7.6015,-7.6015,-7.6015,-7.6015,-7.6015,-7.6015,-7.6015,-7.513,-7.4707,-7.4707,-7.3553,-7.2811,-7.236,-7.2118,-7.18,-7.1358,-7.1474,0.0,-7.1435,-7.0563,-6.9843,-6.9308,-6.931,-6.8436,-6.7359,-6.8629,-6.8513,-6.7859,0.0,0.0,0.0,0.0,0.0,0.0,0.0,-1.6849,-1.7303,-1.9037,-1.905,-1.8828,-1.8628,-1.7955,-1.7338,0.0,0.0,0.0,0.0,0.0,0.0,0.0,0.0,0.0,-2.1244,0.0,0.0,0.0,-2.1764,0.0,0.0,0.0,0.0,0.0,-2.3206,-2.3611,-2.3807,-2.4585,-2.4635,0.0,0.0,-2.3968,0.0,0.0,0.0,0.0,0.0,-2.9916,-3.1494,-3.3733,-3.7404,-4.1772,-4.6067,-5.0637,-5.4837,-5.6889,-5.8493,-6.022,-6.2696,-6.3886,-6.4437,-6.4334,-6.2397,-5.9473,-5.5434,-5.1305,-4.7242,-4.3281,-4.1935,-4.1318,-4.0816,-4.3322,-4.5932,-4.7411,-4.935,-5.2395,-5.7319,-5.9204,-6.1743,-6.6282,-6.909,0.0,-7.3322,-7.4091,0.0,0.0,0.0,0.0,-7.6015,-7.6015,-7.6015,-7.6015,-7.6015,-7.6015,-7.6015,-7.5361,-7.4938,-7.4784,-7.413,-7.3366,-7.2533,-7.2584,-7.2167,-7.1559,-7.1602,0.0,0.0,-7.0687,-7.0212,-7.0013,-7.0035,-6.9398,-6.8629,-6.9706,-6.9513,-6.8744,0.0,0.0,0.0,0.0,0.0,0.0,0.0,-1.6398,-1.7121,-1.8345,-1.8736,-1.899,-1.929,-1.8687,-1.7895,0.0,0.0,0.0,0.0,0.0,0.0,0.0,0.0,0.0,0.0,0.0,0.0,0.0,0.0,0.0,0.0,0.0,0.0,0.0,0.0,0.0,-2.3247,-2.3047,0.0,0.0,0.0,0.0,0.0,0.0,0.0,0.0,0.0,-2.9586,-3.0577,-3.2265,-3.4614,-3.7294,-3.9937,-4.6067,-5.2401,-5.3051,-5.5436,-5.839,-6.0943,-6.2756,-6.3906,-6.3514,-6.1512,-5.8704,-5.528,-5.0423,-4.578,-4.2768,-4.0691,-3.9581,-4.0317,-4.1569,-4.3649,-4.7121,-4.937,-5.2202,-5.6511,-5.9858,-6.2897,-6.5667,0.0,0.0,-7.3283,0.0,0.0,0.0,0.0,0.0,0.0,-7.6015,-7.6015,-7.6015,-7.6015,-7.6015,-7.6015,-7.6092,-7.5745,-7.4947,-7.4303,-7.3534,-7.2679,-7.2066,-7.1761,-7.1698,0.0,0.0,0.0,-7.1013,-7.0583,-7.0452,-7.0426,-6.9783,-6.9052,-7.0733,-7.0695,-6.9886,0.0,0.0,0.0,0.0,0.0,0.0,-1.6657,-1.6728,-1.7213,-1.858,-1.9233,-1.9373,-1.8858,-1.8784,-1.8232,-1.6895,0.0,0.0,0.0,0.0,0.0,0.0,0.0,0.0,0.0,0.0,0.0,0.0,0.0,0.0,0.0,0.0,0.0,0.0,0.0,0.0,0.0,-2.3566,0.0,0.0,0.0,0.0,0.0,0.0,0.0,0.0,0.0,0.0,-2.9659,-3.0797,-3.2449,-3.4174,-3.4614,-3.9019,-4.4781,-4.8864,-5.2234,-5.5323,-5.8309,-6.1055,-6.2947,-6.2327,-6.006,-5.7066,-5.3491,-4.8495,-4.3905,-4.1555,-3.9881,-3.9113,-3.9956,-4.0798,-4.2167,-4.4635,-4.5646,-4.7586,-5.1818,-5.4472,-5.7857,-6.3012,-6.5859,0.0,0.0,0.0,0.0,0.0,0.0,0.0,0.0,-7.5707,-7.6015,-7.6015,-7.6015,-7.6015,-7.6015,-7.5553,-7.5245,-7.4985,-7.4324,-7.3601,-7.2871,-7.274,-7.2373,-7.1877,0.0,0.0,0.0,-7.1055,-7.0898,-7.1171,-7.0684,-7.0484,-7.0564,-7.1223,-7.1164,-7.0728,0.0,0.0,0.0,0.0,0.0,-1.6064,-1.6807,-1.6818,-1.7091,-1.8179,-1.9021,-1.9169,-1.8173,-1.8354,-1.8051,-1.6901,-1.6274,0.0,0.0,0.0,0.0,0.0,0.0,0.0,0.0,0.0,-2.2327,-2.2327,-2.2327,0.0,0.0,0.0,0.0,0.0,0.0,0.0,0.0,0.0,0.0,0.0,0.0,0.0,0.0,0.0,0.0,0.0,0.0,0.0,0.0,0.0,0.0,-3.1494,-3.1164,-3.3733,-3.8065,-4.4048,-4.8458,-5.2159,-5.5585,-5.8759,-6.1045,-6.0722,-5.831,-5.5224,-5.1989,-4.7182,-4.2863,-4.0952,-3.9555,-3.8903,-3.954,-4.0439,-4.1506,-4.275,-4.3569,-4.5361,-4.9104,-5.1162,-5.4549,-6.0589,0.0,0.0,0.0,0.0,0.0,0.0,0.0,0.0,0.0,-7.5053,-7.5476,-7.5976,-7.6015,-7.5861,-7.563,-7.5053,-7.463,-7.4284,-7.3884,-7.3314,-7.2618,-7.2834,-7.2578,-7.1992,0.0,0.0,0.0,-7.1328,-7.1367,-7.1719,-7.1172,-7.1225,-7.1663,-7.1663,-7.1485,-7.1258,0.0,0.0,0.0,0.0,0.0,0.0,-1.5799,-1.6338,-1.6726,-1.6726,-1.7731,-1.8129,-1.7386,-1.7379,-1.7239,-1.6843,-1.649,0.0,0.0,0.0,0.0,0.0,0.0,0.0,0.0,0.0,-2.2327,-2.2327,-2.2327,-2.2453,-2.2695,0.0,0.0,0.0,0.0,0.0,0.0,0.0,0.0,0.0,0.0,0.0,-2.4373,0.0,0.0,0.0,0.0,0.0,0.0,0.0,0.0,0.0,0.0,-3.1347,-3.3623,-3.8542,-4.3938,-4.9156,-5.294,-5.5772,-5.7829,-5.8639,-5.6328,-5.3276,-5.118,-4.6915,-4.2937,-4.125,-3.9751,-3.8773,-3.9063,-4.0486,-4.1717,-4.2059,-4.444,-4.7159,-4.9739,-5.1902,-5.478,0.0,0.0,0.0,0.0,0.0,0.0,0.0,0.0,0.0,0.0,-7.3976,-7.4284,-7.5938,-7.6015,-7.5592,-7.4707,-7.4899,-7.4168,-7.2542,-7.2851,-7.2539,-7.1718,-7.1914,-7.1992,0.0,0.0,0.0,0.0,-7.1992,-7.1992,-7.1992,-7.1992,-7.1992,-7.1992,-7.1992,-7.1786,-7.1388,0.0,0.0,0.0,0.0,0.0,0.0,0.0,-1.5978,-1.6069,-1.6069,-1.7025,-1.7527,-1.7002,-1.7432,-1.7674,-1.7515,-1.6747,0.0,0.0,0.0,0.0,0.0,0.0,0.0,0.0,0.0,-2.2327,-2.2327,-2.2473,-2.2625,-2.2721,-2.3165,-2.35,0.0,0.0,0.0,0.0,0.0,0.0,0.0,0.0,-2.474,-2.509,0.0,0.0,0.0,0.0,0.0,0.0,0.0,0.0,0.0,0.0,0.0,0.0,-3.4137,-3.9313,-4.4707,-4.6983,-5.0042,-5.2517,-5.2183,-5.0854,-4.9105,-4.7053,-4.4189,-4.1592,-4.0291,-3.9664,-3.9352,-3.9414,-4.0056,-4.1184,-4.3025,-4.4248,-4.5822,-4.8355,-5.1296,0.0,-5.9011,0.0,0.0,0.0,0.0,0.0,0.0,0.0,0.0,0.0,-7.363,-7.4014,-7.5091,-7.513,-7.4707,-7.3899,-7.3937,-7.3476,-7.2514,-7.2126,-7.1899,-7.1719,-7.1914,0.0,0.0,0.0,0.0,0.0,-7.1094,-7.1094,-7.1094,-7.1094,-7.1484,-7.1989,-7.186,-7.1675,-7.1427,0.0,0.0,0.0,0.0,0.0,0.0,0.0,-1.5799,-1.5799,-1.5799,-1.639,-1.6766,-1.6628,-1.6997,-1.7384,-1.7599,-1.7052,0.0,0.0,0.0,0.0,0.0,0.0,0.0,-2.1583,-2.2057,-2.2513,-2.2952,-2.2763,-2.2987,-2.3517,-2.3665,-2.3774,-2.3878,-2.4112,0.0,0.0,0.0,0.0,0.0,-2.452,-2.4924,-2.5421,0.0,0.0,0.0,0.0,0.0,0.0,0.0,0.0,0.0,0.0,0.0,0.0,0.0,-3.5459,-3.9717,-4.258,-4.5466,-4.7731,-4.7671,-4.6835,-4.5665,-4.425,-4.2552,-4.0995,-4.0008,-3.9709,-3.9664,-3.9775,-4.0106,-4.1026,-4.3018,-4.3771,-4.5132,-4.7989,-5.0873,0.0,0.0,0.0,0.0,0.0,0.0,0.0,0.0,0.0,0.0,0.0,0.0,-7.2899,-7.3745,-7.4091,-7.386,-7.3014,-7.3014,-7.2668,-7.2014,-7.1629,-7.1373,-7.1146,-7.1392,0.0,0.0,0.0,0.0,0.0,-7.0234,-7.0234,-7.0273,-7.0536,-7.0746,-7.1009,-7.1455,-7.1337,-7.0893,0.0,0.0,0.0,0.0,0.0,0.0,0.0,-1.5769,-1.5739,-1.5827,-1.5797,-1.5938,-1.6355,-1.6382,-1.6617,-1.7248,0.0,0.0,0.0,0.0,0.0,0.0,0.0,0.0,-2.2124,-2.226,-2.2829,-2.3919,-2.3163,-2.3527,-2.4865,-2.4201,-2.4024,-2.43,-2.43,-2.4263,0.0,0.0,0.0,0.0,-2.5017,-2.5384,0.0,0.0,0.0,0.0,0.0,0.0,0.0,0.0,0.0,0.0,0.0,0.0,0.0,0.0,0.0,0.0,0.0,-4.1732,-4.3266,-4.4451,-4.3792,-4.2786,-4.2463,-4.1761,0.0,-4.0253,-3.9882,-3.9775,-4.0138,-4.0561,-4.1306,-4.254,-4.3458,-4.5175,-4.848,-5.102,0.0,0.0,0.0,0.0,0.0,0.0,0.0,0.0,0.0,0.0,0.0,0.0,-7.1283,-7.2168,-7.2937,-7.2937,-7.2129,-7.2168,-7.186,-7.1168,-7.1376,-7.1017,-7.0208,-7.0541,0.0,0.0,0.0,0.0,0.0,-6.9414,-6.9414,-6.9488,-7.0059,-6.9886,-6.9437,-7.0809,-7.0758,-7.0002,0.0,0.0,0.0,0.0,0.0,0.0,0.0,0.0,0.0,0.0,-1.576,-1.5843,-1.6937,-1.7076,-1.7126,0.0,0.0,0.0,0.0,0.0,0.0,0.0,0.0,0.0,-2.0542,-2.1718,-2.2556,-2.2998,-2.3673,-2.4302,-2.4901,-2.5615,-2.5633,-2.5127,-2.5127,-2.4777,0.0,0.0,0.0,0.0,-2.441,-2.5217,0.0,0.0,0.0,0.0,-2.8007,-2.8338,0.0,0.0,0.0,0.0,0.0,0.0,0.0,0.0,-3.1635,-3.2964,-3.472,0.0,-3.8058,-3.839,-3.8488,-3.8697,0.0,-3.9624,-3.9906,-4.0329,-4.0356,-4.053,-4.1272,-4.1489,-4.2276,-4.4497,-4.5611,-4.6877,-4.9009,0.0,0.0,0.0,0.0,0.0,0.0,0.0,0.0,0.0,0.0,0.0,0.0,0.0,-7.1283,-7.2168,-7.1745,-7.1398,-7.1206,-7.186,-7.1783,-7.0975,-7.117,-7.0874,-7.0205,-7.0427,0.0,0.0,0.0,0.0,-6.8515,-6.8515,-6.8515,-6.8511,-6.851,-6.9194,-7.0117,-6.9562,-7.0015,-7.0783,0.0,0.0,0.0,0.0,0.0,0.0,0.0,0.0,0.0,0.0,0.0,-1.6333,-1.7182,-1.7296,0.0,0.0,0.0,0.0,0.0,0.0,0.0,0.0,0.0,-1.9824,-2.0534,-2.1506,-2.2453,-2.3473,-2.4277,-2.5013,-2.5703,-2.5926,-2.5805,-2.5384,-2.5017,-2.4593,0.0,0.0,0.0,-2.419,-2.419,0.0,0.0,0.0,0.0,0.0,-2.8521,-2.8631,0.0,-2.9439,-2.9642,-2.9732,0.0,0.0,0.0,0.0,-3.1652,-3.2449,-3.3674,-3.5042,-3.6112,-3.6112,-3.6754,-3.7564,-3.8419,-3.8971,-3.9508,-4.0315,-4.0508,-4.0777,-4.1662,-4.1816,-4.2624,-4.5201,-4.6317,-4.8317,0.0,0.0,0.0,0.0,0.0,0.0,0.0,0.0,0.0,0.0,0.0,0.0,0.0,0.0,-7.1129,-7.1591,-7.1168,-7.0706,-7.036,-7.0821,-7.0706,-6.9986,-7.0011,-6.9705,-6.913,-6.9244,0.0,0.0,0.0,0.0,-6.7617,-6.7617,-6.7546,-6.7502,-6.7691,-6.8072,-6.8552,-6.9001,-6.9475,-6.9937,0.0,0.0,0.0,0.0,0.0,0.0,0.0,0.0,0.0,0.0,0.0,0.0,0.0,0.0,0.0,0.0,0.0,0.0,0.0,0.0,0.0,0.0,-1.9012,-1.9722,-2.117,-2.1575,-2.2583,-2.4204,-2.4908,-2.5782,-2.6796,-2.6465,-2.6119,-2.5752,-2.4777,-2.43,0.0,0.0,-2.419,-2.419,-2.419,0.0,0.0,0.0,0.0,0.0,0.0,0.0,0.0,-2.9806,-3.0198,-3.0373,-3.013,0.0,0.0,0.0,0.0,0.0,-3.4377,-3.5608,-3.6328,-3.5811,-3.6578,-3.7639,-3.8478,-3.892,-3.9354,-4.0315,-4.0585,-4.0969,-4.1854,-4.22,-4.3162,-4.5586,-4.7163,0.0,0.0,0.0,0.0,0.0,0.0,0.0,0.0,0.0,0.0,0.0,0.0,0.0,0.0,0.0,0.0,-7.0706,-7.0706,-7.0244,-6.9321,-6.9552,-6.941,-6.8806,-6.8717,-6.8371,-6.7833,-6.7823,-6.7404,0.0,0.0,0.0,-6.6914,-6.6862,-6.675,-6.6627,-6.7187,-6.6941,-6.6551,-6.8552,-6.9013,-6.8821,0.0,0.0,0.0,0.0,0.0,0.0,0.0,0.0,0.0,0.0,0.0,0.0,0.0,0.0,0.0,0.0,0.0,0.0,0.0,0.0,0.0,-1.8877,-1.9519,-2.0264,-2.1204,-2.2091,-2.2803,-2.3366,-2.5781,-2.7172,-2.764,-2.9586,-2.9365,-2.7346,-2.5899,-2.4814,-2.419,-2.419,-2.419,-2.419,-2.419,0.0,0.0,0.0,0.0,0.0,0.0,0.0,0.0,-2.9122,-2.9363,-2.956,-2.9556,0.0,0.0,0.0,0.0,0.0,-3.4923,-3.7034,-3.8159,-3.5513,-3.5723,-3.6743,-3.76,-3.8022,-3.8623,-4.0162,-4.1085,-4.1854,-4.2739,-4.4047,-4.5624,0.0,0.0,0.0,0.0,0.0,0.0,0.0,0.0,0.0,0.0,0.0,0.0,0.0,0.0,0.0,0.0,0.0,0.0,-6.9898,-6.9898,-6.9129,-6.7513,-6.8975,-6.9283,-6.8487,-6.8475,-6.8129,-6.7475,-6.7603,-6.7266,0.0,0.0,-6.6914,-6.6873,-6.6726,-6.663,-6.6577,-6.6406,-6.669,-6.7205,-6.7436,-6.8359,-6.9629,0.0,0.0,0.0,0.0,0.0,0.0,0.0,0.0,0.0,0.0,0.0,0.0,0.0,0.0,0.0,0.0,0.0,0.0,0.0,0.0,-1.7864,-1.9169,-1.9723,-2.0399,-2.1204,-2.2399,-2.3517,-2.4513,-2.6995,-2.8516,-2.9108,-2.9329,-2.8374,-2.6429,-2.5254,-2.4557,-2.419,-2.419,-2.419,-2.419,0.0,0.0,0.0,0.0,0.0,0.0,0.0,0.0,0.0,0.0,-2.9567,-3.001,-2.9663,0.0,0.0,0.0,0.0,0.0,-3.5045,-3.6661,-3.7655,-3.6697,-3.7879,-3.9265,-3.9188,-3.9637,-4.0392,-4.1662,-4.2239,-4.2777,-4.3585,0.0,-4.824,-5.2241,0.0,0.0,0.0,0.0,0.0,0.0,0.0,0.0,0.0,0.0,0.0,0.0,0.0,0.0,0.0,0.0,0.0,0.0,-6.9013,-6.8398,-6.709,-6.7898,-6.7898,-6.7167,-6.709,-6.6974,-6.6885,-6.6913,-6.678,-6.6486,0.0,-6.668,-6.6635,-6.6547,-6.6453,-6.6307,-6.6167,-6.6282,-6.6628,-6.6974,-6.8205,-6.9744,0.0,0.0,0.0,0.0,0.0,0.0,0.0,0.0,0.0,0.0,0.0,0.0,0.0,0.0,0.0,0.0,0.0,0.0,0.0,-1.7344,-1.7906,-1.9299,-1.9765,-2.0467,-2.1414,-2.2818,-2.4242,-2.5628,-2.7876,-2.9512,-3.0467,-2.8815,-2.731,-2.5935,-2.4924,-2.4373,-2.419,-2.419,-2.43,-2.4483,0.0,0.0,0.0,0.0,0.0,0.0,0.0,0.0,0.0,0.0,0.0,0.0,0.0,0.0,0.0,-3.2416,-3.2914,-3.3583,-3.5315,-3.6392,-3.7123,-3.7584,-3.9315,-4.0931,-4.1085,-4.1623,-4.247,-4.3739,-4.4124,-4.447,-4.5086,-4.7432,0.0,0.0,0.0,0.0,0.0,0.0,0.0,0.0,0.0,0.0,0.0,0.0,0.0,0.0,0.0,0.0,0.0,0.0,0.0,0.0,-6.809,-6.7667,-6.6821,-6.6821,-6.6551,-6.6051,-6.5936,-6.6013,-6.6307,-6.6346,-6.6337,-6.6334,-6.6466,-6.6488,-6.6415,-6.6338,-6.6245,-6.609,-6.6051,-6.609,-6.6244,-6.6859,-6.8205,-6.9706,0.0,0.0,0.0,0.0,0.0,0.0,0.0,0.0,0.0,0.0,0.0,0.0,0.0,0.0,0.0,0.0,0.0,0.0,0.0,-1.7462,-1.7771,-1.8896,-1.963,-2.0677,-2.2192,-2.3571,-2.4726,-2.5628,-2.7876,-2.9806,-3.1274,-2.9659,-2.8448,-2.7567,-2.6009,-2.4887,-2.419,-2.419,-2.463,-2.5311,-2.5311,0.0,0.0,0.0,0.0,0.0,0.0,0.0,0.0,0.0,0.0,0.0,0.0,0.0,-3.1827,-3.2648,-3.3468,-3.4468,-3.6161,-3.7238,-3.7738,-3.6969,-3.7546,-3.9084,-4.22,-4.297,-4.3701,-4.6124,-4.724,-4.7778,-4.7817,-5.0587,0.0,0.0,0.0,0.0,0.0,0.0,0.0,0.0,0.0,0.0,0.0,0.0,0.0,0.0,0.0,0.0,0.0,0.0,0.0,0.0,0.0,-6.6782,-6.5974,-6.5974,-6.5974,-6.5897,-6.5897,-6.5897,-6.5936,-6.6051,-6.6097,-6.6118,-6.6344,-6.6409,-6.642,-6.6203,-6.6101,-6.609,-6.5936,-6.6359,-6.7013,-6.709,-6.8205,-6.9706,0.0,0.0,0.0,0.0,0.0,0.0,0.0,0.0,0.0,0.0,0.0,0.0,0.0,0.0,0.0,0.0,0.0,0.0,0.0,-1.7368,-1.7699,-1.8552,-1.9496,-2.0534,-2.1583,-2.3937,-2.5557,-2.6401,-2.8664,-2.9549,-2.9145,-2.8044,-2.709,-2.6266,-2.5144,-2.4483,-2.419,-2.419,-2.4373,-2.463,-2.463,-2.5144,0.0,0.0,0.0,0.0,0.0,0.0,0.0,0.0,-2.9712,-2.9924,-3.0163,-3.0919,-3.1852,-3.266,-3.3506,-3.4468,-3.5622,-3.6969,-3.8046,-3.8277,-3.9354,-4.0854,-4.2662,-4.4701,-4.6624,-4.8125,-4.9971,-5.1433,-5.1972,0.0,0.0,0.0,0.0,0.0,0.0,0.0,0.0,0.0,0.0,0.0,0.0,0.0,0.0,0.0,0.0,0.0,0.0,0.0,0.0,0.0,0.0,-6.6205,-6.5897,-6.5359,-6.5359,-6.5897,-6.5897,-6.5897,-6.5897,-6.6051,-6.6035,-6.5981,-6.6126,-6.6167,-6.609,-6.6013,-6.5974,-6.5974,-6.5897,-6.609,-6.6359,-6.6359,-6.709,-6.809,0.0,0.0,0.0,0.0,0.0,0.0,0.0,0.0,0.0,0.0,0.0,0.0,0.0,0.0,0.0,0.0,0.0,0.0,-1.7439,-1.7439,-1.7671,-1.817,-1.916,-2.0027,-2.0805,-2.3371,-2.5252,-2.6375,-2.8323,-2.8672,-2.7383,-2.6612,-2.5915,-2.5384,-2.4814,-2.4557,-2.4593,-2.485,-2.5107,-2.5291,-2.5071,-2.5585,0.0,0.0,0.0,0.0,0.0,0.0,0.0,0.0,-2.978,-2.9939,-3.0215,-3.0881,-3.1699,-3.2237,-3.3044,-3.393,-3.4507,-3.5738,-3.7084,-3.82,-3.9777,-4.1662,-4.4124,-4.6894,-4.9394,-5.1048,-5.2587,-5.378,-5.4395,0.0,0.0,0.0,0.0,0.0,0.0,0.0,0.0,0.0,0.0,0.0,0.0,0.0,0.0,0.0,0.0,0.0,0.0,0.0,0.0,0.0,0.0,-6.5089,-6.5089,-6.4474,-6.4512,-6.5166,-6.5166,-6.5436,-6.5974,-6.6051,-6.6051,-6.5974,-6.6013,-6.5974,-6.5897,-6.5897,-6.5897,-6.5897,-6.5897,-6.5897,-6.5897,-6.5897,-6.6397,-6.709,0.0,0.0,0.0,0.0,0.0,0.0,0.0,0.0,0.0,0.0,0.0,0.0,0.0,0.0,0.0,0.0,0.0,0.0,-1.7794,-1.7794,-1.7794,-1.7794,-1.8504,-1.9249,-1.9968,-2.1832,-2.3589,-2.5185,-2.6591,-2.7063,-2.6576,-2.5768,-2.5384,-2.5384,-2.5421,-2.5421,-2.5458,-2.6245,-2.7053,-2.7714,-2.6906,-2.7567,-2.8792,0.0,0.0,0.0,0.0,0.0,0.0,0.0,-2.9677,-2.9729,-2.9939,-3.0624,-3.1325,-3.1325,-3.2067,-3.2929,-3.2891,-3.3545,-3.4622,-3.6315,-3.8046,-4.0893,-4.6778,-4.9433,-5.1625,-5.5011,-5.5088,-5.4511,-5.4511,-5.5203,0.0,0.0,0.0,0.0,0.0,0.0,0.0,0.0,0.0,0.0,0.0,0.0,0.0,0.0,0.0,0.0,0.0,0.0,0.0,0.0,0.0,0.0,-6.332,-6.3281,-6.3397,-6.3603,-6.3589,-6.4474,-6.6076,-6.6115,-6.6115,-6.609,-6.5936,-6.5897,-6.5897,-6.5897,-6.5897,-6.5897,-6.5897,-6.5897,-6.5897,-6.5897,-6.6397,-6.709,0.0,0.0,0.0,0.0,0.0,0.0,0.0,0.0,0.0,0.0,0.0,0.0,0.0,0.0,0.0,0.0,0.0,0.0,-1.7794,-1.7794,-1.7794,-1.7794,-1.8504,-1.9249,-1.9968,-2.1589,-2.3302,-2.4992,-2.5409,-2.5346,-2.4924,-2.4667,-2.4557,-2.4557,-2.5164,-2.5421,-2.5458,-2.6245,-2.6759,-2.6943,-2.6722,-2.6906,-2.731,0.0,0.0,0.0,0.0,0.0,0.0,0.0,0.0,0.0,-2.9984,-3.1145,-3.2313,-3.1738,-3.3083,-3.4622,-3.3968,-3.5315,-3.7123,-3.8238,-4.1162,-4.4662,-4.8202,-4.9394,-5.1241,-5.6472,-5.6857,-5.6434,-5.7049,0.0,0.0,0.0,0.0,0.0,0.0,0.0,0.0,0.0,0.0,0.0,0.0,0.0,0.0,0.0,0.0,0.0,0.0,0.0,0.0,0.0,0.0,0.0,-6.332,-6.2743,-6.2858,-6.3589,-6.3109,-6.3456,-6.4488,-6.5109,-6.5316,-6.5218,-6.5782,-6.5974,-6.5897,-6.5897,-6.5551,-6.5051,-6.5667,-6.5897,-6.5897,-6.5897,-6.6051,-6.6244,0.0,0.0,0.0,0.0,0.0,0.0,0.0,0.0,0.0,0.0,-1.5135,-1.555,0.0,0.0,0.0,0.0,0.0,0.0,0.0,-1.7794,-1.7839,-1.7949,-1.8711,-1.9636,-2.0798,-2.2039,-2.3252,-2.4432,-2.4284,-2.4223,-2.419,-2.452,-2.4667,-2.4704,-2.5841,-2.6376,-2.6413,-2.7327,-2.7638,-2.753,-2.729,-2.7343,-2.7567,0.0,0.0,0.0,0.0,0.0,0.0,0.0,0.0,0.0,-2.9999,-3.1054,-3.2095,-3.1251,-3.2417,-3.3891,-3.3353,-3.5084,-3.7469,-3.9315,-4.2431,-4.5932,-4.9163,-5.1471,-5.4126,-5.8396,-5.8357,-5.778,-5.8627,-5.8896,0.0,0.0,0.0,0.0,0.0,0.0,0.0,0.0,0.0,0.0,0.0,0.0,0.0,0.0,0.0,0.0,0.0,0.0,0.0,0.0,0.0,0.0,-6.232,-6.1858,-6.2012,-6.2666,-6.2336,-6.2438,-6.2926,-6.4143,-6.459,-6.4425,-6.4825,-6.4936,-6.4897,-6.5243,-6.5051,-6.4705,-6.5551,-6.5897,-6.5897,-6.5897,-6.5897,-6.5897,0.0,0.0,0.0,0.0,0.0,0.0,0.0,0.0,0.0,0.0,-1.5386,-1.5799,0.0,0.0,0.0,0.0,0.0,0.0,0.0,-1.7816,-1.7949,-1.8211,-1.9073,-2.0363,-2.2087,-2.2822,-2.3374,-2.3753,-2.3432,-2.3566,-2.4226,-2.4944,-2.5348,-2.5458,-2.7016,-2.7735,-2.7889,-2.8957,-2.9249,-2.9016,-2.8477,-2.8586,-2.8993,-2.8242,0.0,0.0,0.0,0.0,0.0,0.0,0.0,0.0,-2.9999,-3.06,-3.1187,-3.0371,-3.0918,-3.1852,-3.2083,-3.3853,-3.6469,-3.9969,-4.2931,-4.6086,-5.0317,-5.4857,-5.8627,-6.0127,0.0,-5.8742,-5.9473,0.0,0.0,0.0,0.0,0.0,0.0,0.0,0.0,0.0,0.0,0.0,0.0,0.0,0.0,0.0,0.0,0.0,0.0,0.0,0.0,0.0,0.0,0.0,-6.0781,-6.0935,-6.1097,0.0,-6.1443,-6.1527,-6.1559,-6.3239,-6.3949,-6.3767,-6.3454,-6.3281,-6.3281,-6.4128,-6.4436,-6.4474,-6.5397,-6.5782,-6.5782,-6.5859,-6.5897,-6.5897,0.0,0.0,0.0,0.0,0.0,0.0,0.0,0.0,0.0,0.0,0.0,0.0,0.0,0.0,0.0,0.0,0.0,0.0,0.0,-1.8121,-1.8211,-1.8491,-1.9835,-2.1185,-2.2443,-2.2936,-2.35,-2.4075,-2.3774,-2.3795,-2.419,-2.4373,-2.4777,-2.5458,-2.6429,-2.729,-2.8106,-2.9001,-2.9474,-2.9533,-2.94,-2.9438,-2.9533,-2.9345,-2.9383,0.0,0.0,0.0,0.0,0.0,0.0,0.0,-2.9999,-3.0724,-3.1572,-3.138,-3.1981,-3.3083,-3.5084,-3.6007,-3.7584,-4.2316,-4.6894,-5.1202,-5.4818,-5.6472,-5.7357,-5.7742,-5.9127,-6.0319,0.0,0.0,0.0,0.0,0.0,0.0,0.0,0.0,0.0,0.0,0.0,0.0,0.0,0.0,0.0,0.0,0.0,0.0,0.0,0.0,0.0,0.0,0.0,-6.0781,-6.0781,-6.0935,-6.1098,0.0,-6.1445,-6.1552,-6.171,-6.2749,-6.3433,-6.3763,-6.343,-6.2935,-6.2397,-6.3243,-6.3205,-6.2781,-6.4282,-6.4897,-6.4974,-6.5628,-6.5897,-6.5897,0.0,0.0,0.0,0.0,0.0,0.0,0.0,0.0,0.0,0.0,0.0,0.0,0.0,0.0,0.0,0.0,0.0,0.0,0.0,0.0,-1.8667,-1.9343,-2.0622,-2.1784,-2.2773,-2.3376,-2.3837,-2.419,-2.4016,-2.4016,-2.419,-2.4593,-2.5181,-2.6009,-2.6905,-2.7823,-2.8743,-2.9419,-2.9677,-2.9695,-2.9796,-2.978,-2.9677,-2.9677,-2.9677,-2.9695,-2.9813,0.0,0.0,0.0,0.0,0.0,0.0,0.0,-3.1621,-3.1198,-3.1929,-3.3199,-3.4507,-3.6392,-3.9277,-4.4739,-4.874,-5.201,-5.4587,-5.578,-5.6511,-5.6896,-5.8704,0.0,0.0,0.0,0.0,0.0,0.0,0.0,0.0,0.0,0.0,0.0,0.0,0.0,0.0,0.0,0.0,0.0,0.0,0.0,0.0,0.0,0.0,0.0,-6.0589,-6.0781,-6.0781,-6.0935,-6.1119,-6.1289,-6.1446,-6.1539,-6.1612,-6.2028,-6.2297,-6.2444,-6.2228,-6.1858,-6.155,-6.2397,-6.2474,-6.2204,-6.3474,-6.3974,-6.4089,-6.4974,-6.5282,-6.532,0.0,0.0,0.0,0.0,0.0,0.0,0.0,0.0,0.0,0.0,0.0,0.0,0.0,0.0,0.0,0.0,0.0,0.0,0.0,0.0,0.0,-2.0608,-2.1387,-2.2244,-2.3199,-2.3859,-2.419,-2.419,-2.4228,-2.4339,-2.445,-2.5112,-2.5886,-2.6696,-2.7716,-2.8671,-2.9551,-2.9861,-2.9924,-2.9851,-2.9984,-2.9954,-2.9796,-2.9796,-2.9796,-2.9796,-2.9796,-2.9908,-3.0095,-3.0247,0.0,0.0,0.0,0.0,-3.1583,-3.1006,-3.1737,-3.2814,-3.3391,-3.6776,-4.1354,-4.6394,-4.9202,-5.1087,-5.2626,-5.4164,-5.5511,-5.6395,0.0,0.0,0.0,0.0,0.0,0.0,0.0,0.0,0.0,0.0,0.0,0.0,0.0,0.0,0.0,0.0,0.0,0.0,0.0,0.0,0.0,0.0,-6.0165,-5.9319,-5.9973,-6.0435,-6.055,-6.0704,-6.0866,-6.1045,-6.1187,-6.1291,-6.1405,-6.1281,-6.1169,-6.0973,-6.0858,-6.0781,-6.0858,-6.1589,-6.1858,-6.1935,-6.2781,-6.3089,-6.3205,-6.4051,-6.4397,-6.4512,0.0,0.0,0.0,0.0,0.0,0.0,0.0,0.0,0.0,0.0,-1.5271,-1.5967,0.0,0.0,0.0,0.0,0.0,0.0,0.0,0.0,0.0,-2.252,-2.208,-2.2501,-2.4006,-2.4153,-2.419,-2.419,-2.4375,-2.4832,-2.5482,-2.5594,-2.6115,-2.6916,-2.7954,-2.8985,-2.9924,-2.9984,-3.0122,-3.0318,-3.0343,-3.0343,-3.0318,-3.0318,-3.0318,-3.0318,-3.0318,-3.033,-3.047,-3.12,-3.1482,0.0,0.0,0.0,-3.1814,-3.2391,-3.2237,-3.2506,-3.5391,-3.9815,-4.4008,-4.5547,-4.8317,-5.0933,-5.1856,0.0,-5.378,0.0,0.0,0.0,0.0,0.0,0.0,0.0,0.0,0.0,0.0,0.0,0.0,0.0,0.0,0.0,0.0,0.0,0.0,0.0,0.0,0.0,0.0,-5.9242,-5.9319,-5.8511,-5.8588,-5.8973,-5.9665,-5.9835,-5.998,-6.0012,-6.0119,-6.0499,-6.1074,-6.1065,-6.1026,-6.0973,-6.0858,-6.0781,-6.0819,-6.0935,-6.0973,-6.105,-6.1897,-6.2243,-6.2358,-6.3166,-6.3474,-6.3589,0.0,0.0,0.0,0.0,0.0,0.0,0.0,0.0,0.0,0.0,0.0,-1.6566,0.0,0.0,0.0,0.0,0.0,0.0,0.0,0.0,0.0,-2.153,-2.2171,-2.2795,-2.3529,-2.3969,-2.4266,-2.4357,-2.4479,-2.497,-2.5888,-2.648,-2.7145,-2.7821,-2.8427,-2.9155,-3.0013,-3.015,-3.0279,-3.0379,-3.0379,-3.0121,-2.9775,-3.0775,-3.0852,-3.0533,-3.1468,-3.1506,-3.1275,-3.2083,-3.2083,-3.1852,-3.266,0.0,0.0,0.0,-3.3006,-3.3737,-3.6622,-3.9046,-4.1431,-4.4162,-4.6009,-4.7702,-4.9971,-5.1164,-5.2049,0.0,0.0,0.0,0.0,0.0,0.0,0.0,0.0,0.0,0.0,0.0,0.0,0.0,0.0,0.0,0.0,0.0,0.0,0.0,0.0,0.0,-5.7627,-5.8357,-5.8434,-5.7588,-5.805,-5.8473,-5.8819,-5.8934,-5.9011,-5.9095,-5.9128,-5.9573,-6.0342,-6.0204,-6.0435,-6.0858,-6.0819,-6.0781,-6.0781,-6.0781,-6.0781,-6.0819,-6.1204,-6.1358,-6.1473,-6.232,-6.2627,-6.2743,0.0,0.0,0.0,0.0,0.0,0.0,0.0,0.0,0.0,0.0,0.0,0.0,0.0,0.0,0.0,0.0,0.0,0.0,0.0,0.0,0.0,-2.109,-2.215,-2.2958,-2.3363,-2.4025,-2.4428,-2.4575,-2.4623,-2.522,-2.6441,-2.7268,-2.812,-2.8981,-2.914,-2.9524,-3.0122,-3.033,-3.0533,-3.0698,-3.0494,-3.016,-2.989,-3.0968,-3.0968,-3.0571,-3.2083,-3.2199,-3.1852,-3.2891,-3.2814,-3.2468,-3.3314,-3.3391,0.0,0.0,0.0,-3.4661,-3.6776,-3.77,-3.8777,-4.1893,-4.3355,-4.4701,0.0,0.0,0.0,0.0,0.0,0.0,0.0,0.0,0.0,0.0,0.0,0.0,0.0,0.0,0.0,0.0,0.0,0.0,0.0,0.0,0.0,0.0,0.0,0.0,-5.6703,-5.7511,-5.755,-5.6703,-5.728,-5.7742,-5.7973,-5.7973,-5.8127,-5.8457,-5.8226,-5.8572,-5.9419,-5.9242,-5.9665,-6.0473,-6.0704,-6.0781,-6.0781,-6.0781,-6.0781,-6.0781,-6.0781,-6.0781,-6.0858,-6.1512,-6.1781,-6.1897,0.0,0.0,0.0,0.0,0.0,0.0,0.0,0.0,0.0,0.0,0.0,0.0,-1.7489,-1.8377,-1.8984,-1.8984,0.0,0.0,0.0,0.0,0.0,-2.2795,-2.2354,0.0,-2.4385,-2.4632,-2.4775,-2.479,-2.4917,-2.5844,-2.751,-2.7785,-2.8764,-3.029,-3.029,-3.034,-3.0367,-3.0379,-3.0891,-3.1545,-3.0737,-3.0891,-3.1468,-3.0737,-3.0417,-3.0533,-3.1429,-3.1737,-3.1968,-3.3583,-3.4083,-3.4199,-3.5084,-3.4814,-3.4122,0.0,0.0,0.0,-3.5391,-3.6776,-3.8046,-3.8277,-4.0777,-4.3393,0.0,0.0,0.0,0.0,0.0,0.0,0.0,0.0,0.0,0.0,0.0,0.0,0.0,0.0,0.0,0.0,0.0,0.0,0.0,0.0,0.0,0.0,0.0,0.0,-5.5818,-5.6588,-5.6665,-5.578,-5.5818,-5.6242,-5.7049,-5.7049,-5.7473,-5.8319,-5.7473,-5.7511,-5.8396,-5.8357,-5.8819,-5.9627,-6.0435,-6.0781,-6.0781,-6.0781,-6.0781,-6.0781,-6.0781,-6.0781,-6.0819,-6.0858,-6.0858,-6.0973,0.0,0.0,0.0,0.0,0.0,0.0,0.0,0.0,0.0,0.0,0.0,0.0,0.0,-1.8886,-1.9444,-2.0114,-2.0355,0.0,0.0,0.0,0.0,-2.3281,-2.3618,-2.4061,-2.47,-2.476,-2.4823,-2.4943,-2.4993,-2.5968,-2.7785,-2.7868,-2.8775,-3.0379,-3.0379,-3.0379,-3.0417,-3.1006,-3.1429,-3.166,-3.1352,-3.1083,-3.0968,-3.1698,-3.1698,-3.1506,0.0,0.0,0.0,-3.4661,-3.4661,-3.4353,-3.5238,-3.5276,-3.5045,-3.5045,-3.5045,-3.5122,-3.543,-3.593,-3.6661,-3.7738,-3.8931,-4.0162,-4.1546,0.0,0.0,0.0,0.0,0.0,0.0,0.0,0.0,0.0,0.0,0.0,0.0,0.0,0.0,0.0,0.0,0.0,0.0,0.0,0.0,0.0,0.0,0.0,-5.4934,-5.4703,-5.4434,-5.4126,-5.4626,-5.5318,-5.6165,-5.6165,-5.6319,-5.6626,-5.6319,-5.6626,-5.7473,-5.7473,-5.7934,-5.8781,-5.9627,-6.0281,-6.0781,-6.0781,-6.0781,-6.0781,-6.0781,-6.0781,-6.0781,-6.0781,-6.0781,-6.0819,0.0,0.0,0.0,0.0,0.0,0.0,0.0,0.0,0.0,-1.8039,0.0,0.0,0.0,0.0,-2.0189,-2.1115,-2.1368,-2.1733,-2.2262,-2.2287,-2.2652,-2.3458,-2.4117,-2.4598,-2.485,-2.4917,-2.4993,-2.5099,-2.5099,-2.5921,-2.7467,-2.7775,-2.8621,-2.9967,-3.0275,-3.0379,-3.0417,-3.1006,-3.1583,-3.2045,-3.1506,-3.1429,-3.1775,-3.2583,-3.2583,0.0,0.0,0.0,0.0,0.0,0.0,0.0,-3.5315,-3.5493,-3.5493,-3.5493,-3.5493,-3.5493,-3.5493,-3.5493,-3.5853,-3.7238,-3.7777,-3.8354,-3.9777,0.0,0.0,0.0,0.0,0.0,0.0,0.0,0.0,0.0,0.0,0.0,0.0,0.0,0.0,0.0,0.0,0.0,0.0,0.0,0.0,0.0,0.0,0.0,-5.4049,-5.351,-5.3203,-5.3203,-5.378,-5.4318,-5.4857,-5.4857,-5.5011,-5.528,-5.528,-5.5742,-5.6549,-5.6549,-5.7049,-5.7896,-5.8434,-5.9319,-6.0396,-6.0666,-6.0781,-6.0781,-6.0781,-6.0781,-6.0781,-6.0781,-6.0781,-6.0781,0.0,0.0,0.0,0.0,0.0,0.0,0.0,0.0,-1.8129,-1.8911,0.0,0.0,0.0,0.0,0.0,-2.1988,-2.2209,-2.2363,-2.2401,-2.2363,-2.2691,-2.351,-2.375,-2.4213,-2.4991,-2.5203,-2.5303,-2.5303,-2.5303,-2.5736,-2.6621,-2.7505,-2.8313,-2.9121,-3.0006,-3.0379,-3.0379,-3.0456,-3.1429,-3.2776,-3.116,-3.2006,-3.4122,-3.3276,0.0,0.0,-3.493,-3.5007,0.0,-3.5238,0.0,0.0,0.0,-3.5545,-3.5545,-3.5545,-3.5545,-3.5545,0.0,0.0,0.0,-3.6469,0.0,0.0,-3.9008,0.0,0.0,0.0,0.0,0.0,0.0,0.0,0.0,0.0,0.0,0.0,0.0,0.0,0.0,0.0,0.0,0.0,0.0,0.0,0.0,0.0,0.0,-5.3164,-5.3164,-5.3126,-5.3126,-5.3164,-5.3164,-5.3164,-5.3203,-5.3203,-5.3626,-5.4511,-5.4511,-5.4934,-5.5703,-5.5703,-5.6165,-5.6934,-5.6973,-5.7934,-5.9511,-6.0396,-6.0781,-6.0781,-6.0781,-6.0781,-6.0781,-6.0781,-6.0781,-6.0781,0.0,0.0,0.0,0.0,0.0,-1.8644,-1.8842,-1.8866,-1.8953,0.0,0.0,0.0,-2.0482,-2.1861,-2.2849,-2.3088,-2.3393,-2.384,-2.4443,-2.3917,-2.3945,-2.4777,-2.4858,-2.4994,-2.5214,-2.5293,-2.5303,-2.5303,-2.5303,-2.5736,-2.6621,-2.7505,-2.8313,-2.9121,-3.0006,-3.0379,-3.0456,-3.1698,-3.2468,-3.2891,-3.3083,-3.3583,0.0,0.0,0.0,0.0,0.0,-3.6199,-3.6045,0.0,-3.6776,-3.7199,0.0,-3.6392,-3.6392,-3.6392,-3.6392,-3.6392,-3.6392,0.0,0.0,0.0,0.0,0.0,0.0,0.0,0.0,0.0,0.0,0.0,0.0,0.0,0.0,0.0,0.0,0.0,0.0,0.0,0.0,0.0,0.0,0.0,0.0,0.0,0.0,0.0,-5.2626,-5.2279,-5.2279,-5.1702,-5.1664,-5.2241,-5.2279,-5.2549,-5.3203,-5.3203,-5.3626,-5.4511,-5.4511,-5.4934,-5.5703,-5.5703,-5.5818,-5.6088,-5.6703,-5.7627,-5.8704,-5.9511,-6.0242,-6.0781,-6.0781,-6.0781,-6.0781,-6.0781,-6.0781,-6.0781,0.0,0.0,0.0,0.0,0.0,-1.9226,-1.9553,-1.9742,-1.9932,0.0,0.0,0.0,-2.159,-2.3072,-2.4049,-2.4049,-2.4388,-2.4812,-2.5264,-2.4851,-2.4812,-2.5264,-2.5303,-2.5303,-2.5303,-2.5303,-2.5303,-2.5303,-2.5303,-2.5572,-2.6082,-2.7313,-2.8159,-2.8659,-2.9852,-3.0379,-3.0494,-3.2199,-3.2891,0.0,-3.2699,0.0,0.0,-3.4353,-3.443,0.0,0.0,0.0,-3.6776,-3.7123,-3.7584,0.0,0.0,0.0,0.0,0.0,-3.6699,-3.6622,-3.6315,-3.6199,-3.6161,0.0,0.0,0.0,-3.6867,-3.8196,0.0,0.0,0.0,0.0,0.0,0.0,0.0,0.0,0.0,0.0,0.0,0.0,0.0,0.0,0.0,0.0,0.0,0.0,0.0,0.0,-5.0587,-5.0471,-5.0856,-5.0394,-5.0548,-5.1356,-5.1395,-5.1625,-5.2164,-5.2164,-5.2587,-5.3433,-5.378,-5.4395,-5.5203,-5.5549,-5.5703,-5.5742,-5.6242,-5.6934,-5.7819,-5.8665,-5.9704,-6.0781,-6.0781,-6.0781,-6.0781,-6.0781,-6.0781,-6.0781,0.0,0.0,-1.8659,-1.8766,-1.9142,-1.9711,-2.0519,-2.0649,-2.0923,0.0,-2.1992,-2.2423,-2.324,-2.4204,-2.4804,-2.4804,-2.5103,-2.5303,-2.5303,-2.5303,-2.5303,-2.5303,-2.538,-2.538,-2.5303,-2.538,-2.538,-2.5303,-2.538,-2.5418,-2.5495,-2.7236,-2.8044,-2.8082,-2.9698,-3.0379,-3.0533,-3.2083,0.0,-3.266,-3.1468,-3.2801,0.0,0.0,-3.4814,-3.5699,-3.7276,-3.7353,-3.6853,-3.77,-3.8007,0.0,0.0,0.0,0.0,0.0,-3.693,-3.6699,-3.6084,-3.593,-3.6084,0.0,0.0,0.0,-3.7343,-3.831,0.0,0.0,0.0,0.0,0.0,0.0,0.0,0.0,0.0,0.0,0.0,0.0,0.0,0.0,0.0,0.0,0.0,0.0,-4.8009,-4.8086,-4.8086,-4.8432,-4.9202,-4.924,-4.9625,-5.0394,-5.051,-5.0548,-5.0548,-5.0625,-5.1087,-5.1933,-5.2702,-5.3549,-5.4511,-5.5241,-5.5626,-5.5703,-5.5703,-5.6203,-5.7049,-5.7857,-5.9127,-6.0666,-6.0742,-6.0781,-6.0781,-6.0781,-6.0781,-6.0781,0.0,-1.8478,-1.9129,-1.9759,-2.0096,-2.0556,-2.14,-2.1547,-2.162,-2.1784,-2.239,-2.3106,-2.3916,-2.45,-2.4804,-2.4804,-2.5103,-2.5303,-2.5303,-2.5303,-2.5303,-2.5303,-2.5967,-2.6005,-2.5303,-2.6005,-2.6005,-2.5303,-2.6005,-2.6351,-2.639,-2.8082,-2.8852,-2.889,-2.9929,-3.0417,-3.0544,-3.1569,0.0,-3.2148,-3.384,0.0,-3.5468,-3.5315,-3.5353,-3.5622,-3.6622,-3.6853,-3.6853,-3.77,-3.8007,-3.7969,0.0,0.0,0.0,-3.843,0.0,0.0,0.0,0.0,0.0,0.0,0.0,0.0,-3.8794,-3.9187,-3.9374,0.0,0.0,0.0,0.0,0.0,0.0,0.0,0.0,0.0,0.0,0.0,0.0,0.0,0.0,0.0,0.0,-4.7124,-4.7394,-4.8048,-4.8086,-4.8163,-4.8355,-4.8355,-4.8432,-4.8586,-4.9279,-4.9663,-4.9663,-5.0356,-5.1087,-5.1895,-5.2087,-5.2972,-5.4511,-5.4664,-5.5088,-5.5703,-5.5703,-5.6203,-5.7011,-5.7165,-5.8242,-5.9819,-6.0512,-6.0781,-6.0781,-6.0781,-6.0781,-6.0781,-1.8121,-1.8943,-1.9722,-2.012,-2.075,-2.1437,-2.2281,-2.2391,-2.2538,-2.2942,-2.3455,-2.3895,-2.4302,-2.4663,-2.4904,-2.4904,-2.5149,-2.5303,-2.5303,-2.5687,-2.5967,-2.5967,-2.6774,-2.7044,-2.6621,-2.7005,-2.7044,-2.6621,-2.7044,-2.7236,-2.7274,-2.8544,-2.8929,-2.861,-2.9917,-3.0263,-3.0033,-3.1758,-3.2511,-3.257,-3.3364,0.0,-3.4814,-3.4416,-3.4762,-3.5622,-3.643,-3.7276,-3.8007,-3.8007,-3.8546,0.0,0.0,-3.8277,-3.87,0.0,-3.8969,-3.8661,0.0,0.0,0.0,-3.8123,0.0,0.0,0.0,-3.9094,-3.9315,0.0,0.0,0.0,0.0,0.0,0.0,0.0,0.0,0.0,0.0,0.0,0.0,0.0,0.0,0.0,0.0,-4.5124,-4.5932,-4.6778,-4.6855,-4.7048,-4.7471,-4.7509,-4.7702,-4.8086,-4.8509,-4.8971,-4.9394,-4.9817,-5.0471,-5.1318,-5.1702,-5.2356,-5.3241,-5.4087,-5.4703,-5.5126,-5.5511,-5.5934,-5.6395,-5.6819,-5.7742,-5.8973,-5.9819,-6.0435,-6.0781,-6.0781,-6.0781,-6.0781,-1.8454,-1.9427,-2.0355,-2.0608,-2.1407,-2.2281,-2.3125,-2.3235,-2.3474,-2.4192,-2.4445,-2.4543,-2.4543,-2.4836,-2.5144,-2.5487,-2.5384,-2.5495,-2.6005,-2.639,-2.6621,-2.6621,-2.7582,-2.8005,-2.7698,-2.8005,-2.8121,-2.7928,-2.8093,-2.817,-2.8209,-2.9055,-2.9105,-2.853,-2.9813,-3.0166,-2.9967,-3.2072,0.0,-3.2921,0.0,-3.3108,-3.4415,-3.3789,-3.4339,-3.5622,-3.6238,-3.7469,-3.87,-3.8007,-3.8777,-3.9815,-3.8623,-3.9046,0.0,0.0,0.0,0.0,0.0,0.0,0.0,0.0,0.0,-3.9638,0.0,0.0,0.0,0.0,0.0,0.0,0.0,0.0,0.0,0.0,0.0,0.0,0.0,0.0,0.0,0.0,0.0,0.0,0.0,-4.3162,-4.4355,-4.5047,-4.5432,-4.5817,-4.6355,-4.6547,-4.6971,-4.7586,-4.7778,-4.8202,-4.8894,-4.924,-4.974,-5.0471,-5.1279,-5.1741,-5.1972,-5.3549,-5.4357,-5.4549,-5.5357,-5.5703,-5.5742,-5.6472,-5.7242,-5.8165,-5.9127,-6.0012,-6.0781,-6.0781,-6.0781,-6.0781,-1.9367,-1.9917,-2.0858,-2.2093,-2.261,-2.3125,-2.3933,-2.4043,-2.4155,-2.4425,-2.4639,-2.476,-2.476,-2.4917,-2.5602,-2.7179,0.0,0.0,-2.8506,0.0,-2.661,-2.6687,-2.8198,-2.839,-2.6946,-2.8434,-2.8829,-2.8093,-2.8846,-2.9242,-2.9242,-3.0056,-3.0404,-3.0283,-2.9694,-3.0294,-3.1696,-3.2,-3.2154,0.0,-3.2943,-3.4146,0.0,-3.543,-3.5468,-3.5584,-3.5622,-3.6238,-3.6969,0.0,-3.7507,-3.8392,0.0,-3.8738,-3.8546,-3.9931,0.0,0.0,0.0,0.0,0.0,0.0,-4.0893,0.0,0.0,0.0,0.0,0.0,0.0,0.0,0.0,0.0,0.0,0.0,0.0,0.0,0.0,0.0,0.0,0.0,0.0,0.0,0.0,0.0,-4.3278,-4.3393,-4.4739,-4.5316,-4.4624,-4.5316,-4.5778,-4.5855,-4.6624,-4.7086,-4.7201,-4.8663,-4.9433,-4.9548,-5.0433,-5.1202,-5.1933,-5.2933,-5.378,-5.4549,-5.5357,-5.5703,-5.5703,-5.5818,-5.6357,-5.728,-5.8896,-6.0012,-6.0781,-6.0781,-6.0781,-6.0781,-2.0503,-2.1315,-2.2135,-2.2738,-2.3326,-2.3823,-2.4153,-2.4709,-2.5149,-2.533,-2.5996,-2.6412,0.0,0.0,0.0,0.0,0.0,-2.6505,0.0,0.0,-2.7824,-2.8874,-2.9594,-2.9901,-2.9776,-3.0001,-2.9923,-2.9544,-2.9939,-3.0094,-3.0094,-3.0479,-3.0409,-2.9949,-2.9615,-2.9881,-3.0686,0.0,-3.2399,0.0,0.0,0.0,0.0,-3.4727,-3.4847,-3.5738,-3.6661,-3.7199,-3.7546,0.0,-3.8777,0.0,0.0,0.0,0.0,0.0,0.0,0.0,0.0,0.0,0.0,0.0,0.0,0.0,-4.1239,0.0,-4.0623,0.0,0.0,0.0,0.0,0.0,0.0,0.0,0.0,0.0,0.0,0.0,0.0,0.0,0.0,0.0,0.0,0.0,0.0,0.0,0.0,-4.397,-4.3624,-4.4393,-4.4855,-4.4855,-4.5701,-4.6394,-4.6894,-4.7586,-4.8163,-4.8663,-4.951,-5.0125,-5.051,-5.1856,-5.2664,-5.3087,-5.4434,-5.5011,-5.5049,-5.5511,-5.6203,-5.7049,-5.778,-5.8858,-6.005,-6.005,-6.0358,-6.0781,-2.2025,-2.2611,-2.3088,-2.3309,-2.3823,-2.4301,-2.4561,-2.533,-2.5988,0.0,0.0,0.0,-2.8007,-2.8142,0.0,0.0,-2.7698,-2.7582,0.0,0.0,-2.9066,0.0,0.0,0.0,-3.1265,-3.1109,-3.0915,-3.0681,-3.0681,-3.0681,-3.0676,-3.0722,-3.0574,-3.0233,-3.0055,-3.0195,-3.0702,0.0,-3.2527,-3.3203,-3.4697,-3.5416,-3.5529,-3.4423,-3.4697,-3.5824,-3.7012,-3.7392,-3.7454,-3.8315,-3.9123,0.0,-3.9392,0.0,0.0,0.0,0.0,0.0,-4.0562,0.0,0.0,0.0,0.0,0.0,0.0,0.0,0.0,0.0,0.0,0.0,0.0,0.0,0.0,0.0,0.0,0.0,0.0,0.0,0.0,0.0,0.0,0.0,0.0,0.0,0.0,0.0,-4.2547,-4.2739,-4.247,-4.347,-4.4162,-4.4393,-4.524,-4.597,-4.6624,-4.6855,-4.7296,-4.7874,-4.872,-4.9202,-4.951,-5.0933,-5.1702,-5.201,-5.3741,-5.4511,-5.4549,-5.5357,-5.6049,-5.6626,-5.6626,-5.7665,-5.9204,-5.9435,-6.005,-6.0781,-2.3969,-2.3529,-2.3272,-2.4043,-2.419,-2.4505,-2.5482,0.0,0.0,0.0,0.0,0.0,0.0,0.0,0.0,0.0,0.0,-3.0083,-3.2545,0.0,-3.0106,0.0,0.0,-3.2089,0.0,-3.1289,-3.1758,-3.0898,-3.0898,-3.0898,-3.0898,-3.0898,-3.1327,-3.207,-3.1211,-3.1758,-3.3242,-3.25,-3.2226,-3.2305,-3.3164,-3.3984,-3.4805,0.0,-3.5859,-3.5852,-3.5725,0.0,0.0,-3.6531,-3.7353,0.0,0.0,0.0,0.0,0.0,0.0,0.0,0.0,0.0,0.0,-4.0947,0.0,0.0,0.0,0.0,-4.3008,0.0,0.0,0.0,0.0,0.0,-4.1777,-4.1777,0.0,0.0,0.0,0.0,0.0,0.0,0.0,0.0,0.0,0.0,0.0,-3.9554,-4.113,-4.1761,-4.0908,-4.2486,-4.3816,-4.4645,-4.547,-4.5911,-4.595,-4.6775,-4.7216,-4.7255,-4.7969,-4.8797,-4.9644,-5.0394,-5.1164,-5.201,-5.3741,-5.4511,-5.4549,-5.5357,-5.5703,-5.5742,-5.5742,-5.6819,-5.8434,-5.9204,-6.005,-6.0781,-2.3753,-2.3952,-2.4076,-2.4373,0.0,0.0,0.0,-2.7138,0.0,0.0,0.0,0.0,0.0,-3.3353,-3.3468,0.0,0.0,-3.1968,-3.2852,-3.1903,0.0,0.0,0.0,-3.2753,0.0,-3.2617,-3.2812,-3.2539,-3.2539,-3.2539,-3.2539,-3.1992,-3.2187,-3.293,-3.1523,-3.1523,0.0,0.0,0.0,0.0,0.0,-3.5625,-3.6406,0.0,0.0,-3.5976,-3.645,-3.6936,0.0,-3.8344,-3.9167,-3.9899,-4.0177,-4.0523,-4.0761,-4.0754,-4.077,0.0,0.0,0.0,-4.2463,-4.2416,0.0,0.0,0.0,0.0,0.0,0.0,0.0,0.0,0.0,0.0,-4.18,-4.1239,-4.0908,-4.0508,0.0,0.0,0.0,0.0,0.0,0.0,0.0,0.0,0.0,-3.9362,-3.9509,-3.9702,0.0,-4.108,-4.2322,-4.3807,-4.4649,-4.5347,-4.5902,-4.6174,-4.6329,-4.6329,-4.7068,-4.7612,-4.7912,-4.9259,-4.9971,-5.0356,-5.2049,-5.3126,-5.3703,-5.4549,-5.5203,-5.5703,-5.5703,-5.678,-5.8319,-5.8627,-5.9588,-6.0781,-2.4007,-2.4371,0.0,0.0,0.0,0.0,0.0,0.0,0.0,0.0,-3.3122,0.0,-3.5776,0.0,-3.5815,0.0,-3.4737,-3.4122,-3.3853,-3.366,0.0,-3.3093,-3.3655,0.0,0.0,0.0,-3.3156,-3.2891,-3.3203,-3.3398,-3.3398,-3.2851,-3.3086,-3.3828,-3.2734,-3.2383,-3.2617,-3.2617,-3.2773,0.0,0.0,-3.6055,0.0,0.0,-3.6172,-3.6406,0.0,-3.7223,-3.7976,-3.8485,-3.9429,-4.037,-4.0358,-4.0602,-4.0877,-4.087,-4.0852,-4.1006,-4.1548,-4.1944,0.0,-4.2801,-4.3402,0.0,-4.4563,0.0,0.0,0.0,0.0,0.0,0.0,0.0,-4.2279,-4.1403,-4.0978,-4.063,0.0,-3.996,0.0,0.0,0.0,0.0,0.0,0.0,-3.8992,-3.8616,-3.8451,-3.8644,0.0,0.0,-4.1418,-4.3456,-4.4343,-4.5201,-4.602,-4.602,-4.602,-4.6059,-4.6415,-4.6771,-4.7101,-4.8374,-4.9125,-4.9471,-5.1164,-5.2395,-5.328,-5.4126,-5.4972,-5.5703,-5.5703,-5.678,-5.8319,-5.8319,-5.9358,-6.0781,-2.476,0.0,0.0,0.0,-2.5693,0.0,0.0,0.0,-3.2045,0.0,-3.4545,-3.5968,-3.6815,-3.693,-3.7276,-3.8046,-3.7353,0.0,-3.5738,-3.6483,0.0,0.0,-3.4815,-3.4557,-3.202,0.0,0.0,0.0,-3.3007,-3.3437,-3.3516,-3.3476,-3.3945,-3.4766,-3.4726,-3.4219,-3.3398,-3.3398,-3.2969,-3.2422,-3.4101,-3.5273,-3.6055,-3.6016,0.0,-3.7226,-3.6289,-3.6523,-3.7264,-3.7157,-3.8286,-3.9695,-3.9695,-4.0276,-4.1007,-4.1007,-4.1015,-4.1016,-4.1055,-4.1668,-4.2279,-4.2196,0.0,0.0,0.0,0.0,-4.5857,0.0,0.0,0.0,0.0,0.0,0.0,-4.2256,-4.1357,-4.0758,0.0,0.0,0.0,0.0,0.0,0.0,0.0,-4.0408,-3.9838,-3.7341,-3.8032,-3.8555,0.0,0.0,-4.1055,-4.3555,-4.4492,-4.5351,-4.6289,-4.6288,-4.6287,-4.6287,-4.6034,-4.6317,-4.7139,-4.7797,-4.8548,-4.9433,-5.1125,-5.2356,-5.328,-5.4087,-5.4934,-5.5703,-5.5703,-5.678,-5.8319,-5.8396,-5.9435,-6.0781,-2.476,-2.5408,-2.6327,0.0,-2.8183,-2.8537,0.0,0.0,0.0,0.0,-3.6315,-3.7892,-3.9354,-4.0085,-4.0315,-3.9892,-3.9662,0.0,0.0,0.0,0.0,-3.4955,-3.5867,-3.5316,-3.2863,-3.4234,0.0,-3.3857,0.0,-3.5123,-3.5234,-3.4609,-3.4766,-3.5625,-3.5,-3.4219,-3.3398,-3.3398,-3.3281,-3.3242,-3.4961,-3.6172,0.0,0.0,-3.6953,-3.8164,-3.7266,-3.75,-3.832,-3.8941,-3.9875,-4.0773,-4.0773,-4.0957,-4.1133,-4.1133,-4.116,-4.1289,-4.1875,-4.2216,-4.2506,-4.3152,-4.363,-4.3984,0.0,0.0,0.0,0.0,0.0,0.0,0.0,0.0,0.0,-4.2304,-4.096,-4.0223,0.0,0.0,0.0,0.0,0.0,0.0,0.0,-3.9612,-3.8808,-3.8139,-3.7792,0.0,0.0,0.0,0.0,-4.2656,-4.3594,-4.4766,-4.6289,-4.6199,-4.6138,-4.6138,-4.5926,-4.5935,-4.618,-4.7509,-4.824,-4.8548,-5.024,-5.1856,-5.3241,-5.3433,-5.4395,-5.5703,-5.5703,-5.678,-5.8434,-5.9704,-6.0435,-6.0781,-2.5539,0.0,0.0,-2.8994,0.0,0.0,-3.0814,0.0,0.0,-3.5815,-3.7507,0.0,-3.9854,-4.0739,-4.1046,-4.0546,-4.0508,0.0,-3.9354,0.0,0.0,-3.6122,-3.6469,-3.5559,-3.3082,-3.3917,0.0,-3.389,0.0,-3.5374,-3.5872,-3.5419,-3.5469,-3.5976,-3.5508,-3.4766,-3.3984,-3.3984,-3.3984,-3.4101,-3.5469,0.0,0.0,-3.6172,-3.6836,-3.8008,-3.7891,-3.8437,-3.9258,-3.9726,-4.0469,-4.1211,-4.1211,-4.1211,-4.1211,-4.1211,-4.1211,-4.1289,-4.1758,-4.1875,-4.207,-4.293,-4.3125,-4.3242,-4.3594,-4.4062,-4.4414,0.0,0.0,0.0,0.0,0.0,0.0,-4.2287,0.0,0.0,0.0,0.0,0.0,0.0,0.0,0.0,0.0,0.0,-3.844,0.0,0.0,0.0,0.0,0.0,0.0,-4.2891,-4.3758,-4.4845,-4.6193,-4.6457,-4.6375,-4.6026,-4.5873,-4.5796,-4.5873,-4.7394,-4.8086,-4.8202,-4.9933,-5.1664,-5.3203,-5.3203,-5.4203,-5.578,-5.6549,-5.7434,-5.8511,-6.0165,-6.0781,-6.0781,0.0,0.0,0.0,0.0,0.0,0.0,0.0,-3.4122,0.0,-3.6699,0.0,-3.9469,-3.9469,-4.0162,-4.0623,-4.0508,0.0,-4.0315,-3.9508,-4.0085,-3.9469,-3.7161,-3.693,-3.5738,-3.3276,-3.3122,0.0,0.0,-3.3942,-3.4826,-3.5867,-3.5866,-3.5937,-3.6016,-3.6016,-3.5469,0.0,-3.4648,-3.4648,-3.4609,-3.5586,-3.6016,-3.6016,-3.6016,-3.6601,-3.7578,-3.832,-3.9141,-3.9922,-4.0039,-4.0586,-4.1211,-4.1211,-4.1211,-4.1211,-4.1211,-4.1211,-4.1211,-4.1211,-4.1211,-4.1367,-4.207,-4.2226,-4.2422,-4.3203,-4.3437,-4.3554,-4.3665,-4.3583,-4.3373,0.0,0.0,0.0,0.0,0.0,0.0,0.0,0.0,0.0,0.0,0.0,0.0,0.0,0.0,0.0,0.0,0.0,0.0,0.0,0.0,0.0,-4.3395,-4.4226,0.0,-4.624,0.0,-4.6681,-4.6026,-4.5988,-4.595,-4.5988,-4.7548,-4.8279,-4.8355,-5.0087,-5.1741,-5.3203,-5.3318,-5.428,-5.5857,-5.7627,-5.8319,-5.8511,-6.0165,-6.0781,-6.0781,0.0,0.0,0.0,0.0,0.0,-3.4622,-3.5853,-3.6776,-3.743,-3.7738,-3.9238,-4.0277,-4.0277,-4.1046,-4.1277,-4.0546,-4.1162,0.0,0.0,0.0,0.0,-3.8892,-3.8161,-3.693,-3.5084,-3.4353,-3.3968,0.0,-3.416,-3.4737,-3.5751,-3.5741,-3.5822,-3.6016,-3.6016,-3.5117,-3.3672,-3.4375,0.0,-3.3789,-3.5351,-3.6016,-3.6016,-3.6016,-3.6992,-3.8398,-3.8555,-3.9141,-4.0,-4.0742,-4.1055,-4.1211,-4.1211,-4.1211,-4.1211,-4.1211,-4.1211,-4.1211,-4.1211,-4.1211,-4.1211,-4.1367,-4.1406,-4.1445,-4.1601,-4.2148,-4.2837,-4.3535,-4.3079,-4.3143,-4.5081,0.0,0.0,0.0,0.0,0.0,0.0,0.0,0.0,0.0,0.0,0.0,0.0,0.0,0.0,0.0,0.0,0.0,0.0,0.0,0.0,0.0,0.0,0.0,0.0,0.0,-4.6287,-4.6817,-4.674,-4.6701,-4.6778,-4.8432,-4.9163,-4.9279,-5.0971,-5.2279,-5.328,-5.3972,-5.4857,-5.5857,-5.7627,-5.8319,-5.8511,-6.0165,-6.0781,-6.0781,0.0,0.0,0.0,0.0,0.0,0.0,0.0,-3.8469,0.0,-3.8738,-3.9392,-3.9892,-3.9892,-4.0623,-4.0969,-4.0546,-4.0893,-4.0777,-3.9931,-3.9892,-3.9277,-3.8007,-3.7546,0.0,-3.4853,-3.3968,-3.3737,-3.4199,-3.3737,-3.4276,-3.5713,-3.5706,-3.5806,-3.6016,-3.6016,-3.5547,0.0,0.0,0.0,-3.4805,-3.5664,-3.6289,-3.668,-3.668,-3.7773,-3.9258,-3.9258,-3.9844,-4.0625,-4.1055,-4.1211,-4.1211,-4.1211,-4.1211,-4.1211,-4.1211,-4.1211,-4.1168,-4.1098,-4.1085,-4.1069,-4.0998,-4.0972,-4.0972,-4.0972,-4.1285,-4.1719,-4.2205,-4.2226,-4.2821,-4.4889,-4.4124,0.0,0.0,0.0,0.0,0.0,0.0,0.0,0.0,0.0,0.0,0.0,0.0,0.0,0.0,0.0,0.0,0.0,0.0,0.0,0.0,0.0,0.0,0.0,0.0,0.0,-4.6278,-4.6701,-4.6894,-4.6971,-4.8625,-4.9663,-5.0125,-5.1356,-5.2664,-5.3933,-5.478,-5.5357,-5.5857,-5.7627,-5.8319,-5.8511,-6.0165,-6.0781,-6.0781,0.0,-3.3468,0.0,0.0,-3.6094,0.0,-3.8101,-3.9477,-4.0277,-3.9623,-3.9392,-3.9277,-3.9277,-3.9854,-4.0162,-3.9969,-4.0277,-4.0085,-3.9084,-3.92,-3.87,-3.7315,-3.7084,-3.6353,-3.5045,-3.4007,-3.3776,0.0,-3.3776,-3.4237,-3.5699,-3.6028,-3.6221,-3.625,0.0,0.0,0.0,0.0,-3.5898,-3.5742,-3.5937,-3.6523,-3.7305,-3.7305,-3.8353,-3.9855,-3.9855,-4.0413,-4.1125,-4.1125,-4.1119,-4.1147,-4.1123,-4.1125,-4.1125,-4.1125,-4.1125,-4.1101,-4.0986,-4.0969,-4.0945,-4.0809,-4.0781,-4.0781,-4.0781,-4.0781,-4.0937,-4.1412,-4.2227,-4.3206,-4.4273,-4.3915,0.0,0.0,0.0,0.0,0.0,0.0,0.0,0.0,0.0,0.0,0.0,0.0,0.0,0.0,0.0,0.0,0.0,0.0,0.0,0.0,0.0,-4.503,-4.6296,0.0,-4.674,0.0,-4.7086,-4.7432,-4.7509,-4.9163,-5.0317,-5.101,-5.201,-5.3318,-5.478,-5.5434,-5.5818,-5.6126,-5.7703,-5.8396,-5.8742,-6.0242,-6.0819,-6.0819,0.0,0.0,0.0,0.0,0.0,0.0,0.0,-3.9725,-4.0469,-4.0392,-3.9738,-3.9277,-3.9277,-3.9354,-3.9084,-3.8315,-3.9623,-3.9815,-3.8238,-3.8854,-3.9238,-3.9046,-3.8315,-3.7815,-3.7661,-3.6084,-3.5315,0.0,0.0,-3.5391,0.0,-3.7168,-3.7553,0.0,0.0,0.0,0.0,-3.5664,-3.5547,-3.4883,-3.5664,-3.6523,-3.7305,-3.7305,-3.8305,-3.9711,-3.9711,-4.0195,-4.0843,-4.0843,-4.0907,-4.1003,-4.0866,-4.0843,-4.0843,-4.0843,-4.0843,-4.0836,-4.0835,-4.0808,-4.0808,-4.08,-4.0815,-4.0815,-4.0815,-4.0815,-4.1262,-4.2842,-4.4383,-4.5214,-4.447,-4.4239,-4.4201,0.0,0.0,0.0,0.0,0.0,0.0,0.0,0.0,0.0,0.0,0.0,0.0,0.0,0.0,0.0,0.0,0.0,0.0,-4.3085,0.0,-4.547,-4.7855,-4.724,0.0,-4.9048,-4.9125,-4.9163,-4.9202,-5.0894,-5.1702,-5.1895,-5.3549,-5.4741,-5.5588,-5.5665,-5.6165,-5.6973,-5.7934,-5.8742,-5.9511,-6.0435,-6.0858,-6.0973,0.0,0.0,0.0,0.0,0.0,0.0,0.0,-4.0982,-4.1277,-4.1277,-4.0123,-3.9469,-3.9969,-3.9585,-3.9354,-3.9469,-4.0123,-4.0008,-3.8854,-3.9123,-3.9084,-3.8546,-3.77,-3.7469,-3.8007,-3.5853,-3.5199,0.0,0.0,0.0,0.0,0.0,0.0,0.0,0.0,-3.6562,-3.5469,-3.6406,-3.6562,-3.6289,-3.6641,-3.7578,-3.8753,-3.8753,-3.9422,-4.0366,-4.0367,-4.0535,-4.0771,-4.0732,-4.0808,-4.0862,-4.081,-4.081,-4.081,-4.081,-4.081,-4.0771,-4.0732,-4.0756,-4.0716,-4.0639,-4.0639,-4.0639,-4.0639,-4.1008,-4.1623,-4.2393,-4.3855,-4.5047,-4.5086,-4.5086,-4.5086,0.0,0.0,0.0,0.0,0.0,0.0,0.0,0.0,0.0,0.0,0.0,0.0,0.0,0.0,0.0,0.0,0.0,0.0,-4.3778,0.0,-4.5278,-4.7355,-4.7048,-4.7471,-4.8625,-4.9663,-5.0164,-5.024,-5.1933,-5.2972,-5.3549,-5.4703,-5.5703,-5.6472,-5.6472,-5.6973,-5.7857,-5.8704,-5.9204,-5.9627,-6.055,-6.0935,-6.1012,-3.7872,0.0,-3.8309,0.0,-4.0436,-4.1069,-4.1579,-4.1959,-4.2008,-4.147,-4.0392,-3.9777,-4.0085,-3.9623,-3.9431,-3.9738,-4.02,-4.0046,-3.8969,-3.9161,-3.9008,-3.8392,-3.7777,0.0,-3.8354,-3.6622,-3.6045,-3.6699,-3.6392,0.0,0.0,0.0,0.0,0.0,-3.7175,-3.7035,-3.6274,-3.7212,-3.7602,-3.7602,-3.7602,-3.8429,-3.9689,-3.9692,-4.0127,-4.077,-4.0766,-4.0754,-4.0716,-4.0677,-4.0677,-4.0716,-4.0716,-4.0716,-4.0716,-4.0716,-4.0716,-4.0716,-4.0639,-4.0639,-4.0639,-4.0508,-4.07,-4.0893,-4.0893,-4.1546,-4.2277,-4.2624,-4.3816,-4.4991,-4.5509,-4.5586,-4.5586,-4.5586,0.0,0.0,0.0,0.0,0.0,0.0,-4.1316,-4.1431,-4.0931,0.0,0.0,0.0,0.0,0.0,0.0,0.0,0.0,0.0,0.0,0.0,0.0,-4.7509,-4.8163,-4.924,-5.0471,-5.1202,-5.1471,-5.2933,-5.4049,-5.4895,-5.5434,-5.6203,-5.6973,-5.6973,-5.7627,-5.8704,-5.9281,-5.9665,-5.9973,-6.0666,-6.101,-6.1118,-3.968,-3.9376,-3.9566,-4.2123,-4.2123,-4.1656,-4.1361,-4.2333,-4.247,-4.0739,-4.0508,-4.02,-3.9392,-3.9315,-3.8969,-3.8084,-3.9546,-3.9777,-3.8123,-3.8815,-3.9277,0.0,0.0,-3.9277,-3.9277,-3.9238,-3.8392,-3.6699,0.0,0.0,-3.5545,0.0,-3.7305,-3.8075,-3.8229,-3.7808,-3.7055,-3.7918,-3.8276,-3.8276,-3.8276,-3.8821,-3.9613,-3.9598,-4.0046,-4.0677,-4.0716,-4.0639,-4.0508,-4.0508,-4.0508,-4.0508,-4.0508,-4.0508,-4.0508,-4.0508,-4.0508,-4.0508,-4.0508,-4.0508,-4.0508,-4.0508,-4.1162,-4.1777,-4.1777,-4.247,-4.3316,-4.4124,-4.497,-4.5586,-4.5586,-4.5586,-4.5586,-4.5586,0.0,0.0,0.0,0.0,0.0,0.0,-4.3239,-4.3585,-4.1931,0.0,0.0,0.0,0.0,0.0,0.0,0.0,0.0,-4.3124,-4.5547,0.0,-4.8086,-4.8933,-5.0202,-5.1856,-5.1895,-5.2356,-5.3203,-5.4087,-5.4934,-5.5703,-5.5703,-5.6203,-5.6973,-5.6973,-5.7973,-5.9473,-5.9511,-6.0012,-6.0781,-6.0781,-6.102,-6.1316,-3.9733,-4.036,-4.0966,-4.1781,-4.2432,-4.2851,-4.2997,-4.2374,-4.1951,-4.2223,-4.1239,-4.0392,-4.0162,-3.9623,-3.9392,0.0,-4.02,-4.0277,0.0,-3.9969,-4.0123,-4.0123,-3.9585,-3.9546,-4.0085,-3.9008,-3.8123,-3.7584,0.0,0.0,0.0,-3.7238,-3.7483,-3.7199,-3.846,-3.8593,-3.7797,-3.8762,-3.92,-3.92,-3.92,-3.9663,-4.0372,-4.0361,-4.0431,-4.0562,-4.0562,-4.0562,-4.0508,-4.0508,-4.0508,-4.0508,-4.0508,-4.0508,-4.0508,-4.0508,-4.0508,-4.0508,-4.0508,-4.0508,-4.0623,-4.1239,-4.1585,-4.197,-4.2547,-4.3316,-4.4162,-4.5009,-4.5393,-4.5586,-4.5586,-4.5586,-4.5586,-4.5586,-4.4393,0.0,0.0,0.0,0.0,0.0,-4.1893,-4.2393,0.0,-4.3316,0.0,0.0,0.0,0.0,0.0,0.0,0.0,0.0,-4.6471,0.0,-4.8971,-4.9856,-5.0818,-5.1933,-5.3087,-5.4126,-5.4934,-5.5818,-5.6319,-5.6626,-5.7203,-5.7934,-5.8704,-5.8704,-5.9358,-6.0396,-6.0396,-6.055,-6.0819,-6.0896,-6.0993,-6.1099,-3.9896,-4.0391,-4.0999,-4.2071,-4.2585,-4.3061,-4.3678,-4.3209,-4.2699,-4.2629,-4.1931,-4.1239,-4.0546,-4.0046,0.0,-4.0469,-4.0508,-4.0508,-4.0508,-4.0508,-4.0508,-4.0508,-4.0008,-3.9969,-4.0469,0.0,0.0,-3.8469,-3.8161,-3.7892,-3.77,-3.7892,-3.7892,-3.7738,-3.8845,-3.9061,-3.8623,-3.9531,-3.9915,-3.9915,-3.9915,-4.02,-4.0639,-4.0639,-4.0562,-4.0508,-4.0508,-4.0508,-4.0508,-4.0508,-4.0508,-4.0508,-4.0508,-4.0508,-4.0508,-4.0508,-4.0508,-4.0508,-4.0508,-4.0508,-4.07,-4.1585,-4.2047,-4.2585,-4.3778,-4.4432,-4.4932,-4.547,-4.5586,-4.5586,-4.5586,-4.5586,-4.5586,-4.5586,-4.4432,-4.3431,-4.3124,0.0,0.0,0.0,0.0,0.0,0.0,-4.3701,0.0,0.0,0.0,0.0,0.0,0.0,0.0,-4.6488,-4.7663,0.0,-4.9933,-5.1087,-5.2049,-5.2895,-5.428,-5.5203,-5.5742,-5.6648,-5.6879,-5.6588,-5.7819,-5.8627,-5.9088,-5.9396,-6.0012,-6.0781,-6.0781,-6.0781,-6.0819,-6.0896,-6.0935,-6.1042,-4.0151,-3.976,0.0,0.0,-4.2598,0.0,-4.3694,-4.4462,-4.4149,-4.2168,-4.2547,-4.2354,-4.0662,-4.0508,-4.0508,-4.0508,0.0,0.0,0.0,-4.0508,-4.0508,-4.0508,-4.0508,-4.0508,-4.0508,-4.0508,-4.0085,-3.9277,-3.843,-3.843,-3.92,-3.843,-3.8507,-3.9277,-3.9354,-3.9392,-3.9431,-4.0162,-4.0508,-4.0508,-4.0508,-4.0508,-4.0508,-4.0508,-4.0508,-4.0508,-4.0508,-4.0508,-4.0508,-4.0508,-4.0508,-4.0508,-4.0508,-4.0508,-4.0508,-4.0508,-4.0508,-4.0508,-4.0546,-4.0585,-4.0816,-4.1739,-4.2624,-4.3662,-4.524,-4.5586,-4.5586,-4.5586,-4.5586,-4.5586,-4.5586,-4.5586,-4.5586,-4.5586,-4.4855,-4.4008,-4.3201,0.0,0.0,0.0,0.0,0.0,0.0,-4.4355,-4.4432,0.0,0.0,0.0,0.0,0.0,-4.6831,-4.61,-4.9103,-5.0818,-5.1068,-5.2549,-5.3741,-5.4587,-5.5318,-5.5742,-5.5818,-5.6785,-5.6725,-5.6049,-5.7819,-5.855,-5.855,-5.9281,-6.0089,-6.0781,-6.0781,-6.0781,-6.0781,-6.0781,-6.0858,-6.0973,0.0,0.0,-4.1014,-4.2321,-4.2358,-4.2716,-4.4171,-4.3515,-4.2791,-4.2804,-4.2393,-4.17,-4.0623,-4.0508,-4.0508,-4.0508,-4.0508,-4.0508,-4.0508,-4.0508,-4.0508,-4.0508,-4.0508,-4.0508,-4.0508,-4.0508,-4.0085,-3.9277,-3.843,-3.8123,-3.8315,-3.8777,-3.9084,-3.9315,-3.9931,-4.02,-4.0239,-4.0431,-4.0508,-4.0508,-4.0508,-4.0508,-4.0508,-4.0508,-4.0508,-4.0508,-4.0508,-4.0508,-4.0508,-4.0508,-4.0508,-4.0508,-4.0508,-4.0508,-4.0508,-4.0508,-4.0508,-4.0662,-4.1316,-4.1508,-4.1854,-4.3355,-4.4355,-4.5086,-4.5509,-4.5586,-4.5586,-4.5586,-4.5586,-4.5586,-4.5586,-4.5586,-4.5586,-4.5586,-4.4855,-4.4008,-4.3201,-4.2931,0.0,0.0,-4.3239,-4.4085,-4.4278,-4.4893,-4.5603,0.0,0.0,0.0,0.0,0.0,-4.9666,-4.874,-5.0085,-5.1438,-5.2626,-5.3664,-5.4587,-5.5434,-5.5588,-5.6049,-5.6703,-5.6956,-5.7649,-5.8627,-5.9088,-5.9627,-6.0204,-6.0396,-6.0589,-6.0781,-6.0781,-6.0781,-6.0781,-6.0781,-6.0819,-6.0858,-3.9753,-4.0267,-4.0818,-4.1625,-4.1772,-4.2247,-4.3766,-4.3228,-4.2762,-4.3056,-4.2701,-4.1893,-4.0623,-4.0508,-4.0662,-4.1046,-4.1085,-4.0931,-4.0508,-4.0854,-4.0931,-4.0508,-4.0508,-4.0508,-4.0508,-4.0508,-4.0277,-3.9854,-3.9354,-3.9123,-3.9161,-3.9623,-3.9854,-3.9854,-4.0315,-4.0508,-4.0508,-4.0508,-4.0508,-4.0508,-4.0508,-4.0508,-4.0508,-4.0508,-4.0508,-4.0508,-4.0508,-4.0508,-4.0508,-4.0508,-4.0508,-4.0508,-4.0508,-4.0508,-4.0585,-4.0969,-4.1085,-4.12,-4.1662,-4.2085,-4.2701,-4.397,-4.497,-4.5586,-4.5586,-4.5586,-4.5586,-4.5586,-4.5586,-4.5586,-4.5586,-4.5586,-4.5586,-4.5586,-4.4855,-4.4162,-4.3701,-4.3316,0.0,-4.3508,-4.4355,-4.5201,-4.597,-4.6471,-4.6989,-4.7527,0.0,0.0,-4.9069,-5.0731,-5.1217,-5.0298,-5.1794,-5.3029,-5.3874,-5.4664,-5.528,-5.5703,-5.6088,-5.6319,-5.6434,-5.7726,-5.828,-5.8434,-5.9665,-6.0204,-6.0242,-6.0627,-6.0781,-6.0781,-6.0781,-6.0781,-6.0781,-6.0781,-6.0781,-6.0781,-3.957,-3.99,-4.0304,-4.1001,-4.1222,-4.1736,-4.3198,-4.3353,-4.3293,-4.3212,-4.3261,-4.2662,-4.1046,-4.0893,-4.12,-4.1931,-4.2124,-4.1816,-4.0931,-4.1354,-4.1316,-4.07,-4.0546,-4.0508,-4.0508,-4.0508,-4.0508,-4.0508,-4.0508,-4.0508,-4.0508,-4.0508,-4.0508,-4.0508,-4.0508,-4.0508,-4.0508,-4.0508,-4.0508,-4.0508,-4.0508,-4.0508,-4.0508,-4.0508,-4.0508,-4.0508,-4.0508,-4.0508,-4.0508,-4.0508,-4.0508,-4.0508,-4.0508,-4.0585,-4.0854,-4.1585,-4.197,-4.22,-4.22,-4.2816,-4.3624,-4.4316,-4.5047,-4.5586,-4.5586,-4.5586,-4.5586,-4.5586,-4.5586,-4.5586,-4.5586,-4.5586,-4.5586,-4.5586,-4.497,-4.4432,-4.4316,0.0,-4.4008,-4.5432,-4.5701,-4.6432,-4.8125,-4.8317,-4.8394,-4.8663,-4.9394,-4.9975,0.0,-5.1862,-5.2356,-5.1645,-5.3646,-5.478,-5.4836,-5.5549,-5.5895,-5.5895,-5.678,-5.6857,-5.6357,-5.8572,-5.8842,-5.7665,-5.9819,-6.0358,-5.9742,-6.0473,-6.0781,-6.0781,-6.0781,-6.0781,-6.0781,-6.0781,-6.0781,-6.0781,-3.8872,-3.9974,-4.0965,-4.1075,-4.1662,-4.2525,-4.3729,-4.3547,-4.3388,-4.3666,-4.3962,-4.3739,-4.2816,-4.2701,-4.2739,-4.2893,-4.3508,-4.3585,-4.2739,-4.1431,-4.0969,-4.1585,-4.0893,-4.0508,-4.0508,-4.0508,-4.0508,-4.0508,-4.0508,-4.0508,-4.0508,-4.0508,-4.0508,-4.0508,-4.0508,-4.0508,-4.0508,-4.0508,-4.0508,-4.0508,-4.0508,-4.0508,-4.0508,-4.0508,-4.0508,-4.0508,-4.0508,-4.0508,-4.0508,-4.0508,-4.0508,-4.0508,-4.0508,-4.1008,-4.1623,-4.1777,-4.2816,-4.3893,-4.3893,-4.4547,-4.524,-4.5355,-4.5509,-4.5586,-4.5586,-4.5586,-4.5586,-4.5586,-4.5586,-4.5586,-4.5586,-4.5586,-4.5586,-4.5586,-4.547,-4.5124,-4.4393,0.0,-4.5316,-4.5547,-4.624,-4.7355,-4.9048,-4.9202,-4.9836,-5.1357,-5.1588,-5.2069,-5.2935,-5.3948,-5.44,-5.4164,-5.4605,-5.5088,-5.5549,-5.6357,-5.678,-5.6819,-5.7665,-5.8396,-5.8896,-5.8665,-5.9165,-6.0204,-5.9858,-6.005,-6.0589,-6.0742,-6.0781,-6.0781,-6.0781,-6.0781,-6.0781,-6.0781,-6.0781,-6.0781,-3.9827,-4.0377,-4.0781,-4.1075,-4.1662,-4.2083,-4.2069,-4.2393,-4.2782,-4.3111,-4.3828,-4.397,-4.3201,-4.3085,-4.3278,-4.3701,-4.3701,-4.3893,-4.4393,-4.3239,-4.2316,-4.1816,-4.1393,-4.12,-4.12,-4.0739,-4.0739,-4.12,-4.0739,-4.0508,-4.0508,-4.0508,-4.0508,-4.0508,-4.0508,-4.0508,-4.0508,-4.0508,-4.0508,-4.0508,-4.0508,-4.0508,-4.0508,-4.0508,-4.0508,-4.0508,-4.0508,-4.0508,-4.0546,-4.1046,-4.12,-4.1277,-4.1739,-4.2162,-4.2585,-4.3008,-4.3701,-4.4393,-4.4855,-4.5278,-4.5586,-4.5586,-4.5586,-4.5586,-4.5586,-4.5586,-4.5586,-4.5586,-4.5586,-4.5586,-4.5586,-4.5586,-4.574,-4.6201,-4.5893,0.0,0.0,-4.6047,-4.6471,-4.6894,-4.8125,-4.9433,-5.0625,-5.1164,-5.1779,-5.2646,-5.2684,-5.3146,-5.4147,-5.455,-5.4954,-5.5318,-5.5357,-5.5472,-5.5703,-5.6549,-5.6973,-5.7011,-5.8319,-5.8896,-5.8858,-5.9396,-5.9819,-6.0089,-6.0165,-6.0435,-6.0781,-6.0781,-6.0781,-6.0781,-6.0781,-6.0781,-6.0781,-6.0781,-6.0781,-6.0781,-4.0561,-4.0634,-4.0634,-4.1038,-4.1442,-4.1535,-4.0919,-4.1499,-4.2233,-4.2987,-4.3905,-4.4303,-4.3739,-4.3662,-4.3932,-4.4547,-4.4047,-4.4239,-4.5509,-4.497,-4.3855,-4.22,-4.17,-4.1585,-4.1816,-4.0931,-4.0816,-4.1508,-4.0816,-4.0508,-4.0508,-4.0508,-4.0508,-4.0508,-4.0508,-4.0508,-4.0508,-4.0508,-4.0508,-4.0508,-4.0508,-4.0508,-4.0508,-4.0508,-4.0508,-4.0508,-4.0508,-4.0623,-4.0893,-4.1585,-4.1931,-4.2239,-4.2893,-4.3239,-4.3508,-4.4124,-4.4432,-4.4739,-4.5432,-4.5586,-4.5586,-4.5586,-4.5586,-4.5586,-4.5586,-4.5586,-4.5663,-4.5855,-4.5893,-4.597,-4.6163,-4.6163,-4.6355,-4.6817,0.0,0.0,0.0,-4.7048,-4.7548,-4.8586,-4.9894,-5.1164,-5.2395,-5.3126,-5.3587,-5.378,-5.378,-5.4126,-5.4878,-5.5109,-5.5609,-5.6434,-5.5972,-5.5703,-5.5703,-5.678,-5.728,-5.7319,-5.9011,-5.9473,-5.8934,-6.0204,-6.0435,-5.9858,-6.0512,-6.0781,-6.0781,-6.0781,-6.0781,-6.0781,-6.0781,-6.0781,-6.0781,-6.0781,-6.0781,-6.0781,-3.9827,-4.0561,-4.1075,-4.1111,-4.1148,-4.1405,-4.2062,-4.1853,-4.2323,-4.4183,-4.4805,-4.5128,-4.5376,-4.5432,-4.5432,-4.5509,-4.5432,-4.547,-4.5586,-4.5547,-4.4739,-4.3085,-4.147,-4.0969,-4.1777,-4.0931,-4.0508,-4.0585,-4.0508,-4.0508,-4.0508,-4.0508,-4.0508,-4.0508,-4.0508,-4.0508,-4.0508,-4.0508,-4.0508,-4.0508,-4.0508,-4.0508,-4.0508,-4.0508,-4.0508,-4.0508,-4.0508,-4.1008,-4.17,-4.1777,-4.2354,-4.3008,-4.3085,-4.3624,-4.4201,-4.4278,-4.4855,-4.5509,-4.5586,-4.5586,-4.5586,-4.5586,-4.5586,-4.5586,-4.5586,-4.5586,-4.5817,-4.6624,-4.6817,-4.7048,-4.7778,-4.7932,-4.7702,-4.7009,0.0,0.0,-4.7009,-4.7548,-4.8625,-5.0317,-5.0625,-5.1664,-5.4087,-5.4357,-5.4703,-5.5472,-5.5511,-5.5549,-5.5626,-5.6395,-5.7242,-5.8088,-5.6549,-5.5703,-5.5703,-5.7357,-5.8204,-5.8204,-5.9896,-6.0666,-6.0627,-6.0742,-6.0742,-6.0704,-6.0781,-6.0781,-6.0781,-6.0781,-6.0781,-6.0781,-6.0781,-6.0781,-6.0781,-6.0781,-6.0781,-6.0781,-4.0487,-4.1148,-4.1662,-4.1809,-4.1699,-4.1589,-4.1552,-4.218,-4.2923,-4.3693,-4.4734,-4.5457,-4.5586,-4.5586,-4.5586,-4.5586,-4.5586,-4.5586,-4.5586,-4.5086,-4.4509,-4.3855,-4.2739,-4.2508,-4.3316,-4.2547,-4.2124,-4.2124,-4.1585,-4.1046,-4.0508,-4.0508,-4.0508,-4.0508,-4.0508,-4.0508,-4.0508,-4.0508,-4.0508,-4.0508,-4.0508,-4.0508,-4.0508,-4.0508,-4.0508,-4.0546,-4.1123,-4.1508,-4.197,-4.3008,-4.3585,-4.3932,-4.447,-4.4855,-4.5086,-4.5086,-4.5316,-4.5586,-4.5586,-4.5586,-4.5586,-4.5586,-4.5586,-4.5586,-4.5586,-4.6009,-4.6509,-4.6817,-4.7317,-4.774,-4.8048,-4.8086,-4.8202,-4.8394,0.0,-4.8355,-4.9163,-4.951,-5.0183,-5.1434,-5.253,-5.3608,-5.4647,-5.5109,-5.5472,-5.578,-5.5742,-5.5703,-5.5703,-5.6511,-5.7396,-5.828,-5.7665,-5.7319,-5.7319,-5.8473,-5.905,-5.905,-6.0242,-6.0781,-6.0781,-6.0781,-6.0781,-6.0781,-6.0781,-6.0781,-6.0781,-6.0781,-6.0781,-6.0781,-6.0781,-6.0781,-6.0781,-6.0781,-6.0781,-6.0781,-4.0891,-4.1405,-4.1772,-4.2213,-4.2139,-4.1882,-4.1552,-4.2352,-4.3154,-4.3655,-4.463,-4.5381,-4.5568,-4.5586,-4.5586,-4.5586,-4.5586,-4.5586,-4.5586,-4.5047,-4.4586,-4.4316,-4.3547,-4.347,-4.4278,-4.3508,-4.3085,-4.3085,-4.2239,-4.1508,-4.0893,-4.0623,-4.0508,-4.0508,-4.0508,-4.0508,-4.0508,-4.0508,-4.0508,-4.0508,-4.0508,-4.0508,-4.0508,-4.0777,-4.0893,-4.1008,-4.1893,-4.2354,-4.2777,-4.3893,-4.447,-4.4816,-4.5393,-4.5586,-4.5586,-4.5586,-4.5778,-4.6009,-4.6009,-4.6201,-4.6317,-4.6086,-4.6201,-4.6394,-4.6394,-4.6855,-4.7355,-4.7625,-4.8125,-4.8586,-4.8856,-4.9125,-4.9317,-4.9394,-4.9586,-4.9933,-5.0587,-5.1164,-5.1838,-5.2743,-5.3916,-5.4762,-5.5129,-5.557,-5.5818,-5.5818,-5.5742,-5.5934,-5.6472,-5.7088,-5.7934,-5.905,-5.8819,-5.8819,-5.9088,-5.9358,-5.9511,-5.9511,-6.0396,-6.0781,-6.0781,-6.0781,-6.0781,-6.0781,-6.0781,-6.0781,-6.0781,-6.0781,-6.0781,-6.0781,-6.0781,-6.0781,-6.0781,-6.0781,-6.0781,-6.0781,-4.0781,-4.1111,-4.1368,-4.2176,-4.2323,-4.2323,-4.2323,-4.2323,-4.2871,-4.4406,-4.4599,-4.4872,-4.5532,-4.5586,-4.5586,-4.5586,-4.5586,-4.5586,-4.5586,-4.5586,-4.5201,-4.4355,-4.3547,-4.3508,-4.4278,-4.3547,-4.3124,-4.3085,-4.2239,-4.1816,-4.1777,-4.0893,-4.0508,-4.0508,-4.0508,-4.0508,-4.0508,-4.0508,-4.0508,-4.0508,-4.0508,-4.0508,-4.0623,-4.147,-4.1816,-4.1931,-4.2816,-4.3624,-4.4316,-4.4316,-4.4893,-4.5586,-4.5586,-4.5586,-4.5586,-4.5586,-4.6201,-4.6894,-4.6932,-4.7509,-4.7932,-4.7124,-4.7509,-4.8086,-4.8086,-4.8125,-4.8355,-4.924,-4.9433,-4.9702,-5.0548,-5.1356,-5.1395,-4.9702,-5.1548,-5.2626,-5.0971,-5.2164,-5.3549,-5.4395,-5.4511,-5.4818,-5.5626,-5.5703,-5.5703,-5.5703,-5.5703,-5.6472,-5.8204,-5.8319,-5.9088,-6.0742,-5.9973,-5.9935,-6.0781,-5.9935,-5.9511,-5.9511,-6.0396,-6.0781,-6.0781,-6.0781,-6.0781,-6.0781,-6.0781,-6.0781,-6.0781,-6.0781,-6.0781,-6.0781,-6.0781,-6.0781,-6.0781,-6.0781,-6.0781,-6.0781,-4.0157,-4.1185,-4.2029,-4.2249,-4.2763,-4.313,-4.313,-4.3324,-4.3683,-4.4109,-4.4612,-4.5011,-4.5222,-4.5457,-4.5586,-4.5586,-4.5586,-4.5586,-4.5586,-4.5586,-4.547,-4.5201,-4.497,-4.497,-4.5201,-4.497,-4.4278,-4.3085,-4.2854,-4.2085,-4.0893,-4.0623,-4.0816,-4.1393,-4.1393,-4.1739,-4.2316,-4.2316,-4.2316,-4.2316,-4.2316,-4.2316,-4.2354,-4.2624,-4.2701,-4.2816,-4.3662,-4.4085,-4.4393,-4.5009,-4.5355,-4.5586,-4.5586,-4.5586,-4.5701,-4.6317,-4.6701,-4.7009,-4.7586,-4.8355,-4.8817,-4.7971,-4.7932,-4.8086,-4.8086,-4.8586,-4.924,-5.0125,-5.0779,-5.1433,-5.2279,-5.2664,-5.2664,-5.2164,-5.2702,-5.3241,-5.3356,-5.378,-5.4434,-5.5357,-5.5472,-5.5626,-5.6032,-5.5895,-5.5818,-5.5818,-5.6319,-5.7357,-5.905,-5.9127,-5.9665,-6.0742,-6.055,-6.055,-6.0781,-6.055,-6.0396,-6.0435,-6.0666,-6.0781,-6.0781,-6.0781,-6.0781,-6.0781,-6.0781,-6.0781,-6.0781,-6.0781,-6.0781,-6.0781,-6.0781,-6.0781,-6.0781,-6.0781,-6.0781,-6.0781,-3.9827,-4.0928,-4.1919,-4.2249,-4.2947,-4.3497,-4.3497,-4.366,-4.3912,-4.4204,-4.4612,-4.4988,-4.5263,-4.5457,-4.5586,-4.5586,-4.5586,-4.5586,-4.5586,-4.5586,-4.5586,-4.5586,-4.5586,-4.5586,-4.5586,-4.5586,-4.5086,-4.4085,-4.3739,-4.2854,-4.1508,-4.1162,-4.1316,-4.1816,-4.1816,-4.2277,-4.3085,-4.3085,-4.3085,-4.3085,-4.3085,-4.3085,-4.3124,-4.3431,-4.3585,-4.3662,-4.4509,-4.4816,-4.4893,-4.5432,-4.5586,-4.5586,-4.5586,-4.5817,-4.6201,-4.674,-4.7355,-4.8009,-4.8471,-4.9471,-5.0279,-4.974,-4.9356,-4.9202,-4.9548,-5.001,-5.0625,-5.151,-5.2087,-5.2587,-5.3087,-5.3472,-5.3587,-5.328,-5.378,-5.4241,-5.4472,-5.478,-5.5203,-5.5742,-5.5818,-5.5857,-5.5994,-5.6203,-5.6472,-5.6819,-5.755,-5.8434,-5.9435,-5.9819,-6.0242,-6.0781,-6.0781,-6.0781,-6.0781,-6.0781,-6.0781,-6.0781,-6.0781,-6.0781,-6.0781,-6.0781,-6.0781,-6.0781,-6.0781,-6.0781,-6.0781,-6.0781,-6.0781,-6.0781,-6.0781,-6.0781,-6.0781,-6.0781,-6.0781,-6.0781,-3.9643,-4.0451,-4.1258,-4.2066,-4.2871,-4.3456,-4.3529,-4.3563,-4.3855,-4.4519,-4.465,-4.4896,-4.5475,-4.5586,-4.5586,-4.5586,-4.5586,-4.5586,-4.5586,-4.5586,-4.5586,-4.5586,-4.5586,-4.5586,-4.5586,-4.5586,-4.5547,-4.547,-4.4701,-4.3893,-4.3085,-4.2277,-4.197,-4.2008,-4.2008,-4.2508,-4.3316,-4.3316,-4.3316,-4.3316,-4.3316,-4.3316,-4.3393,-4.4124,-4.4432,-4.4509,-4.5316,-4.5586,-4.5586,-4.5586,-4.5586,-4.5586,-4.5701,-4.6278,-4.6932,-4.7086,-4.8202,-4.9433,-4.951,-5.0702,-5.1895,-5.1895,-5.1395,-5.1125,-5.1856,-5.201,-5.2279,-5.3126,-5.3318,-5.3356,-5.3395,-5.4087,-5.4357,-5.3549,-5.4703,-5.5434,-5.4703,-5.5318,-5.5818,-5.5818,-5.5895,-5.5934,-5.5934,-5.6626,-5.7473,-5.8357,-5.9088,-5.955,-5.9627,-6.0358,-6.0781,-6.0781,-6.0781,-6.0781,-6.0781,-6.0781,-6.0781,-6.0781,-6.0781,-6.0781,-6.0781,-6.0781,-6.0781,-6.0781,-6.0781,-6.0781,-6.0781,-6.0781,-6.0781,-6.0781,-6.0781,-6.0781,-6.0819,-6.0896,-6.0858,-6.0819,-3.8946,-3.9606,-4.0414,-4.1222,-4.2247,-4.3169,-4.3801,-4.4184,-4.4438,-4.4599,-4.4825,-4.5033,-4.5201,-4.5438,-4.5586,-4.5586,-4.5586,-4.5586,-4.5586,-4.5586,-4.5586,-4.5586,-4.5586,-4.5586,-4.5586,-4.5586,-4.5278,-4.4586,-4.4393,-4.3893,-4.3085,-4.2893,-4.3162,-4.3778,-4.3778,-4.4239,-4.5047,-4.5047,-4.5047,-4.5047,-4.5047,-4.5047,-4.5086,-4.524,-4.5316,-4.5316,-4.5509,-4.5586,-4.5586,-4.5586,-4.5586,-4.5701,-4.6394,-4.674,-4.7163,-4.8471,-4.9125,-4.9548,-5.024,-5.1125,-5.1895,-5.1895,-5.2279,-5.2702,-5.2895,-5.2933,-5.3164,-5.4049,-5.4203,-5.4395,-5.5049,-5.5318,-5.5395,-5.5203,-5.5472,-5.5626,-5.5472,-5.6165,-5.6703,-5.6703,-5.7319,-5.7742,-5.7742,-5.7896,-5.8357,-5.9165,-5.9396,-5.9819,-6.0473,-6.0704,-6.0781,-6.0781,-6.0781,-6.0781,-6.0781,-6.0781,-6.0781,-6.0781,-6.0781,-6.0781,-6.0781,-6.0781,-6.0781,-6.0781,-6.0781,-6.0781,-6.0781,-6.0781,-6.0781,-6.0781,-6.0781,-6.0781,-6.0858,-6.155,-6.1396,-6.0896,-3.8689,-3.9643,-4.0487,-4.0524,-4.2119,-4.3364,-4.3401,-4.4083,-4.4676,-4.4825,-4.4988,-4.5159,-4.5303,-4.5475,-4.5586,-4.5586,-4.5586,-4.5586,-4.5586,-4.5586,-4.5586,-4.5586,-4.5586,-4.5586,-4.5586,-4.5586,-4.5355,-4.4932,-4.4932,-4.447,-4.3662,-4.3662,-4.3893,-4.4316,-4.4316,-4.4778,-4.5586,-4.5586,-4.5586,-4.5586,-4.5586,-4.5586,-4.5586,-4.5586,-4.5586,-4.5586,-4.5586,-4.5586,-4.5586,-4.5586,-4.5893,-4.6317,-4.6778,-4.7471,-4.8279,-4.9125,-4.9702,-5.0125,-5.0587,-5.1587,-5.251,-5.251,-5.3472,-5.428,-5.3895,-5.3818,-5.4049,-5.4895,-5.5049,-5.5203,-5.5626,-5.6049,-5.6165,-5.578,-5.6395,-5.678,-5.6357,-5.7049,-5.7627,-5.7627,-5.8011,-5.8473,-5.8858,-5.8858,-5.9204,-6.005,-6.0127,-6.0319,-6.0781,-6.0781,-6.0781,-6.0781,-6.0781,-6.0781,-6.0781,-6.0781,-6.0781,-6.0781,-6.0781,-6.0781,-6.0781,-6.0781,-6.0781,-6.0781,-6.0781,-6.0781,-6.0781,-6.0781,-6.0781,-6.0781,-6.0781,-6.0781,-6.0858,-6.132,-6.1435,-6.155,-3.8689,-3.979,-4.0524,-3.9974,-4.1853,-4.337,-4.2959,-4.3804,-4.4683,-4.512,-4.518,-4.5283,-4.5568,-4.5586,-4.5586,-4.5586,-4.5586,-4.5586,-4.5586,-4.5586,-4.5586,-4.5586,-4.5586,-4.5586,-4.5586,-4.5586,-4.5586,-4.5586,-4.5586,-4.524,-4.4509,-4.4509,-4.4509,-4.4509,-4.4509,-4.4932,-4.5586,-4.5586,-4.5586,-4.5586,-4.5586,-4.5586,-4.5586,-4.5586,-4.5586,-4.5586,-4.5586,-4.5586,-4.5624,-4.5778,-4.6317,-4.6971,-4.724,-4.8279,-4.9433,-4.9586,-5.0125,-5.0741,-5.0856,-5.2049,-5.3241,-5.3395,-5.4587,-5.5549,-5.5049,-5.4818,-5.4934,-5.5742,-5.5934,-5.5972,-5.6126,-5.6742,-5.6973,-5.6242,-5.7357,-5.805,-5.7319,-5.7973,-5.8511,-5.8511,-5.8627,-5.8973,-5.9665,-5.9704,-6.0012,-6.0742,-6.0781,-6.0781,-6.0781,-6.0781,-6.0781,-6.0781,-6.0781,-6.0781,-6.0781,-6.0781,-6.0781,-6.0781,-6.0781,-6.0781,-6.0781,-6.0781,-6.0781,-6.0781,-6.0781,-6.0781,-6.0781,-6.0781,-6.0781,-6.0781,-6.0781,-6.0896,-6.105,-6.1166,-6.1781,-6.2627,-3.8689,-3.8872,-3.9203,-3.979,-4.07,-4.1757,-4.3038,-4.3874,-4.4612,-4.5417,-4.555,-4.555,-4.5586,-4.5586,-4.5586,-4.5586,-4.5586,-4.5586,-4.5586,-4.5586,-4.5586,-4.5586,-4.5586,-4.5586,-4.5586,-4.5586,-4.5586,-4.5586,-4.5586,-4.5547,-4.5432,-4.5432,-4.5432,-4.5432,-4.5432,-4.547,-4.5586,-4.5586,-4.5586,-4.5586,-4.5586,-4.5586,-4.5586,-4.5586,-4.5586,-4.5586,-4.5586,-4.5586,-4.5701,-4.6471,-4.6817,-4.7163,-4.8586,-4.9202,-4.9548,-5.0279,-5.0587,-5.0856,-5.1548,-5.2472,-5.3395,-5.4126,-5.5011,-5.5857,-5.6511,-5.6088,-5.578,-5.6626,-5.6819,-5.7049,-5.7819,-5.805,-5.8088,-5.7973,-5.8165,-5.828,-5.8127,-5.8819,-5.9358,-5.9358,-6.0012,-6.0512,-6.0589,-6.0627,-6.0666,-6.0781,-6.0781,-6.0781,-6.0781,-6.0781,-6.0781,-6.0781,-6.0781,-6.0781,-6.0781,-6.0781,-6.0781,-6.0781,-6.0781,-6.0781,-6.0781,-6.0781,-6.0781,-6.0781,-6.0781,-6.0781,-6.0781,-6.0781,-6.0781,-6.0781,-6.0781,-6.1243,-6.2012,-6.2704,-6.3512,-6.4282,-3.8689,-3.9056,-3.9375,-3.9431,-4.0637,-4.1879,-4.2784,-4.3714,-4.4624,-4.547,-4.5586,-4.5586,-4.5586,-4.5586,-4.5586,-4.5586,-4.5586,-4.5586,-4.5586,-4.5586,-4.5586,-4.5586,-4.5586,-4.5586,-4.5586,-4.5586,-4.5586,-4.5586,-4.5586,-4.5586,-4.5586,-4.5586,-4.5586,-4.5586,-4.5586,-4.5586,-4.5586,-4.5586,-4.5586,-4.5586,-4.5586,-4.5586,-4.5586,-4.5586,-4.5586,-4.5663,-4.6163,-4.6317,-4.6432,-4.7278,-4.7894,-4.8432,-4.9163,-4.974,-5.0202,-5.0587,-5.101,-5.1471,-5.1818,-5.2895,-5.401,-5.4395,-5.5088,-5.578,-5.6203,-5.6357,-5.6549,-5.6896,-5.6973,-5.7126,-5.7511,-5.8357,-5.8819,-5.8357,-5.9088,-5.9511,-5.905,-5.9704,-6.0242,-6.0242,-6.055,-6.0781,-6.0781,-6.0781,-6.0781,-6.0781,-6.0781,-6.0781,-6.0781,-6.0781,-6.0781,-6.0781,-6.0781,-6.0781,-6.0781,-6.0781,-6.0781,-6.0781,-6.0781,-6.0781,-6.0781,-6.0781,-6.0781,-6.0781,-6.0781,-6.0781,-6.0781,-6.0781,-6.0781,-6.0781,-6.0781,-6.132,-6.2243,-6.3551,-6.3974,-6.4012]}]]